GFSGL_prec_cthk_000.txt.gz
RH
78 81 81 80 79 78 80 77 75 69 59 50 44 41 39 37 35 36 34 32 34 34 34 37 40 42 51 53 43 43 45 43 42 39 37 33 31 69 88 99 98 98 98
79 77 80 82 83 81 78 77 71 61 51 46 44 41 37 34 32 30 28 27 30 31 32 34 36 38 44 46 45 41 42 42 41 42 48 39 33 36 48 79 97 97 98
80 83 86 85 81 82 79 73 62 54 49 44 39 36 33 30 29 26 25 27 34 35 37 40 40 44 47 44 44 41 41 41 42 36 45 47 40 34 37 49 79 96 97
88 87 84 84 83 78 73 64 56 50 42 37 35 32 29 26 26 27 31 37 39 42 46 48 48 51 52 53 54 51 47 46 48 46 40 49 43 43 36 42 59 83 97
92 86 87 83 78 73 69 61 50 41 35 32 29 25 26 29 30 34 41 50 59 64 68 71 72 71 72 71 65 59 53 51 51 53 52 44 50 43 33 38 49 70 90
86 87 83 79 76 75 67 49 38 31 27 25 25 26 30 32 38 49 61 67 76 81 86 89 91 92 90 89 85 76 65 59 51 51 52 50 48 47 42 35 45 51 76
87 83 80 79 77 72 55 37 28 24 23 25 27 32 34 46 63 75 85 88 89 88 88 90 91 91 92 92 95 96 92 72 59 48 52 56 47 58 48 40 38 45 57
84 81 81 81 72 61 40 27 23 25 27 28 33 38 53 68 77 83 88 88 89 88 90 94 96 95 96 97 95 93 95 92 75 55 42 43 52 53 64 53 40 42 47
82 81 81 78 63 42 28 23 26 30 30 34 39 55 69 74 80 82 84 86 88 91 94 98 98 98 97 98 96 93 91 76 83 72 53 42 47 55 61 73 54 41 53
81 77 76 57 34 29 24 25 33 33 35 40 55 71 78 80 84 87 91 94 95 97 97 97 98 97 98 98 96 96 90 71 80 80 71 58 45 45 49 54 69 50 46
76 70 46 33 30 26 27 34 36 37 40 55 70 78 84 87 89 94 98 98 97 97 97 98 97 98 98 98 98 97 91 72 77 72 70 66 51 47 50 53 60 54 44
72 47 33 31 29 29 35 38 39 42 53 70 77 81 84 92 95 96 98 98 98 96 98 98 98 98 98 97 97 98 96 82 71 64 62 60 54 46 37 51 61 56 45
45 33 32 31 31 37 40 41 42 53 69 78 81 85 92 94 97 98 97 96 98 97 97 96 94 95 96 96 98 96 98 92 70 64 67 61 54 51 42 47 42 57 59
32 31 33 34 35 43 44 42 48 64 78 81 86 93 94 95 97 97 97 98 97 98 96 95 96 97 95 92 88 91 95 97 79 62 63 70 68 55 46 42 36 50 69
31 34 37 38 41 45 45 45 55 76 82 87 95 95 93 93 97 98 98 98 97 94 95 97 97 98 91 87 87 93 92 94 89 68 61 55 53 49 45 53 44 41 52
34 39 39 39 46 49 45 45 69 84 88 95 98 97 97 97 97 98 98 98 97 96 95 94 94 96 98 94 96 97 96 91 92 85 63 52 51 50 52 51 56 55 44
39 40 39 45 54 48 49 49 71 88 87 96 98 98 98 98 98 97 97 95 95 96 98 98 97 95 96 98 98 97 96 96 92 93 88 82 62 54 53 52 51 52 45
41 39 41 52 53 53 47 53 82 91 94 97 98 98 98 98 98 96 96 98 98 96 97 98 98 98 98 98 97 98 98 98 98 98 94 92 91 74 61 55 52 51 62
42 41 44 50 55 53 43 62 92 95 97 98 98 98 98 98 97 96 97 98 97 96 95 94 93 92 95 97 98 98 98 98 98 98 96 94 93 94 83 82 81 66 87
45 44 50 54 57 48 45 61 95 96 98 99 98 98 98 98 97 97 97 98 98 98 98 98 97 97 97 93 89 94 98 98 98 98 97 98 95 96 97 98 95 93 98
49 53 56 64 58 41 46 59 90 97 97 99 98 98 98 98 98 98 98 97 98 98 98 98 98 98 95 95 98 96 89 84 89 95 96 88 86 90 97 97 97 98 98
48 57 66 70 60 39 44 59 82 98 98 98 98 98 98 98 98 98 98 98 98 97 97 97 98 98 98 98 98 96 94 94 94 92 89 86 85 90 90 88 87 86 84
53 65 72 75 64 42 43 57 74 96 98 98 98 98 98 98 98 98 98 98 98 98 98 98 98 97 98 98 98 98 98 98 98 98 97 96 95 93 93 93 92 92 91
64 74 75 78 66 51 45 59 69 84 99 99 99 98 98 98 98 98 98 98 98 98 98 98 98 98 98 97 98 98 98 98 98 98 98 98 98 98 98 98 98 98 97
79 82 80 76 69 61 50 61 68 76 86 98 98 98 98 98 98 98 98 98 98 98 98 98 98 97 97 96 96 96 97 97 97 97 97 97 97 97 97 96 95 94 89
89 86 83 75 70 66 59 65 67 68 73 82 98 98 98 98 98 98 98 98 97 97 97 95 93 91 88 85 83 81 79 77 75 73 71 71 70 70 70 68 68 68 66

GFSGL_prec_cthk_003.txt.gz
RH
73 76 79 81 83 86 86 86 85 87 83 80 75 69 61 53 48 46 43 42 42 40 38 37 33 34 36 44 52 59 71 70 55 34 37 34 38 40 36 36 67 87 83
75 76 77 80 83 88 90 90 89 87 81 77 72 66 58 53 48 44 40 37 37 36 34 34 35 37 37 34 41 57 65 75 74 55 42 39 45 46 42 40 36 50 75
74 76 78 82 89 93 92 91 86 81 80 75 67 58 50 44 39 37 37 36 37 36 37 41 42 45 46 46 49 55 62 69 64 63 47 41 43 48 51 48 43 32 48
77 81 84 90 93 92 91 86 85 85 78 68 55 45 38 35 34 34 34 35 39 42 46 48 47 50 52 56 59 56 59 68 69 66 55 48 44 41 47 49 48 41 29
82 88 94 93 92 93 90 88 86 83 71 56 38 31 32 33 32 34 37 39 42 45 50 56 61 67 72 73 74 72 68 64 67 69 64 60 61 57 56 51 61 52 31
93 96 94 93 93 91 90 88 86 72 54 31 30 31 32 34 35 38 40 46 56 63 68 74 81 85 85 87 87 86 84 82 76 78 77 70 62 55 67 62 69 62 43
95 94 93 92 90 89 90 85 68 47 31 29 30 34 36 39 42 44 54 67 77 82 83 86 87 90 90 89 92 91 90 91 91 89 82 73 73 62 61 69 70 71 53
96 93 91 90 89 87 75 51 33 30 27 30 36 40 42 45 47 61 76 81 83 84 85 86 86 89 93 96 97 95 93 91 90 93 90 87 77 63 74 80 81 84 74
90 90 90 87 81 65 37 29 28 26 30 36 40 44 46 53 68 78 83 85 85 86 88 93 96 96 97 98 97 95 95 94 96 95 93 89 89 82 62 66 66 82 81
90 87 82 77 64 35 29 27 26 32 37 38 40 49 62 72 77 85 89 89 90 93 96 96 96 97 97 98 97 97 97 97 97 97 95 87 86 85 80 66 71 76 74
81 77 73 58 33 29 27 28 32 37 37 41 49 65 78 79 83 90 94 96 97 96 97 98 98 97 96 97 97 97 97 96 97 99 95 89 78 77 81 68 59 76 67
76 68 49 32 30 29 30 33 37 40 44 50 64 79 83 85 90 95 98 98 98 97 97 97 98 98 98 97 97 96 96 97 98 98 98 90 72 76 75 66 56 65 60
61 47 32 31 31 32 34 37 42 44 49 61 80 84 86 92 95 98 98 98 98 98 98 98 98 98 98 97 97 98 98 98 98 98 98 87 76 77 80 76 63 55 49
47 34 32 32 32 35 38 45 46 49 58 75 86 89 93 93 96 97 98 98 98 96 96 98 98 98 98 96 89 85 90 91 96 98 97 93 84 76 71 74 59 51 52
36 33 33 34 36 36 43 50 51 56 69 83 92 94 93 94 97 97 97 97 98 96 98 98 98 98 98 93 93 92 85 81 82 96 98 94 85 77 72 68 63 56 55
33 35 36 35 36 39 47 54 54 59 77 90 96 96 97 97 97 97 98 97 98 98 98 98 97 93 94 95 93 93 85 84 83 96 96 82 77 80 74 66 63 55 51
31 33 35 38 39 42 52 57 44 65 86 93 97 98 97 97 98 98 98 98 98 98 98 98 96 94 94 93 94 93 90 91 94 96 85 68 65 73 71 71 65 56 56
33 36 39 40 43 48 54 53 49 79 91 94 98 97 97 98 98 98 98 98 96 96 96 94 94 94 91 89 88 93 97 98 98 98 96 79 67 60 59 61 60 62 62
38 43 41 41 48 54 62 49 52 87 96 98 98 98 98 98 98 98 98 97 96 95 96 96 96 95 93 94 91 91 96 98 98 98 98 96 85 66 59 62 63 65 65
48 46 46 51 53 65 62 46 54 87 97 98 98 98 98 98 98 97 98 97 98 97 97 97 97 96 96 93 92 92 95 97 97 98 98 96 95 96 77 65 66 70 66
56 56 54 57 61 69 63 44 54 85 98 98 98 98 98 98 98 98 98 98 97 97 98 98 98 98 97 97 98 97 97 98 98 98 92 94 97 98 95 89 77 66 71
67 62 62 64 69 73 61 46 54 80 99 98 99 98 98 98 98 98 98 98 98 97 97 97 98 98 98 98 98 97 97 98 98 96 98 97 97 98 98 98 98 91 90
74 70 72 74 76 73 67 50 58 77 99 99 99 98 98 98 98 98 98 98 98 98 98 98 98 98 98 98 98 98 98 98 97 97 97 97 96 95 96 97 98 98 97
81 79 83 84 81 73 65 54 61 77 92 99 99 99 98 98 98 98 98 98 98 98 98 98 98 98 98 98 98 98 98 98 98 98 98 98 98 98 98 98 97 97 98
85 88 90 88 82 71 67 59 70 72 82 95 99 99 98 98 98 98 98 98 98 98 98 97 97 96 95 95 96 97 98 98 98 98 98 98 98 98 98 97 97 97 97
88 94 96 89 80 70 66 64 76 73 76 77 92 99 99 98 98 98 98 98 97 94 90 86 83 80 76 72 71 69 65 61 59 60 61 62 64 65 67 69 71 72 73

GFSGL_prec_cthk_006.txt.gz
RH
67 70 70 70 75 79 84 87 95 96 96 97 94 84 82 80 74 67 59 54 48 41 38 36 34 32 31 30 29 30 36 40 47 35 39 40 41 37 29 33 39 41 32
68 67 65 70 76 79 81 91 94 96 96 91 86 86 82 76 67 58 49 44 41 38 35 32 30 29 30 30 29 26 28 30 41 36 40 44 48 47 37 30 34 40 42
68 66 66 72 76 79 86 90 96 95 91 88 88 85 77 65 53 42 39 34 31 31 31 32 32 32 32 31 30 32 35 38 42 47 38 45 47 52 49 36 32 39 42
68 69 67 71 78 88 92 94 95 92 90 89 88 77 62 46 34 30 32 35 36 37 37 37 37 38 41 44 45 42 43 43 44 51 48 46 52 49 51 43 36 33 35
72 71 77 82 87 95 96 94 92 91 91 85 67 50 32 29 29 35 39 37 36 37 38 40 44 53 61 64 65 60 62 60 58 56 54 50 54 54 49 42 45 41 38
73 81 89 92 93 95 95 92 91 88 72 51 33 29 27 29 35 37 40 41 44 45 50 61 71 79 82 84 84 82 80 77 75 77 70 62 63 71 67 61 57 50 51
86 92 96 97 96 94 92 92 85 67 41 29 27 27 31 35 38 41 47 50 55 66 74 81 85 88 90 89 89 90 89 86 86 89 82 77 73 71 80 88 78 68 64
94 97 97 95 93 92 87 82 61 37 29 26 28 35 36 36 41 48 57 70 77 81 84 86 87 87 89 90 89 86 85 88 88 89 88 87 82 84 85 92 95 83 68
94 92 91 91 85 82 74 48 32 29 27 31 36 37 37 45 54 71 79 81 85 88 89 91 94 93 94 96 96 94 94 93 96 93 91 91 90 90 91 94 90 96 77
91 88 85 81 78 62 43 31 28 29 33 35 37 41 50 58 75 81 84 86 88 90 91 92 95 96 97 98 96 94 90 92 96 95 94 94 95 95 96 96 95 91 91
86 85 81 72 56 40 32 30 31 33 35 39 44 48 60 78 83 90 93 95 96 92 93 95 97 98 98 98 98 96 93 95 96 96 94 94 96 96 95 93 94 91 91
87 82 67 52 41 32 31 31 32 35 39 44 45 54 79 85 93 97 98 98 97 96 97 98 97 98 98 97 95 92 95 96 96 97 97 96 95 97 94 93 95 92 85
76 62 50 40 33 32 34 33 35 39 44 46 54 74 87 94 98 98 97 98 98 98 98 96 98 98 96 96 95 95 98 98 96 94 95 96 95 95 98 98 95 86 86
58 49 41 34 33 34 34 36 38 43 47 52 68 91 94 98 97 97 96 98 98 98 95 97 98 98 97 96 97 97 92 87 91 82 82 92 96 98 98 97 83 84 91
48 44 36 34 35 34 36 39 44 48 51 56 89 95 97 96 97 97 95 96 96 97 97 97 98 98 96 95 97 95 91 81 78 75 80 91 97 98 98 98 90 90 92
44 35 34 35 37 38 39 40 47 49 46 71 94 98 98 98 97 98 97 98 98 98 97 96 95 95 97 95 94 94 86 74 74 81 84 98 99 99 93 88 87 90 91
34 34 37 41 42 42 43 44 47 47 47 85 97 98 98 98 97 98 98 98 98 97 97 95 93 92 89 95 93 88 87 89 93 91 80 90 94 89 88 86 82 84 87
35 38 44 47 43 46 48 54 60 49 52 92 98 98 98 98 98 98 98 98 97 96 96 96 92 91 90 89 89 87 93 96 96 98 98 76 73 75 82 85 83 80 78
43 46 52 53 50 51 58 61 62 44 59 96 97 97 98 98 98 98 98 98 98 97 96 94 95 90 88 87 88 88 94 95 94 96 98 97 74 65 63 67 74 78 78
53 57 64 63 58 59 63 65 63 45 64 98 98 98 98 98 98 98 98 98 98 98 96 96 95 93 90 89 90 88 90 90 91 93 97 98 98 88 65 63 68 68 71
54 65 74 70 67 68 72 67 63 47 68 98 98 98 98 98 98 98 98 98 98 98 97 96 96 96 93 91 91 92 90 89 90 94 97 98 98 98 97 83 68 71 70
62 74 82 77 78 77 78 75 64 51 73 99 98 98 98 98 98 98 98 98 98 98 97 97 97 97 95 93 94 94 95 95 95 96 97 98 98 98 98 98 85 78 75
72 87 89 84 84 85 81 74 67 55 79 98 99 98 98 98 98 98 98 98 98 98 98 98 97 98 98 97 96 94 94 95 95 96 96 96 97 98 98 97 98 98 93
85 91 88 90 88 86 78 71 69 66 83 90 98 98 98 98 98 98 98 98 98 98 98 98 98 98 98 98 98 98 98 98 97 96 96 95 96 96 96 97 98 98 98
89 90 88 95 90 85 76 73 71 80 85 79 93 98 98 98 98 98 98 98 98 98 95 92 89 85 82 84 88 88 91 94 95 96 97 97 98 98 98 98 98 98 97
90 87 94 95 91 86 77 74 75 84 83 76 77 94 99 99 98 98 98 98 94 89 84 78 73 68 62 60 59 57 53 49 46 44 40 38 39 42 48 55 64 75 83

GFSGL_prec_cthk_009.txt.gz
RH
62 61 62 63 66 70 75 77 83 93 97 95 97 95 93 91 90 86 80 72 65 56 50 46 43 42 42 41 43 42 42 43 44 42 42 45 47 50 51 51 50 43 38
61 60 61 63 63 66 74 82 86 91 90 94 94 93 91 90 88 81 72 61 50 44 40 37 32 28 26 25 26 27 29 32 35 35 40 39 41 43 44 44 48 51 46
64 62 60 57 65 71 73 77 83 87 91 90 88 88 87 81 70 58 46 39 34 29 28 29 29 30 29 27 27 28 29 29 28 28 32 34 36 36 35 34 39 47 45
69 61 57 64 71 72 75 81 85 90 87 86 85 79 65 54 43 35 30 30 31 33 34 37 38 38 38 37 36 34 35 38 39 36 31 31 34 34 40 39 38 42 41
66 66 68 72 73 76 79 85 89 88 89 87 77 62 45 32 28 30 35 36 37 36 35 37 39 41 43 48 53 52 57 56 55 50 38 39 36 36 39 46 48 47 47
74 76 77 82 86 88 93 93 95 92 88 75 54 33 28 29 33 36 38 37 38 41 42 46 53 61 66 71 75 77 79 77 71 64 52 50 47 44 45 47 53 57 49
80 85 89 92 97 96 95 93 89 81 62 40 29 27 29 33 37 39 39 43 47 56 66 70 74 77 80 81 82 82 82 86 87 86 72 67 66 63 60 50 48 59 52
80 86 89 93 93 91 89 83 70 51 37 29 27 30 34 38 39 41 49 57 70 76 79 81 82 83 84 86 87 86 85 85 84 81 75 75 76 80 78 73 64 57 60
77 84 86 88 87 85 77 60 47 37 29 29 31 35 37 37 44 51 63 77 80 82 84 87 87 88 86 88 88 87 85 86 90 88 84 79 83 83 87 88 81 74 60
83 89 90 88 86 73 55 46 37 32 32 32 33 36 43 45 51 63 82 88 88 88 89 90 91 91 92 95 96 95 91 91 91 90 88 88 91 93 92 89 92 84 78
91 92 92 87 66 52 46 39 33 32 32 32 36 42 45 52 62 85 93 94 93 90 90 92 96 97 94 90 95 96 95 96 94 95 93 90 89 90 93 94 94 93 86
91 88 75 60 50 47 40 35 33 32 31 34 37 42 48 66 88 91 95 95 95 95 95 95 97 97 94 94 96 94 92 91 89 91 94 96 97 97 96 94 94 92 90
84 66 56 50 47 40 36 34 33 33 35 39 41 43 64 89 92 94 95 96 98 98 98 98 98 98 97 97 96 94 96 98 97 95 94 91 91 95 97 97 95 95 96
63 56 53 49 42 37 36 37 37 39 42 42 45 53 88 94 93 94 96 96 98 98 98 98 96 96 96 97 96 97 98 98 98 96 90 80 84 84 84 94 98 98 99
59 55 49 43 39 38 39 40 42 45 46 46 49 77 95 94 95 98 97 98 97 97 96 93 91 90 91 98 99 96 96 93 77 75 76 81 84 89 90 93 98 99 98
54 49 44 41 41 43 42 42 46 51 51 48 54 90 97 98 98 98 98 98 97 97 96 93 88 88 88 92 98 98 93 85 80 81 76 77 85 97 98 97 98 99 98
49 45 43 45 49 50 49 49 48 53 52 49 61 96 98 98 98 98 98 97 96 97 96 95 87 85 87 87 88 90 88 84 84 84 81 77 92 97 98 97 98 98 97
43 44 42 50 59 62 60 58 59 57 55 47 74 98 98 98 98 98 98 97 97 97 97 95 91 88 83 83 81 79 81 83 85 90 92 71 77 84 88 90 91 87 82
45 43 46 55 64 72 68 68 65 64 58 50 89 98 98 98 98 98 98 98 98 98 97 96 94 91 88 82 81 79 80 84 91 95 97 97 74 64 71 77 77 75 73
44 51 59 65 78 79 76 74 72 69 58 55 96 98 98 98 98 98 98 98 98 98 98 98 95 93 91 89 84 84 84 88 95 96 96 96 97 88 63 58 61 68 75
52 64 69 81 88 83 81 80 78 72 57 63 98 98 98 98 98 98 98 98 98 98 98 97 98 96 94 91 91 92 91 90 91 93 96 98 97 96 95 73 68 67 70
64 68 81 88 87 86 84 84 76 69 57 79 99 98 98 98 98 98 98 98 98 98 98 97 97 97 96 94 92 91 91 92 92 93 94 94 94 94 94 93 82 74 72
68 76 88 87 89 90 88 80 74 71 63 87 97 99 98 98 98 98 98 98 98 98 97 96 97 97 97 96 96 96 94 94 95 96 95 95 96 95 96 97 96 92 85
73 85 87 89 94 92 87 78 76 75 79 82 85 98 98 99 98 98 98 98 98 98 96 93 90 89 92 94 93 94 95 96 97 97 97 97 98 98 98 97 97 98 98
83 85 85 94 96 94 89 79 78 85 86 80 77 93 99 99 99 98 99 99 96 91 86 83 78 74 70 67 65 64 62 60 59 62 66 75 87 94 97 98 98 98 98
81 82 86 95 97 95 89 81 82 88 87 83 74 80 97 99 99 99 98 92 87 80 73 69 64 60 56 52 51 50 46 43 38 35 29 25 24 26 30 34 42 58 77

GFSGL_prec_cthk_012.txt.gz
RH
59 59 58 59 58 57 58 62 67 72 76 86 92 93 92 89 89 88 87 85 81 75 69 63 55 49 48 46 44 43 42 43 42 44 45 48 52 57 57 56 57 52 51
56 55 54 54 56 59 64 68 73 77 84 86 87 88 83 80 81 78 74 69 61 54 47 42 39 37 36 33 32 31 31 30 32 35 37 38 41 49 56 60 56 57 50
56 55 53 56 58 61 65 71 76 78 81 87 87 83 79 78 75 66 56 47 41 37 31 27 26 28 28 30 32 33 32 31 30 33 34 36 35 36 42 49 55 56 55
58 57 58 57 62 66 70 74 78 83 87 90 85 80 78 69 56 45 38 31 26 27 29 32 34 35 35 36 37 37 37 35 31 32 31 34 37 36 36 37 40 45 49
58 60 64 66 72 75 79 82 85 92 92 86 82 73 61 53 41 31 28 29 30 31 31 31 32 35 38 40 42 39 42 40 36 35 33 37 36 39 40 37 35 35 38
60 67 71 81 82 86 89 93 94 90 86 81 71 59 45 34 28 29 32 34 34 33 32 37 44 53 60 63 64 65 65 63 61 61 58 56 52 52 50 48 43 40 36
63 70 77 84 86 88 89 89 89 85 76 62 49 41 30 28 29 31 34 34 34 38 47 61 68 73 75 76 76 75 76 75 76 77 76 76 73 69 65 58 55 49 39
64 69 76 78 83 86 86 86 78 65 52 45 38 30 28 28 30 33 35 37 42 54 70 76 79 80 82 84 83 82 81 77 79 79 78 81 85 88 84 76 68 61 52
70 76 80 87 90 87 87 73 58 49 43 36 30 28 27 28 32 37 42 46 58 76 84 87 87 87 88 91 87 83 83 82 85 84 84 86 88 86 85 84 78 75 64
76 85 92 93 92 82 67 56 50 44 37 32 29 29 30 30 36 43 53 72 82 85 87 88 91 92 93 97 99 97 92 91 93 92 91 88 91 95 93 84 82 80 80
86 94 92 86 75 62 56 51 45 40 33 31 29 31 32 36 43 55 78 88 88 88 89 89 93 95 96 97 97 93 91 95 95 96 96 95 94 95 96 95 91 84 84
91 89 81 67 58 56 52 47 42 37 35 33 34 32 34 42 54 77 92 92 93 92 92 95 94 94 95 97 98 98 96 96 97 97 96 95 93 93 92 94 92 92 92
89 78 66 59 57 53 48 43 40 39 38 36 35 35 37 49 72 92 96 95 96 96 96 95 92 90 90 92 96 96 95 96 98 98 97 96 94 93 95 96 95 93 90
79 68 59 56 52 48 45 42 45 44 41 40 38 40 45 65 90 97 97 97 97 96 94 94 89 87 88 90 96 97 97 98 98 98 97 96 92 89 88 87 87 88 86
68 58 52 50 50 46 46 49 53 52 50 46 43 47 52 82 96 99 98 98 97 96 94 93 86 83 82 85 91 97 98 96 88 87 88 87 84 83 82 83 84 85 85
57 50 46 45 47 47 49 56 63 63 58 51 52 52 62 97 99 98 98 98 98 96 95 93 88 83 78 80 82 85 82 79 77 75 71 66 63 70 76 84 90 93 93
45 41 46 46 48 55 58 65 68 68 65 55 54 57 80 99 98 98 98 98 97 97 97 95 90 83 80 80 79 81 82 82 84 82 80 64 74 91 92 97 98 98 98
41 43 42 50 60 64 72 79 76 68 63 63 57 62 96 98 98 98 98 98 98 97 97 97 94 88 81 81 82 80 83 88 89 88 89 85 65 74 90 94 97 97 98
38 41 52 62 68 80 84 82 80 75 71 66 60 78 98 98 98 98 98 98 98 98 98 98 97 94 89 84 81 80 82 85 89 92 94 93 85 63 70 78 82 85 90
43 54 61 67 80 83 84 82 82 79 76 66 63 96 98 98 98 98 98 98 98 98 98 98 98 97 94 93 89 86 84 84 85 89 91 92 91 85 66 62 62 71 77
55 64 67 77 83 82 84 87 84 78 73 65 80 98 98 98 98 98 98 98 98 98 98 98 98 97 96 94 92 89 88 87 86 86 87 88 88 89 84 71 68 66 70
61 66 74 81 82 87 90 88 81 78 72 75 84 98 98 99 98 98 98 98 98 98 98 98 98 98 97 95 94 94 92 90 89 89 88 87 86 85 86 82 71 68 66
66 74 79 79 84 90 91 87 83 80 83 82 83 93 98 99 99 99 98 98 98 98 98 96 92 91 92 90 88 89 91 92 93 91 90 90 89 88 89 87 82 78 74
69 74 77 79 86 91 93 87 83 84 89 86 80 87 99 99 99 99 99 98 98 94 89 85 80 76 72 68 67 64 60 59 60 66 80 90 92 92 91 91 92 94 92
65 71 78 85 89 93 94 87 83 88 88 86 79 82 98 99 99 99 99 97 89 81 76 70 67 62 61 59 57 56 56 51 45 38 34 28 28 36 64 89 95 96 96
66 74 83 88 92 95 95 89 84 90 89 84 79 80 87 98 99 98 94 88 81 76 70 68 64 63 58 53 50 47 45 41 35 35 31 26 26 30 32 34 34 36 43

GFSGL_prec_cthk_015.txt.gz
RH
62 58 56 47 44 42 45 49 55 59 65 69 73 79 83 81 82 85 84 81 77 76 74 71 66 63 59 56 53 51 49 49 48 45 46 44 44 45 46 44 46 46 58
59 57 55 51 43 42 44 50 58 65 73 81 79 74 77 79 83 81 77 76 71 64 57 51 47 43 40 38 37 38 38 37 39 38 39 41 38 38 40 44 46 49 54
58 54 50 46 47 48 50 54 63 74 82 82 82 81 86 88 85 79 75 68 56 48 44 38 33 31 29 27 28 30 31 31 33 35 36 38 38 33 31 32 38 41 44
54 55 56 61 64 65 71 72 69 82 88 90 93 94 91 87 80 70 57 47 40 35 30 26 27 28 28 29 29 28 29 30 30 33 31 34 35 35 32 28 27 31 36
55 59 64 69 75 75 80 84 82 88 93 91 86 82 77 68 58 52 47 40 34 29 26 26 27 28 30 35 39 39 43 45 46 46 44 41 40 40 39 36 32 27 28
53 58 69 74 77 85 89 87 91 94 93 89 82 76 68 56 50 43 37 29 26 24 24 27 30 36 41 48 56 63 68 70 69 68 63 57 53 52 50 49 45 41 34
58 60 65 68 74 83 84 94 93 92 89 81 67 57 50 44 38 31 26 25 25 27 32 36 41 51 64 69 72 74 75 77 80 81 80 79 76 76 71 63 62 56 47
71 82 84 78 84 88 94 93 87 79 67 58 53 49 43 35 29 25 24 24 28 35 42 56 70 76 80 81 82 82 82 84 87 86 85 85 81 80 80 79 73 67 59
79 86 88 82 91 94 90 82 71 62 57 54 49 42 36 29 26 25 27 30 37 48 72 82 84 85 88 91 92 91 90 91 96 90 86 84 84 86 84 82 81 81 72
79 83 84 90 90 85 75 67 60 58 54 49 42 37 32 29 29 30 33 40 54 77 86 87 90 91 93 96 97 95 93 94 98 98 97 95 91 89 91 90 89 83 78
85 88 90 88 79 69 63 60 58 53 47 41 38 34 33 33 32 34 41 58 83 90 89 91 93 94 95 95 96 96 97 98 98 98 96 94 93 97 97 96 95 91 87
91 91 88 80 70 64 59 55 50 45 40 40 39 35 35 35 37 39 55 84 96 94 93 93 93 91 90 90 90 94 97 97 98 98 99 98 97 97 97 96 96 95 94
93 91 86 73 63 56 49 44 41 40 43 44 45 40 37 36 39 51 74 97 98 97 96 96 94 92 86 85 91 97 98 98 97 98 98 99 98 98 98 97 96 97 96
92 84 67 55 46 41 42 42 41 45 49 53 52 47 44 43 46 69 95 97 98 97 98 97 95 88 82 81 84 89 94 96 94 90 91 91 93 94 96 97 98 98 98
71 57 46 41 41 43 41 47 53 59 63 63 59 57 52 49 61 90 98 98 98 98 98 98 93 85 79 79 81 82 81 76 73 72 72 73 73 75 80 91 92 93 94
47 42 40 41 40 42 51 57 70 76 77 71 66 62 59 60 85 98 98 98 98 98 98 98 93 86 81 76 77 80 80 82 85 82 77 76 68 63 68 71 77 91 94
41 37 36 38 47 56 61 73 76 79 78 73 67 65 64 73 98 98 98 98 98 98 98 98 97 89 84 81 77 79 81 84 86 86 87 86 76 69 80 86 89 94 94
40 37 38 49 57 62 73 77 76 76 74 74 69 65 72 96 98 98 98 98 98 98 98 98 99 97 89 83 80 79 80 81 84 87 89 88 87 66 73 87 96 97 96
41 40 50 56 60 72 76 79 81 81 81 76 65 73 89 98 98 98 98 98 98 98 98 98 99 99 97 91 87 85 83 83 84 85 85 86 86 76 65 69 78 83 91
42 51 56 60 70 74 79 86 86 83 80 74 72 80 97 98 98 98 98 98 98 98 98 98 98 99 99 95 91 88 85 84 83 83 84 82 82 81 69 60 59 64 76
51 55 61 70 72 74 80 87 85 83 81 81 81 81 98 98 98 98 98 98 98 98 98 98 98 98 99 98 96 93 90 88 87 86 83 82 80 80 80 74 63 63 66
54 59 64 70 74 79 85 90 85 83 85 91 81 83 97 98 98 98 98 98 98 98 98 98 98 97 92 90 88 89 91 92 91 90 88 85 83 83 81 76 74 70 64
53 59 64 71 77 83 89 91 84 83 86 89 80 83 97 99 99 98 98 98 98 98 97 91 86 81 74 70 67 63 59 58 61 70 83 89 88 86 87 88 84 77 74
54 60 65 73 79 86 90 91 84 84 87 86 80 81 96 99 99 99 98 98 94 89 82 75 69 64 63 61 58 57 57 55 49 45 40 37 45 71 84 88 91 93 94
59 62 66 72 79 86 91 91 85 82 87 87 81 81 86 98 99 99 98 93 86 79 76 70 67 64 61 56 54 52 50 47 45 40 33 31 29 32 35 41 55 73 85
62 64 69 71 76 84 89 91 88 83 85 92 86 83 78 83 93 97 94 89 82 79 75 71 68 64 60 55 53 48 43 41 39 34 33 31 27 29 33 35 37 39 40

GFSGL_prec_cthk_018.txt.gz
RH
56 50 51 52 51 50 47 45 47 51 55 62 72 72 74 80 72 72 77 80 81 86 84 79 73 69 62 58 56 53 51 52 51 44 44 43 42 44 45 45 45 43 41
53 58 62 62 54 47 43 46 50 51 55 65 74 81 84 83 83 86 87 89 86 81 76 70 61 54 48 47 45 44 43 42 42 39 36 36 33 33 37 39 39 43 41
63 56 51 48 48 52 52 56 57 64 70 77 86 88 94 97 95 92 88 83 77 69 61 54 50 46 42 39 36 34 33 31 31 32 28 28 29 25 25 26 26 30 35
63 61 56 52 49 53 55 61 69 78 83 87 91 92 93 92 87 79 74 65 57 50 46 42 38 34 31 28 25 23 24 27 30 35 34 32 34 32 31 29 25 23 23
59 64 64 54 52 56 63 69 78 86 88 91 91 90 86 81 76 69 60 54 50 42 35 30 25 23 24 26 31 34 39 41 44 47 46 42 43 46 43 40 36 31 27
51 48 53 59 63 65 73 81 86 95 98 96 93 84 79 68 60 58 55 47 39 32 26 23 23 27 32 38 42 48 51 58 64 70 70 69 68 67 64 58 52 47 36
52 59 71 71 75 81 86 89 92 92 88 80 74 67 61 58 57 52 46 38 31 26 25 27 32 40 48 57 64 72 77 80 79 78 75 76 76 80 79 74 67 62 53
49 62 70 74 81 84 90 92 88 81 74 68 63 60 58 54 52 44 37 31 28 28 31 39 49 60 73 79 82 82 83 86 91 91 87 82 79 82 84 82 79 76 69
55 60 68 78 86 89 85 78 72 67 63 62 60 57 54 48 42 36 33 29 29 32 42 59 72 81 85 88 89 89 90 92 95 96 94 92 91 87 87 86 83 81 77
64 72 79 84 86 82 75 69 66 62 60 56 50 44 41 41 39 36 35 33 35 43 64 82 88 90 91 93 92 94 93 95 98 97 96 97 95 93 94 88 87 86 86
78 84 87 88 86 81 70 63 54 45 40 42 40 40 45 46 43 40 38 39 45 62 86 93 95 95 94 92 92 92 92 95 96 97 97 97 96 91 88 86 90 93 89
85 88 89 89 78 60 46 39 39 41 40 39 42 43 48 52 50 44 43 47 61 87 96 97 97 97 93 85 86 88 94 96 97 98 97 96 95 93 92 95 98 97 97
87 89 82 57 40 37 37 38 38 39 45 48 52 55 57 57 52 50 49 58 87 98 99 98 97 96 88 84 84 85 87 93 96 97 95 92 95 97 98 99 99 98 99
79 59 42 37 36 36 37 40 47 54 57 66 68 64 60 60 57 52 59 82 98 98 98 98 97 96 87 81 81 81 82 85 83 79 78 78 77 80 84 91 97 98 98
50 41 37 35 34 35 43 55 58 69 73 69 69 66 64 63 63 64 84 98 98 98 98 98 98 93 82 79 80 81 83 85 86 86 86 81 78 71 66 64 73 84 97
39 38 37 35 35 45 51 56 76 78 77 78 75 70 70 66 72 88 98 98 98 98 98 98 98 95 87 84 82 81 84 84 85 84 83 81 80 71 58 64 75 75 79
38 40 39 37 45 51 56 64 64 79 86 80 76 74 70 81 91 98 98 98 98 98 98 98 98 98 93 87 84 82 82 83 83 85 83 81 81 75 66 73 81 82 85
41 41 40 45 51 58 65 66 71 78 78 79 76 70 78 89 98 98 98 98 98 98 98 98 98 98 98 94 89 87 85 83 83 83 81 82 81 76 65 70 77 86 92
41 42 45 51 56 63 67 71 77 83 81 80 79 81 78 97 99 99 98 98 98 98 98 98 98 98 98 98 96 93 89 85 84 82 81 80 81 78 69 60 61 70 79
40 46 50 54 58 63 70 77 85 84 82 84 88 81 79 97 98 98 98 98 98 98 98 98 98 98 98 98 99 97 94 90 88 84 80 79 80 80 77 69 61 58 63
46 50 52 54 59 68 74 82 88 85 83 86 88 79 84 98 98 98 98 98 98 98 98 98 98 98 95 91 86 87 91 93 91 89 85 82 80 81 77 75 72 69 64
46 49 54 57 63 70 77 84 87 83 83 86 85 78 87 98 98 99 98 98 98 99 98 96 91 83 76 69 67 62 58 58 61 67 79 82 78 80 82 82 77 74 73
46 49 56 61 65 70 76 84 86 83 82 86 83 80 86 98 98 99 99 99 97 93 88 80 74 68 64 61 60 58 56 52 47 47 50 51 64 69 74 78 81 85 85
49 50 57 64 67 70 75 82 85 82 81 85 84 84 83 95 98 99 98 92 89 85 80 75 70 65 63 59 57 55 52 48 43 42 42 39 41 38 43 55 67 73 79
51 50 56 65 70 72 73 79 86 84 82 83 89 82 81 82 97 99 98 91 86 81 78 74 70 67 64 59 56 53 48 43 40 40 36 34 37 36 35 37 40 43 50
52 50 57 65 73 76 77 77 82 86 82 82 88 83 78 77 78 90 97 98 91 84 79 74 71 67 65 61 57 54 48 44 41 38 35 34 34 32 29 30 31 33 36

GFSGL_prec_cthk_021.txt.gz
RH
62 63 64 63 57 45 35 34 33 39 45 50 59 65 70 78 85 88 85 89 91 94 94 90 85 80 74 71 68 64 62 61 60 54 53 51 44 41 40 40 42 43 43
61 59 57 51 46 37 39 36 43 53 56 63 71 81 86 91 95 97 96 95 94 91 86 79 73 67 64 64 61 58 55 54 56 53 48 47 46 38 37 36 35 35 38
53 52 48 45 44 47 49 45 48 60 69 76 81 86 88 91 91 90 88 85 83 76 67 63 60 58 56 55 53 50 48 46 47 47 41 38 36 32 30 31 32 31 29
50 50 49 51 53 56 56 52 57 67 76 81 85 89 92 92 88 83 77 70 62 59 55 54 52 48 47 43 39 37 35 34 36 39 38 34 36 36 37 34 32 35 31
46 43 43 46 49 53 57 65 72 77 80 85 89 89 86 79 76 72 66 63 60 57 54 49 45 41 35 33 35 34 37 38 40 43 44 43 44 46 46 47 45 44 40
45 50 54 55 64 69 74 72 80 84 85 81 80 76 72 69 64 61 60 58 56 51 50 46 38 33 33 33 36 41 46 51 55 60 61 61 63 66 67 65 63 60 54
49 50 54 56 65 69 77 81 85 80 74 71 69 65 61 60 58 57 55 53 50 47 41 38 37 36 40 46 51 58 66 70 73 76 75 74 74 77 75 73 73 71 70
49 50 56 63 70 75 81 81 77 73 68 66 63 60 56 52 51 49 45 43 44 40 37 37 39 44 54 63 71 75 79 82 87 89 88 87 88 89 88 86 82 77 78
57 58 64 71 79 83 85 82 69 59 48 41 38 38 39 39 39 39 40 43 41 37 37 40 49 60 73 83 83 84 86 89 93 93 92 93 92 93 93 93 91 86 82
63 69 71 78 84 84 72 47 36 35 36 37 37 38 40 43 45 44 44 45 42 41 41 49 66 78 86 88 89 90 90 91 92 94 95 94 94 96 97 96 95 94 91
63 72 74 79 73 46 37 34 33 34 35 36 41 48 52 56 58 55 52 51 48 47 49 67 84 88 93 93 93 88 84 85 91 94 98 98 97 95 95 96 94 90 89
61 70 74 59 41 36 33 32 34 36 42 48 51 61 67 67 64 57 56 57 56 55 68 88 94 97 95 94 89 83 83 84 86 90 95 97 97 97 97 97 96 96 94
68 72 54 41 38 35 33 34 41 47 52 61 64 65 66 69 67 65 62 63 62 72 98 98 98 98 97 91 84 84 83 83 85 86 85 82 81 81 83 86 95 97 98
72 58 40 41 39 35 35 44 48 56 62 63 70 73 72 73 69 67 69 70 81 99 98 98 98 98 96 85 81 83 83 82 81 81 81 82 78 77 78 77 76 81 93
66 43 41 43 40 37 44 51 58 64 65 68 76 77 76 72 74 81 82 92 98 98 98 98 98 98 94 84 82 84 84 82 81 78 76 72 70 68 55 55 63 68 73
46 41 42 44 41 44 48 56 65 68 73 79 78 78 77 79 86 92 98 98 98 98 98 98 98 98 94 88 85 82 82 80 79 77 76 74 71 69 57 61 72 75 77
41 42 45 46 45 50 54 56 59 73 85 77 78 79 83 82 91 99 99 98 98 98 98 98 98 98 98 95 90 87 84 82 80 77 76 76 76 72 64 65 70 80 84
43 40 42 48 52 53 56 61 68 75 78 77 81 84 80 80 96 98 98 99 99 98 98 98 98 98 98 98 97 93 90 85 81 79 77 76 75 74 69 63 63 69 76
40 39 45 52 54 56 61 65 72 79 78 75 82 83 75 86 97 98 98 98 98 98 98 98 98 98 98 98 98 98 95 91 87 81 77 76 77 75 74 69 62 60 65
40 43 49 53 56 61 64 66 72 79 75 75 82 82 76 92 97 97 98 98 99 98 98 98 98 98 94 88 81 81 88 90 89 86 81 77 76 77 75 74 70 64 64
44 44 51 53 58 64 65 68 71 76 75 76 81 80 80 94 98 98 98 98 99 99 98 96 93 87 81 74 69 63 58 59 63 72 80 80 76 75 73 73 72 73 71
43 46 52 54 58 65 68 69 71 75 73 75 81 79 81 93 98 98 99 98 97 92 87 82 78 73 69 67 63 60 56 51 49 49 52 64 75 76 73 75 77 76 73
44 49 54 54 58 67 71 71 72 74 74 74 79 79 80 88 97 98 98 93 90 88 81 76 71 70 67 66 61 58 53 47 44 44 44 42 42 49 60 65 68 71 76
47 52 55 53 58 68 73 76 76 75 76 73 77 81 78 80 94 98 98 93 90 86 80 76 72 70 67 65 60 57 53 48 43 40 37 35 37 40 42 43 45 50 56
50 53 52 53 59 69 75 79 80 80 79 74 75 81 77 76 77 92 98 99 97 88 81 77 73 71 68 65 61 57 54 48 44 41 38 34 31 34 36 35 34 35 38
52 50 49 52 60 71 76 78 82 83 83 79 75 77 77 76 78 80 84 90 91 89 83 79 76 73 70 67 64 61 59 55 50 48 43 39 37 38 38 38 37 36 35

GFSGL_prec_cthk_024.txt.gz
RH
65 60 52 47 45 44 41 38 40 43 45 50 56 61 67 73 78 84 88 90 96 97 96 97 94 93 90 88 86 87 83 79 76 73 73 72 69 66 62 60 57 57 53
49 49 41 45 44 42 42 47 49 50 52 55 64 71 78 83 87 91 94 93 92 91 89 85 81 77 76 75 78 77 74 71 70 66 64 62 59 57 58 57 54 51 49
45 45 50 52 55 52 51 48 49 53 58 66 75 83 87 90 91 92 91 88 85 78 73 69 66 67 67 66 64 62 61 61 61 59 54 54 52 48 44 43 42 41 40
53 55 52 53 47 49 53 53 60 69 73 80 85 84 85 84 83 80 77 75 71 70 69 67 65 64 66 65 63 60 55 52 54 54 50 47 47 47 47 47 47 48 47
56 54 54 53 51 54 61 70 77 85 88 88 80 76 72 70 69 64 62 64 62 62 63 63 62 59 55 49 49 47 48 44 48 49 47 42 45 46 46 46 46 46 43
53 53 51 46 53 56 62 68 74 77 80 78 77 71 67 68 60 57 56 58 58 57 57 58 57 53 53 49 41 42 43 46 50 53 53 53 56 61 62 62 60 58 54
57 54 54 56 61 61 66 74 80 79 70 55 44 41 42 43 38 36 35 35 39 42 48 50 49 47 46 46 48 51 53 56 62 69 71 73 73 77 79 77 77 75 71
53 56 61 66 67 67 70 77 72 49 40 39 39 38 39 41 36 35 36 38 43 46 47 47 47 43 45 51 55 59 65 73 80 83 82 83 85 87 89 90 88 84 80
55 56 67 67 68 69 69 51 39 37 34 35 34 37 40 43 47 45 45 50 52 49 45 46 49 49 51 58 65 71 80 86 89 89 90 89 89 92 95 97 94 95 89
50 55 58 61 67 62 47 39 37 36 36 38 41 47 51 56 60 58 56 54 51 53 52 53 53 54 60 71 78 84 90 94 94 89 90 93 95 96 96 95 96 97 98
57 59 63 66 62 49 41 38 36 38 42 43 46 53 55 61 64 63 60 61 61 61 61 59 61 67 77 84 89 95 96 88 85 87 87 88 92 96 98 98 98 98 98
60 62 65 63 52 44 43 42 41 45 47 51 54 56 64 70 75 76 67 68 70 68 65 67 77 87 90 96 98 97 89 86 88 88 89 91 90 89 89 90 93 97 99
60 62 67 57 48 49 46 44 47 51 55 55 58 67 75 83 81 77 76 79 78 75 79 91 98 98 98 98 99 90 85 86 87 87 84 82 80 78 78 79 80 79 85
66 67 65 53 48 48 45 50 54 56 57 62 72 78 81 85 84 84 86 87 85 94 98 98 98 98 98 98 91 88 87 87 86 83 79 76 71 69 65 61 60 64 73
70 70 60 48 48 46 49 54 56 59 62 68 75 75 82 87 88 84 93 98 99 99 98 99 99 98 98 94 92 90 87 85 82 78 77 74 70 66 55 56 61 69 73
73 70 56 48 46 49 56 56 58 61 66 71 71 74 82 84 79 90 98 98 98 98 99 98 98 98 99 96 92 89 87 84 80 77 76 75 71 68 61 61 64 71 76
73 69 49 45 48 53 55 60 62 67 69 74 74 76 79 79 84 96 97 98 98 98 98 98 98 98 98 99 97 96 91 86 82 79 76 74 73 70 67 64 63 67 72
80 55 44 49 50 53 56 62 65 67 70 79 78 80 77 79 93 96 95 98 99 98 98 98 98 98 98 99 99 99 95 91 85 79 75 74 72 71 70 67 63 63 66
66 46 49 48 49 54 57 64 67 69 71 75 80 83 79 86 94 97 95 96 99 99 98 98 98 98 98 90 85 87 91 92 90 85 79 75 73 71 70 68 65 64 64
50 48 49 46 52 56 58 66 70 71 72 72 78 78 80 85 93 96 94 95 98 99 99 99 98 94 87 82 75 72 66 66 68 80 83 78 74 74 72 70 67 67 69
46 48 46 47 56 56 58 66 72 73 73 69 72 76 74 83 92 96 95 94 94 93 91 91 87 82 78 75 72 69 64 61 56 53 63 81 78 77 75 73 70 67 68
45 45 46 52 57 55 58 67 74 76 75 72 67 74 74 79 89 94 96 93 89 86 81 80 75 72 71 69 67 61 59 53 47 46 46 44 54 71 74 75 75 74 73
45 46 50 55 54 54 58 69 76 78 78 76 70 71 75 77 85 92 96 93 90 85 79 76 72 71 69 66 65 60 56 51 45 41 39 42 41 42 45 50 57 61 66
46 48 52 53 52 55 63 73 77 77 79 79 74 72 74 75 80 88 94 96 95 88 82 77 73 72 70 67 64 60 56 53 48 43 40 37 37 37 40 42 43 42 46
46 50 52 50 52 59 66 71 74 75 77 80 78 75 74 74 76 78 82 93 95 91 86 80 76 73 70 68 66 64 61 58 54 49 46 43 39 35 35 42 41 43 41
54 53 50 51 56 59 65 70 70 71 73 77 81 78 77 73 72 75 80 83 86 87 87 84 80 78 75 72 71 69 67 64 61 55 51 49 45 42 41 42 42 48 47

GFSGL_prec_cthk_027.txt.gz
RH
59 56 53 53 55 58 55 58 55 52 46 46 43 45 51 56 64 70 78 83 86 92 95 97 97 96 95 92 92 91 90 92 90 85 87 86 86 86 86 83 80 76 74
53 51 52 53 57 59 53 48 50 50 50 49 53 60 67 73 78 83 85 87 87 89 92 92 89 84 78 78 78 80 82 87 85 78 81 78 74 72 71 75 75 73 69
57 56 55 58 59 54 51 50 53 55 58 68 74 77 80 85 84 81 79 83 80 76 77 76 76 76 76 76 76 75 75 78 76 70 65 63 61 61 59 59 60 62 61
58 58 57 58 55 54 49 51 62 65 72 81 85 88 86 80 74 69 69 59 58 61 65 67 68 69 71 76 75 71 70 69 67 64 60 59 62 61 61 60 59 57 54
60 56 60 52 53 52 53 57 60 67 71 76 82 79 64 52 51 42 38 37 36 38 43 47 57 66 63 62 63 62 63 60 63 62 58 56 58 53 50 53 56 56 53
62 65 62 50 54 52 53 59 61 67 74 75 54 48 51 50 47 39 36 34 34 35 39 41 47 48 50 52 53 51 52 54 53 50 48 48 51 55 57 60 61 61 59
64 59 54 55 53 56 59 62 67 71 56 49 48 51 50 47 45 38 37 39 42 44 49 53 53 51 50 54 53 49 49 49 54 57 58 60 64 67 69 69 68 66 64
56 58 53 53 56 57 62 66 68 52 49 48 47 46 46 50 50 45 49 53 56 60 61 62 63 58 54 49 49 49 51 57 63 70 72 72 78 82 83 81 80 77 74
55 57 52 56 58 58 63 62 54 50 48 48 48 49 48 51 55 52 52 55 61 64 65 64 62 59 57 57 55 55 59 67 77 79 83 85 88 89 90 91 89 92 86
56 55 58 61 62 65 65 55 52 50 52 51 48 50 50 50 56 60 64 68 69 70 69 68 67 66 61 60 61 66 73 82 87 89 95 91 93 91 92 94 94 93 95
65 62 62 63 65 67 59 51 53 57 54 52 51 50 54 66 70 73 77 75 74 75 75 74 72 71 68 71 76 84 88 91 96 93 91 89 88 88 90 92 95 96 96
66 64 66 67 71 69 61 55 60 56 57 53 54 56 66 73 75 79 83 82 84 83 82 81 80 80 84 88 91 96 98 97 91 92 89 88 87 86 85 85 85 86 88
79 65 71 76 75 73 58 56 56 57 55 56 58 63 69 75 79 86 88 83 92 93 91 92 97 98 98 98 98 98 96 91 91 89 88 85 82 77 73 68 66 67 69
82 72 85 86 81 68 53 55 57 56 56 59 63 66 70 77 83 85 80 92 97 99 98 98 99 99 98 98 98 96 94 91 90 85 82 81 76 72 66 59 56 58 62
72 86 91 87 85 57 51 55 55 58 58 61 65 63 66 75 81 77 88 96 98 99 98 99 98 99 99 99 97 97 95 91 84 81 80 80 76 74 65 60 59 60 64
85 89 92 89 69 50 54 54 57 57 61 62 63 61 69 73 77 87 94 96 98 98 98 98 98 99 99 98 99 99 95 89 82 81 80 79 76 73 68 64 62 64 66
91 92 90 75 51 52 51 55 55 62 62 62 63 63 69 71 82 90 95 95 98 98 99 99 99 99 99 99 98 98 97 93 87 82 79 77 74 72 69 65 62 61 64
91 91 77 53 52 50 52 57 56 61 64 69 65 64 69 71 79 89 93 94 98 99 99 99 99 99 99 97 93 96 98 98 92 87 81 77 74 71 69 67 63 60 59
92 76 53 51 51 48 54 57 57 62 67 70 71 68 68 69 78 88 93 92 96 99 99 99 99 99 96 88 84 79 78 78 82 90 87 80 75 73 70 68 65 61 61
73 54 49 50 47 50 56 55 56 63 70 72 72 71 65 65 77 86 92 92 93 97 99 99 99 95 88 82 77 74 73 68 67 65 80 83 80 77 73 70 68 67 67
55 48 47 48 50 54 56 55 59 67 71 73 73 69 67 61 70 83 89 93 93 93 93 91 90 88 85 82 78 72 67 64 62 56 53 57 78 79 77 75 74 72 68
51 46 47 49 52 56 54 56 64 69 71 72 75 74 69 68 66 78 87 92 95 88 80 82 84 80 77 77 74 72 69 61 55 52 50 45 43 44 57 67 69 71 72
47 45 47 49 54 52 54 59 64 68 71 71 73 73 72 74 68 71 83 90 94 92 81 78 76 73 72 70 67 64 61 56 53 48 46 48 45 42 41 42 45 48 51
47 47 48 53 51 53 58 60 64 66 67 69 70 72 73 73 72 71 76 87 93 95 87 82 79 76 73 71 68 66 64 61 57 54 51 53 51 46 46 43 42 45 43
51 53 55 53 51 58 60 60 64 66 68 69 70 72 74 75 75 74 75 82 89 90 89 88 84 80 77 74 72 71 70 66 62 59 56 54 48 47 47 49 42 48 47
55 54 52 54 58 60 60 60 64 67 68 70 71 72 74 77 79 79 79 83 87 85 83 84 85 84 82 81 78 77 74 72 67 64 61 56 52 50 48 49 45 53 54

GFSGL_prec_cthk_030.txt.gz
RH
58 57 51 52 54 55 56 57 52 49 44 48 51 48 51 58 63 67 68 72 79 80 80 82 85 86 88 89 90 88 90 92 88 83 80 85 90 90 93 94 93 92 87
58 54 58 58 59 60 59 54 49 48 49 51 54 58 66 70 71 74 76 77 69 68 69 67 63 69 73 73 74 78 82 81 79 73 73 76 78 84 87 90 91 90 89
62 62 59 63 63 58 49 48 45 45 47 53 60 64 74 79 82 78 62 56 49 47 42 34 41 46 50 58 70 75 77 76 76 72 68 68 64 63 64 64 67 69 69
68 68 71 65 55 52 47 45 45 44 49 57 60 66 71 67 53 47 49 45 43 41 35 32 34 39 43 49 53 61 71 74 72 70 63 61 62 61 61 63 65 65 62
64 64 62 57 54 51 48 48 49 50 53 57 60 58 51 48 50 55 48 43 41 35 30 30 34 39 46 50 53 49 46 50 57 57 60 60 60 63 68 66 62 61 58
57 57 60 62 57 56 53 53 54 57 60 60 52 49 50 55 52 45 41 42 42 42 43 44 50 53 57 63 62 54 48 45 48 52 50 53 52 53 56 61 61 59 56
57 58 67 70 67 56 50 58 59 61 62 53 48 49 52 50 47 44 45 48 49 50 52 56 59 63 64 68 66 65 59 53 48 44 51 51 57 58 61 61 63 64 64
58 58 57 55 53 51 58 63 64 66 57 51 48 50 48 48 51 48 50 56 59 61 66 69 70 69 68 65 60 55 53 53 51 53 57 59 68 70 76 76 74 73 71
62 70 69 82 68 63 62 67 71 66 60 49 51 51 50 49 50 57 63 65 66 67 68 74 76 73 70 69 68 63 58 54 58 61 65 70 76 79 81 83 84 84 79
63 84 71 86 92 84 71 75 77 75 59 51 52 54 53 52 59 62 67 70 74 81 82 82 85 84 80 75 71 67 63 64 68 72 75 80 85 92 93 92 91 92 92
54 91 80 70 93 89 72 82 80 78 56 53 53 53 54 59 62 65 74 79 83 83 84 90 87 85 83 79 75 74 77 82 85 87 88 95 93 93 91 90 90 91 93
57 58 90 88 95 83 81 84 89 63 55 52 53 53 56 62 64 72 81 84 85 85 97 97 96 94 95 95 95 93 91 91 91 97 95 93 92 89 88 84 80 76 74
54 68 84 84 80 86 91 89 73 53 52 53 55 57 59 58 61 75 81 84 87 97 98 99 99 99 99 99 99 99 99 99 98 94 94 91 88 83 76 71 65 58 54
65 79 85 83 86 88 86 78 51 51 53 55 60 61 59 55 63 69 77 91 95 97 98 99 99 99 99 99 99 99 99 97 95 94 88 83 81 78 73 69 60 58 56
69 75 75 84 87 89 81 50 49 52 56 58 62 64 61 57 63 73 83 92 95 98 98 99 99 98 98 98 98 98 99 98 93 85 83 82 79 77 73 64 62 62 62
73 72 76 81 88 79 49 50 48 54 54 59 63 65 65 61 63 74 86 94 96 98 98 99 99 98 98 98 99 98 99 95 87 84 82 80 78 75 71 67 62 61 62
84 83 86 85 68 47 47 46 49 53 52 57 63 65 65 61 61 72 84 92 96 98 99 99 99 98 98 99 99 99 99 97 89 85 83 81 78 75 72 68 64 61 59
83 84 80 62 48 48 46 48 54 51 53 61 66 67 66 64 60 68 81 90 94 97 99 99 99 99 99 97 94 88 90 92 95 93 89 83 79 75 71 69 67 64 61
84 74 59 47 46 47 48 51 54 53 58 63 68 69 69 68 61 63 77 85 92 95 98 99 99 99 98 89 84 80 78 77 75 78 89 87 82 78 74 71 70 67 64
72 61 51 47 46 47 49 56 53 57 61 65 68 71 72 67 65 61 71 81 90 92 89 93 97 96 92 88 81 76 74 73 67 66 68 83 86 83 80 76 73 71 68
64 56 50 46 46 48 54 53 57 60 62 64 67 68 69 67 67 64 64 77 86 91 82 80 86 85 84 83 80 77 69 61 58 55 54 55 54 70 80 78 76 75 75
57 53 48 45 47 50 54 55 59 61 62 63 65 67 67 67 69 68 65 71 83 89 85 78 78 76 76 76 75 72 68 63 57 52 48 49 49 44 44 47 48 53 59
58 53 50 50 51 55 50 59 60 60 62 63 65 67 68 70 70 69 69 69 79 88 87 84 81 79 76 74 73 71 68 66 63 59 57 55 52 48 48 46 45 43 43
58 56 53 53 54 52 57 60 60 60 62 62 63 67 69 69 71 72 73 73 75 81 87 87 87 84 80 77 75 74 72 70 67 63 61 60 58 51 51 49 51 50 45
59 59 56 51 51 54 58 60 60 60 63 65 65 66 70 70 71 73 76 77 78 79 81 82 85 88 88 86 82 80 78 75 72 68 64 61 59 55 52 51 50 52 48
58 55 56 54 57 62 63 62 61 61 64 67 67 67 69 70 71 73 77 79 80 81 85 87 87 86 86 85 84 83 81 78 75 71 68 64 61 57 54 52 51 50 49

GFSGL_prec_cthk_033.txt.gz
RH
64 62 62 55 55 60 57 54 54 51 47 47 50 51 50 54 56 61 67 68 70 74 72 60 57 59 58 60 56 65 65 77 78 70 71 74 77 79 90 96 94 95 97
66 67 61 56 53 51 51 52 52 46 48 51 54 55 58 60 64 67 72 75 69 53 52 56 55 56 41 33 40 47 53 55 58 64 69 72 72 73 72 76 87 87 92
66 61 54 47 46 45 45 50 48 46 49 48 56 60 61 62 62 61 55 49 48 52 54 54 51 45 35 30 35 38 40 44 50 56 66 70 68 66 64 64 67 73 80
54 47 44 41 43 41 42 44 46 37 44 50 58 66 61 52 49 44 48 49 50 48 46 44 40 36 34 36 41 43 44 43 42 41 44 61 66 65 63 62 58 62 64
46 46 47 43 38 39 46 51 47 40 44 54 63 65 62 50 46 50 52 50 45 43 42 43 43 44 49 58 62 56 55 54 49 45 42 45 59 59 57 60 61 61 61
54 61 58 55 65 69 67 68 66 60 67 60 63 70 54 46 50 53 52 45 45 47 48 49 51 56 61 66 69 70 71 66 61 58 54 49 45 50 56 58 56 56 54
54 59 65 66 66 66 86 95 92 87 80 70 67 74 51 53 57 55 48 46 50 53 55 55 55 60 63 66 72 72 72 71 66 61 58 49 47 52 59 61 64 64 63
54 52 56 58 65 75 98 95 91 83 84 82 77 62 54 60 57 53 52 53 55 60 66 69 69 72 78 73 70 71 70 67 66 63 59 51 55 54 63 66 69 71 70
31 35 41 49 62 88 98 97 96 93 85 76 81 54 57 56 53 53 52 54 61 70 78 81 83 83 88 88 82 80 74 69 69 67 63 59 58 61 70 73 75 76 71
37 45 48 47 56 92 97 93 87 80 75 87 53 56 56 54 55 56 55 60 70 77 84 86 91 96 95 90 84 81 72 68 65 63 60 60 68 73 75 77 81 85 88
45 51 51 57 67 90 97 91 88 78 82 67 49 53 53 56 58 57 56 66 78 82 86 91 96 97 98 97 93 90 85 80 77 77 78 80 85 88 90 95 96 95 93
49 50 52 59 70 88 84 86 82 82 74 44 51 52 54 58 57 53 57 69 77 87 92 94 97 99 99 99 99 99 96 90 88 89 89 93 96 96 94 93 90 86 82
50 54 57 65 69 74 76 80 86 70 41 46 50 50 56 59 57 55 58 74 87 93 95 98 99 99 98 99 99 99 99 99 99 99 99 97 95 95 93 89 79 70 60
53 65 66 63 65 75 84 86 69 43 43 51 49 52 58 60 58 55 58 77 89 92 97 99 99 99 99 99 99 99 99 98 98 98 97 96 91 86 81 74 67 60 60
64 71 77 76 78 84 85 56 44 44 50 49 50 56 61 62 60 58 58 75 88 94 98 98 98 98 98 99 99 99 99 98 98 96 90 85 82 80 76 72 64 61 62
75 77 77 79 82 76 51 45 45 46 51 49 53 58 64 64 62 61 59 76 87 93 98 98 98 98 99 99 98 98 98 98 94 89 86 84 80 77 74 72 67 63 61
80 79 78 78 67 50 46 45 43 49 50 52 55 59 63 63 63 63 59 73 83 92 96 98 98 98 99 99 98 96 97 98 94 90 86 84 82 78 75 72 69 67 64
81 78 76 62 49 44 45 46 46 50 50 52 56 58 62 65 64 61 60 67 79 89 93 98 98 98 99 92 89 85 84 80 81 89 92 89 85 80 75 72 70 69 65
79 78 63 52 46 44 46 47 51 52 55 56 56 58 62 66 66 62 59 63 74 85 85 86 95 97 95 89 81 80 79 74 69 72 78 92 89 84 81 75 72 70 68
80 69 58 52 45 44 45 48 52 55 57 57 56 58 62 66 66 64 62 62 68 80 81 79 83 86 86 85 84 75 68 64 62 61 66 64 82 93 88 84 78 74 73
73 66 60 53 48 47 48 52 51 56 56 56 57 57 60 64 66 67 65 63 66 75 82 79 78 78 80 81 80 77 72 66 58 56 57 54 53 57 59 68 72 70 69
68 63 59 53 50 49 51 51 52 57 57 57 57 56 58 63 66 69 68 66 67 71 80 81 81 80 79 79 77 75 74 73 68 64 60 55 48 49 47 43 45 45 46
65 63 61 57 52 50 50 53 59 60 58 58 59 59 58 61 66 69 71 70 69 71 73 80 85 85 82 81 79 77 76 74 71 68 66 63 58 55 53 50 52 49 46
66 66 62 56 53 52 54 59 61 59 58 60 63 63 61 61 65 68 71 73 73 71 73 74 79 86 89 89 87 83 81 79 75 72 69 66 62 59 57 55 53 52 49
75 67 58 54 54 57 58 61 61 62 63 63 64 67 67 65 65 67 69 72 75 73 75 79 82 84 86 88 88 87 85 83 80 76 73 69 65 63 60 58 55 52 51
84 75 61 57 58 62 63 65 64 68 70 70 72 73 72 70 67 68 70 73 75 76 78 82 88 93 96 94 93 94 92 90 86 81 76 72 69 67 65 63 60 58 57

GFSGL_prec_cthk_036.txt.gz
RH
68 65 64 63 54 46 44 40 40 42 43 40 35 37 39 42 48 54 55 60 63 67 65 57 57 56 65 63 62 56 49 46 49 45 48 49 57 68 73 77 81 86 87
59 57 51 43 39 39 42 36 32 38 45 43 32 36 41 47 49 54 53 50 50 49 52 53 59 59 55 53 49 43 38 35 39 37 40 40 46 59 71 70 71 79 84
54 46 40 40 40 44 43 43 43 51 57 56 50 53 60 68 61 54 53 51 50 49 57 56 54 49 42 39 37 34 31 30 34 38 37 38 40 44 56 67 71 67 67
42 42 46 45 42 39 51 54 61 69 66 76 78 71 78 81 74 58 53 50 50 50 50 47 45 45 43 44 46 46 46 45 44 44 43 43 42 39 46 60 60 60 59
45 50 49 48 49 54 59 64 67 77 75 94 94 85 84 77 65 56 48 49 51 49 47 47 48 48 49 55 60 60 62 62 60 58 56 54 50 44 41 49 60 60 56
50 51 56 49 49 48 51 66 57 70 91 91 86 87 82 66 59 52 52 51 48 48 49 49 51 53 57 61 62 64 70 73 70 73 70 62 52 52 46 42 54 62 61
42 40 36 33 35 43 52 51 56 87 97 96 94 84 77 62 58 52 50 49 49 49 49 53 59 66 69 69 74 79 81 79 73 76 73 66 58 53 51 44 48 62 65
25 25 26 31 40 48 52 49 71 98 97 97 88 85 71 68 53 49 48 50 50 50 55 65 71 73 75 83 89 91 93 92 84 77 73 67 61 53 54 52 48 59 64
24 28 35 41 42 42 49 59 69 83 88 88 87 78 74 54 49 46 48 49 48 51 64 75 77 79 91 96 96 95 92 88 82 78 71 67 65 59 58 56 50 61 63
29 36 43 44 43 49 57 70 74 77 85 85 80 76 51 50 45 47 48 46 43 49 69 82 86 90 95 98 98 98 92 87 81 75 69 64 60 55 57 59 63 64 71
32 41 45 45 53 56 63 65 66 75 82 85 67 47 49 46 46 50 50 47 44 62 77 83 91 97 99 99 99 99 99 93 89 83 79 75 74 76 76 77 77 77 80
39 46 48 53 63 62 60 70 78 82 82 57 47 50 47 46 50 53 52 47 53 69 81 87 95 98 98 98 99 99 99 98 93 90 89 88 88 88 88 87 89 90 92
46 50 53 62 71 75 73 78 82 78 52 47 48 47 46 49 54 54 52 50 56 73 86 92 96 98 98 99 99 99 99 99 98 98 97 96 96 97 98 96 94 92 84
49 55 58 69 77 77 79 83 77 51 47 46 48 47 49 53 55 55 54 52 58 76 87 93 96 98 98 99 99 99 99 99 99 99 99 98 98 97 96 93 86 75 63
52 58 64 77 79 79 81 71 49 46 45 47 49 50 52 54 56 56 56 52 56 74 88 93 96 98 98 98 99 99 99 99 99 99 99 97 93 88 84 79 72 62 62
55 65 74 81 81 76 61 52 48 47 46 51 52 52 54 54 57 59 58 55 55 71 85 92 95 98 98 98 98 98 99 98 97 92 90 88 85 82 80 75 68 64 62
61 72 78 81 79 61 49 45 44 45 50 54 55 54 53 54 57 59 57 53 56 63 76 86 95 97 98 93 90 89 88 84 90 96 92 89 87 83 78 73 69 68 66
63 77 81 79 64 54 46 44 42 45 50 56 57 54 52 54 57 59 58 55 57 61 67 74 87 93 95 91 84 82 80 76 70 74 94 92 87 83 78 74 73 70 68
63 76 80 76 61 56 48 47 45 50 53 57 57 54 53 54 57 60 62 60 58 62 64 67 76 83 87 88 84 77 71 67 66 69 73 86 93 88 83 78 75 74 71
62 66 73 67 61 57 53 51 50 52 54 58 59 56 55 53 57 61 64 64 60 62 65 64 72 77 79 81 82 81 74 65 61 62 63 62 66 87 94 91 87 80 75
59 59 65 65 60 56 54 53 52 51 57 60 59 58 57 55 56 59 63 66 64 62 65 67 69 77 79 80 80 79 78 75 72 63 60 56 49 52 56 60 61 62 63
59 57 62 64 63 59 54 52 51 54 62 62 60 61 60 58 58 58 61 66 67 64 64 66 70 76 82 84 81 80 79 77 75 72 70 64 57 50 49 43 41 41 39
68 65 67 66 65 59 56 54 56 58 62 62 62 64 66 64 62 60 60 62 67 69 67 66 66 69 79 87 88 87 85 82 79 75 71 69 66 62 60 56 53 49 46
76 79 77 73 66 57 55 55 59 61 63 64 67 68 69 69 67 64 63 62 63 69 68 68 71 73 73 81 87 89 89 87 83 80 76 72 68 65 63 60 59 56 53
84 87 90 87 73 62 62 61 63 65 67 69 71 74 76 75 73 70 66 65 65 66 69 70 74 78 82 85 87 92 96 94 91 85 79 75 72 69 66 64 62 60 58
87 89 89 92 89 73 62 63 66 66 67 71 73 75 77 79 80 78 71 69 67 66 66 69 74 83 86 89 92 95 94 91 89 86 83 80 76 74 72 70 68 66 62

GFSGL_prec_cthk_039.txt.gz
RH
60 56 53 48 41 39 38 38 35 35 42 48 52 48 52 53 50 54 63 63 61 54 49 51 54 54 55 56 54 58 55 60 50 47 45 37 36 37 38 41 44 55 65
54 49 44 40 37 39 42 45 43 46 50 57 56 55 72 69 75 72 76 73 64 55 52 53 52 51 51 51 50 48 47 45 42 37 32 32 38 37 36 36 38 42 56
49 44 39 40 44 48 49 49 52 52 51 52 59 57 68 82 83 85 76 70 59 51 48 47 46 46 46 46 44 43 45 47 49 48 42 42 39 37 35 35 34 37 41
43 41 44 47 51 47 42 41 39 43 52 57 60 64 83 85 88 79 70 58 53 52 50 48 48 48 46 44 44 46 49 52 57 60 57 55 53 49 45 42 36 33 37
39 39 40 39 36 33 36 43 46 47 49 46 70 80 89 93 87 75 64 57 55 49 47 49 48 47 47 49 53 55 58 60 64 65 63 65 65 64 59 52 45 37 31
36 32 28 28 28 28 31 34 36 39 47 54 86 85 95 94 82 75 61 54 49 48 48 48 47 47 52 62 70 70 72 78 79 77 72 68 69 71 69 62 52 45 36
29 29 30 29 32 34 34 33 39 49 58 65 83 90 90 84 80 65 55 50 48 49 49 47 46 51 64 70 73 79 85 89 89 89 87 85 76 71 73 68 59 50 43
29 29 29 31 32 33 32 38 45 55 64 67 72 78 80 80 69 53 49 46 46 48 47 44 46 62 76 82 88 92 95 95 95 91 90 89 83 78 78 71 61 54 47
28 29 31 33 37 36 36 47 49 56 59 63 68 73 77 61 48 48 44 44 47 46 44 48 64 78 84 93 96 98 98 97 96 92 87 82 80 79 78 73 66 61 51
28 32 37 41 42 41 45 56 56 61 67 72 77 73 48 48 48 46 46 47 46 43 45 55 78 86 94 99 99 98 97 97 98 95 90 84 81 74 68 63 61 57 56
33 37 40 44 47 47 55 66 73 70 77 77 71 50 46 48 48 49 50 49 47 47 48 64 83 90 97 98 99 99 99 98 98 98 91 87 83 79 75 70 68 68 68
33 37 43 46 50 54 66 78 79 81 82 73 51 47 48 50 50 52 52 52 51 50 51 70 85 95 97 97 98 99 99 99 99 99 92 90 89 87 84 82 82 83 82
32 37 43 47 53 61 72 79 81 84 78 52 47 46 50 53 52 53 52 53 53 52 54 71 86 94 97 98 98 99 99 99 99 98 98 96 93 91 90 89 90 88 88
33 38 44 52 63 71 79 83 82 72 53 49 46 49 54 55 53 53 52 53 52 52 54 71 87 95 97 98 98 99 99 98 99 99 99 99 99 99 99 98 99 98 96
35 41 49 59 71 77 82 83 65 55 50 46 46 54 56 55 52 51 53 53 51 52 52 66 85 93 97 97 98 99 99 98 98 99 99 99 99 99 99 97 92 81 67
39 45 53 62 75 81 81 68 55 50 48 46 49 56 58 53 51 51 52 53 52 53 50 54 79 92 96 92 89 89 91 86 93 96 93 90 89 86 82 78 76 69 66
45 52 59 64 74 79 70 62 53 53 50 49 52 57 58 53 52 51 52 55 53 54 54 50 65 83 90 91 84 83 82 76 69 85 96 92 88 85 82 81 77 72 70
50 58 64 65 65 71 67 60 54 51 50 50 53 57 58 54 52 51 52 55 57 56 58 54 54 70 82 87 86 78 72 72 71 73 81 96 92 88 83 79 76 74 73
57 61 61 61 63 67 66 61 56 54 53 49 52 58 58 55 53 52 53 54 57 58 58 59 54 59 72 79 81 81 79 72 66 69 70 71 82 93 88 81 78 75 73
62 63 60 59 57 62 65 61 57 56 54 51 52 58 57 58 57 56 55 54 55 57 58 60 59 58 65 75 79 80 80 80 76 67 64 59 58 68 82 87 87 82 76
67 68 66 64 61 60 64 65 61 56 52 51 55 61 59 61 63 61 58 56 55 56 58 59 60 62 64 70 79 81 81 80 79 77 74 64 56 50 52 59 63 68 64
75 73 71 70 69 67 64 64 60 59 55 56 59 61 62 65 69 68 64 60 57 56 56 58 60 59 61 68 77 85 86 84 81 79 76 75 71 60 53 47 44 40 36
78 80 79 80 82 81 73 64 57 58 59 61 63 63 65 69 71 72 70 66 62 58 56 55 60 64 63 66 70 77 85 89 87 83 79 76 73 71 67 63 56 49 44
79 81 81 84 88 89 90 77 63 58 60 63 66 68 71 73 74 75 76 74 69 64 60 55 56 64 70 69 71 73 82 92 93 89 83 78 75 72 70 68 66 64 61
82 84 85 86 89 90 91 91 79 68 64 65 67 70 74 77 78 79 81 81 76 70 64 60 57 59 69 75 77 80 83 86 89 89 88 85 80 76 73 71 69 67 64
83 87 91 94 95 96 97 98 93 82 73 69 69 72 75 79 82 85 86 86 85 79 73 67 63 61 65 72 75 79 80 81 84 85 85 83 81 79 77 75 73 70 68

GFSGL_prec_cthk_042.txt.gz
RH
67 61 54 48 45 42 42 42 42 41 43 47 49 51 48 50 53 60 69 73 79 77 74 68 60 52 49 51 51 51 52 55 51 39 40 39 39 38 40 41 36 34 36
58 52 49 48 47 46 44 45 45 40 42 47 50 53 51 56 53 67 78 82 81 73 67 54 47 48 49 49 49 49 48 49 51 47 43 43 43 43 46 41 34 33 33
54 52 47 44 41 38 37 34 32 36 41 42 46 45 49 56 68 77 83 86 78 72 59 51 47 46 46 46 44 43 43 45 51 53 48 47 47 51 52 50 43 36 32
51 46 42 37 32 31 30 28 29 31 34 38 42 51 59 71 85 84 87 86 74 65 54 48 46 46 45 45 45 45 50 58 64 67 65 64 61 57 61 61 57 50 39
48 43 36 32 32 30 29 29 28 31 35 40 44 49 61 79 81 87 84 77 69 54 46 45 45 46 49 48 49 56 69 71 73 71 74 76 76 74 70 68 64 60 47
42 35 33 32 30 32 32 31 32 33 38 42 46 55 65 71 77 79 76 66 49 43 42 42 43 43 42 45 58 71 77 80 85 87 85 83 83 85 84 74 70 67 56
35 34 32 30 32 33 35 34 33 34 42 44 52 56 60 62 67 70 57 45 43 43 43 43 40 40 43 56 70 80 91 96 98 96 93 94 91 95 96 91 77 71 64
33 32 31 32 34 36 36 36 35 40 48 45 56 62 64 68 63 46 46 44 44 45 43 42 43 43 54 73 81 91 97 97 99 99 98 97 94 94 97 96 86 77 67
33 29 31 34 34 35 37 40 43 48 60 65 66 72 73 61 46 45 46 45 44 43 43 45 46 50 73 86 92 95 97 97 98 99 99 99 96 92 94 90 81 77 71
29 28 29 32 35 37 41 44 49 59 71 77 79 80 69 50 45 48 49 46 44 43 44 47 49 60 83 92 96 98 97 98 98 96 98 97 93 90 87 85 79 77 72
28 27 30 31 36 41 46 50 56 69 77 82 82 72 51 46 47 52 51 47 46 44 46 48 50 69 87 95 99 99 99 98 98 99 99 93 92 87 85 82 78 71 65
27 28 30 31 37 43 49 59 67 74 83 83 75 53 48 44 52 54 50 48 47 46 48 49 51 71 88 97 98 99 99 99 99 99 98 96 91 90 87 85 83 82 81
28 28 29 32 39 46 55 66 73 79 86 72 55 49 46 46 55 54 50 47 46 47 49 49 51 68 86 95 98 98 99 98 98 99 98 98 97 93 91 89 89 89 88
29 30 33 37 44 49 59 70 78 82 72 59 54 49 46 53 57 53 48 45 45 47 50 47 48 65 85 94 96 98 99 98 98 98 99 98 98 98 99 96 94 93 92
31 35 37 42 49 55 63 72 77 72 64 57 55 50 49 56 56 52 48 45 45 47 50 49 45 59 82 88 85 86 90 88 90 99 98 99 99 99 99 99 99 99 98
34 38 42 48 54 59 61 62 63 63 59 58 55 51 52 56 57 51 48 46 46 47 50 50 46 49 71 84 83 79 80 79 73 85 98 94 91 92 93 92 89 82 75
40 44 49 54 59 58 54 56 59 63 64 60 58 55 54 56 57 53 50 48 47 46 48 53 49 46 55 75 84 82 73 73 74 75 82 97 91 86 82 79 77 75 71
44 49 53 56 59 58 58 57 58 61 63 60 61 57 54 56 58 55 54 52 50 48 46 52 53 51 50 60 75 80 82 76 72 72 74 74 88 90 86 81 78 74 72
49 55 58 60 60 59 58 56 58 62 66 63 60 59 55 57 57 58 60 58 54 51 47 48 54 55 54 55 63 75 80 81 81 76 70 65 63 73 86 85 82 78 73
57 61 64 66 66 64 63 63 60 62 65 65 60 59 58 60 59 60 65 63 59 54 51 47 50 54 57 58 60 67 77 81 81 80 80 71 62 58 63 71 71 70 70
64 69 70 73 71 72 75 75 71 66 62 60 60 59 60 63 63 63 68 69 66 60 56 51 49 51 54 57 60 65 72 83 84 82 80 79 74 61 57 54 58 65 64
71 71 77 80 81 80 82 84 84 77 67 58 58 60 63 66 67 67 71 72 73 69 64 57 51 50 53 57 60 61 65 73 83 84 82 79 78 75 69 57 50 47 47
77 78 80 84 86 84 86 91 90 91 83 69 62 61 64 68 71 71 74 76 77 78 73 67 58 53 53 57 64 65 64 72 79 85 84 81 78 76 73 72 68 57 48
81 80 82 84 88 90 93 96 97 97 95 84 73 66 64 66 70 75 77 77 79 82 81 76 70 60 56 58 62 69 72 74 76 78 83 87 81 78 76 75 73 71 69
84 85 85 87 89 92 96 98 99 99 99 98 91 78 73 72 72 77 82 83 86 86 86 84 78 71 63 63 62 64 71 73 73 75 78 82 84 83 82 80 77 74 71
86 86 88 90 91 94 95 96 97 98 98 98 98 96 84 82 80 81 87 90 91 92 92 90 86 82 75 70 70 66 67 70 72 74 76 79 81 82 82 81 79 78 75

GFSGL_prec_cthk_045.txt.gz
RH
80 72 61 58 54 51 48 45 43 40 39 35 36 42 44 45 49 55 56 61 70 74 73 69 67 62 53 48 48 49 49 49 44 41 43 43 46 47 50 51 49 47 45
67 63 61 51 47 45 39 33 31 30 29 30 32 38 43 50 58 59 63 69 77 78 75 68 65 55 46 45 45 44 46 47 47 46 43 46 50 52 51 51 53 55 57
61 53 49 47 42 37 35 34 31 28 27 28 31 38 44 49 49 58 76 76 77 78 75 68 53 43 44 44 46 47 52 52 51 54 53 65 63 65 63 61 59 54 53
54 50 44 42 39 38 36 32 30 29 28 27 31 35 38 44 53 74 78 77 74 74 67 47 41 42 46 47 48 49 52 55 66 72 72 73 75 75 75 70 69 68 60
50 45 44 41 39 37 34 31 30 30 29 30 31 36 42 51 60 65 67 65 65 57 42 41 40 42 42 43 47 50 59 72 78 82 86 87 89 89 87 84 77 75 70
48 47 43 40 38 33 32 33 32 32 32 33 36 41 43 53 62 61 63 58 44 42 40 40 40 39 41 42 44 54 74 81 89 93 94 94 96 97 98 96 88 84 80
48 43 39 37 34 34 34 33 33 34 34 38 44 51 58 61 68 67 51 41 43 43 42 39 38 41 44 47 52 73 85 93 94 95 94 98 97 99 99 98 93 90 91
44 40 37 33 32 33 33 34 35 35 38 45 55 65 71 76 76 59 43 41 45 45 41 39 40 45 47 51 68 83 92 96 98 99 99 99 100 100 100 99 96 96 97
43 39 34 31 31 31 32 32 34 36 44 53 64 73 82 81 67 46 41 45 47 43 40 40 44 47 49 57 78 87 92 97 99 99 98 98 99 97 95 94 95 97 98
41 36 32 30 28 32 30 31 35 42 52 61 70 80 83 72 48 44 43 48 45 42 42 44 47 50 51 65 82 89 92 98 98 97 98 99 98 93 91 92 92 92 90
37 33 31 28 31 30 29 34 39 48 58 69 75 83 73 50 45 43 49 49 46 45 44 46 49 47 53 71 85 92 95 97 98 98 98 98 94 91 90 89 91 93 93
34 32 29 31 29 28 33 38 45 53 64 75 80 74 57 48 44 47 51 48 45 43 42 47 46 44 52 71 86 94 97 98 98 99 99 99 98 94 89 88 87 86 84
34 30 32 31 29 33 37 43 50 58 69 77 71 64 53 48 46 52 52 47 44 42 41 45 44 44 54 71 82 87 94 98 97 99 99 99 98 97 94 91 89 90 89
32 33 34 31 33 38 41 49 56 61 65 66 64 58 54 50 51 54 52 47 44 43 41 44 44 43 49 65 76 79 83 83 80 96 98 99 99 99 99 99 96 93 91
35 37 35 34 38 43 47 51 52 51 54 58 61 57 56 52 54 54 55 51 47 45 42 44 45 45 48 57 74 75 75 78 75 84 98 97 97 99 99 99 99 98 99
40 37 38 40 45 48 52 52 51 49 50 54 59 57 57 55 55 54 57 53 52 49 46 43 46 45 46 49 62 78 78 72 76 78 83 98 94 91 95 99 99 99 99
38 39 42 46 50 53 55 55 54 54 52 55 60 61 60 58 57 55 58 57 57 54 51 44 45 47 47 50 52 65 78 81 76 74 73 75 93 92 85 83 82 82 79
41 44 49 54 56 58 58 59 59 60 58 60 64 65 63 60 58 57 59 60 63 61 57 51 45 47 48 50 53 56 67 78 81 82 72 68 64 78 90 85 82 78 75
46 50 55 60 64 65 63 64 65 65 65 64 60 61 63 62 58 58 62 61 67 68 62 58 51 46 48 50 54 56 59 71 79 79 82 75 66 59 66 73 77 78 75
51 57 62 67 72 74 75 73 74 75 73 72 69 61 58 60 59 60 65 65 68 72 69 64 59 51 48 46 49 57 60 63 74 81 80 81 78 66 60 59 61 63 62
54 61 70 73 76 80 81 84 80 82 85 84 77 69 64 60 60 62 66 68 69 74 77 73 67 60 54 50 48 50 56 60 64 73 79 79 80 78 69 59 56 57 58
57 63 71 78 84 86 86 88 89 90 93 93 93 83 71 69 64 63 66 68 70 74 77 79 76 70 61 56 52 51 53 58 63 68 72 77 77 78 76 74 64 55 53
64 66 71 76 85 88 88 89 90 93 96 96 97 97 89 74 70 67 67 69 73 76 79 82 82 80 72 63 59 56 55 57 65 65 66 71 76 77 78 77 75 74 64
67 70 75 80 85 89 91 92 92 93 95 96 97 98 98 95 81 74 75 75 77 80 82 86 87 85 81 73 66 64 60 58 61 64 64 66 71 79 80 80 78 76 74
70 72 76 83 88 91 92 93 92 93 93 94 96 98 98 98 97 86 83 82 81 84 87 91 92 90 87 82 75 71 67 62 59 60 64 64 66 71 78 82 82 82 81
75 76 77 84 89 91 90 91 91 92 93 95 96 98 99 98 98 97 93 91 90 92 95 96 96 96 93 89 85 80 75 69 63 59 62 66 68 71 75 79 81 81 80

GFSGL_prec_cthk_048.txt.gz
RH
71 81 72 61 52 52 50 46 42 39 39 37 37 37 38 39 49 54 61 60 48 61 66 68 71 74 73 70 59 54 50 52 54 49 51 50 48 53 54 58 55 54 57
82 64 55 52 52 49 46 44 41 38 36 34 32 32 38 39 45 37 39 43 56 71 73 72 73 72 68 53 51 52 56 56 58 57 50 54 54 56 59 63 60 59 60
65 59 57 53 50 49 48 45 41 38 36 34 35 39 39 40 37 38 46 56 71 77 73 70 68 61 50 51 51 52 55 54 54 55 50 61 67 70 68 68 68 65 65
60 59 55 53 54 51 47 44 40 39 37 35 37 35 33 34 37 41 50 63 68 68 66 62 50 48 48 48 46 48 51 53 53 61 71 75 78 84 86 84 80 78 75
59 56 55 57 53 49 45 43 41 38 38 36 35 35 34 38 45 54 60 69 71 65 50 46 46 44 40 39 43 44 50 52 62 76 82 86 88 91 93 92 90 88 85
54 55 57 54 50 47 43 40 38 42 41 41 42 43 45 50 52 61 68 78 68 49 44 46 46 43 43 42 44 46 50 62 80 87 89 91 95 96 97 97 96 94 91
57 59 55 51 46 43 39 39 43 41 41 42 42 47 53 59 63 71 79 71 47 44 45 46 44 44 45 49 50 50 61 82 90 91 94 97 97 99 97 99 98 96 93
58 54 52 49 43 42 39 42 42 40 41 37 42 52 62 66 72 80 71 48 46 47 47 44 43 44 49 46 49 56 74 88 94 96 99 99 100 99 99 97 98 98 96
58 56 51 45 44 40 41 44 42 40 41 42 46 56 68 72 78 75 49 47 47 50 46 45 42 44 47 48 51 62 83 92 95 99 99 98 98 96 96 92 92 93 95
58 50 47 46 42 40 39 40 41 40 40 45 52 61 70 77 77 53 47 47 51 47 44 46 44 43 44 50 55 70 86 94 97 99 99 99 100 99 93 91 91 93 96
52 48 46 42 40 39 34 37 39 38 40 48 53 63 73 72 62 50 46 48 52 46 43 42 44 45 40 47 58 75 87 91 96 99 99 99 99 99 96 90 89 93 97
48 45 41 42 41 39 38 39 39 43 46 52 58 66 68 63 56 50 47 53 49 45 44 43 43 40 39 47 58 68 76 88 95 96 99 100 100 98 95 90 88 88 91
43 42 44 42 41 41 37 36 41 47 51 55 57 60 62 61 61 51 50 54 49 46 46 41 39 39 38 47 56 61 78 88 85 84 99 99 99 99 99 98 93 92 91
46 45 39 38 41 38 38 41 45 52 53 53 52 57 60 59 62 56 54 57 54 50 49 47 41 41 41 46 55 65 78 80 84 81 90 99 97 99 99 99 99 97 94
46 43 41 41 38 38 42 47 54 54 53 50 49 53 59 62 63 57 56 56 57 54 51 51 48 48 47 48 53 58 71 84 81 83 81 94 99 93 99 99 99 99 99
44 42 41 38 40 44 48 51 54 52 52 53 52 52 57 63 63 58 56 52 56 54 55 56 53 50 49 49 52 56 60 75 82 81 81 76 90 98 90 96 99 99 99
41 41 38 40 46 50 54 58 59 61 57 58 58 58 59 63 65 61 59 54 55 57 61 63 58 54 51 50 50 53 58 61 74 83 89 79 73 81 95 88 88 91 92
36 38 42 46 51 57 63 65 64 65 65 67 65 64 64 61 61 60 60 56 57 60 65 67 63 59 55 52 50 51 55 56 62 76 84 87 79 70 79 92 86 83 81
40 43 47 50 55 63 70 74 75 75 74 75 76 73 69 70 63 58 60 58 59 65 68 73 72 68 62 58 55 47 48 56 58 62 79 84 87 79 68 71 80 82 82
46 48 53 55 58 63 71 79 83 87 88 85 86 88 86 79 71 66 62 59 61 66 69 73 76 74 70 63 60 52 49 54 57 58 62 79 84 85 81 69 66 67 71
50 53 59 61 64 69 74 81 89 92 92 92 92 94 94 91 82 73 71 67 65 65 70 73 77 80 77 72 64 58 53 49 50 56 60 61 71 82 82 81 71 65 64
48 51 56 65 68 73 78 83 87 94 96 93 94 96 96 96 96 86 74 73 69 68 68 72 76 83 84 82 73 64 59 53 50 53 57 59 60 75 83 86 84 76 66
52 56 59 64 70 75 77 85 89 93 96 96 96 96 96 96 97 98 94 80 77 76 74 76 79 83 86 85 79 69 65 61 56 53 52 56 59 64 70 84 85 80 76
63 62 64 72 77 81 81 84 91 96 96 96 96 96 95 95 97 98 99 98 87 81 80 81 83 85 88 89 86 79 73 69 62 56 52 51 56 59 61 72 83 81 78
66 64 67 70 78 83 86 87 89 94 97 97 95 96 96 96 97 99 99 99 98 92 90 88 90 91 91 94 92 87 82 78 71 63 55 51 52 57 60 63 68 80 81
64 69 72 73 78 81 86 87 85 84 82 80 82 83 86 89 92 95 97 99 99 98 97 96 96 98 98 97 97 94 89 85 81 73 63 57 54 57 64 66 68 71 77

GFSGL_prec_cthk_051.txt.gz
RH
62 74 72 70 64 58 57 56 57 55 52 48 43 42 42 41 45 47 46 53 50 47 46 58 65 73 72 68 65 63 56 57 60 53 50 50 54 52 54 54 53 55 53
75 81 68 64 59 56 55 56 56 55 51 47 43 43 41 44 44 45 45 45 41 46 57 69 72 77 71 64 61 57 56 58 61 57 52 53 53 50 54 60 62 63 64
70 63 61 59 57 55 56 58 58 56 50 46 47 44 45 40 36 31 35 39 41 49 60 68 71 68 61 53 52 50 49 49 49 51 50 55 52 62 67 71 74 76 74
65 63 59 58 56 56 58 59 60 54 52 51 48 47 37 35 37 36 37 44 52 60 68 75 67 54 52 47 42 40 44 45 49 52 49 54 69 77 82 82 82 82 82
60 57 58 57 58 60 63 62 57 55 53 55 53 46 47 42 42 45 49 58 64 72 78 69 53 48 44 39 38 39 43 47 48 52 58 74 83 85 90 92 89 87 86
60 61 58 58 60 60 60 59 56 54 57 54 45 42 45 49 46 53 56 65 74 80 70 55 50 50 48 41 43 42 44 48 52 59 76 86 90 93 95 96 95 95 86
61 59 59 61 60 56 55 54 53 56 54 48 43 42 43 55 52 62 65 72 78 67 55 53 52 49 44 43 45 44 49 53 59 74 85 92 94 98 97 96 96 94 96
63 64 67 63 57 54 54 53 54 55 53 45 42 41 41 55 58 65 70 74 67 54 54 52 50 45 45 40 40 43 50 58 70 85 91 94 96 98 97 98 93 86 86
71 70 63 59 56 57 54 52 50 50 51 42 42 44 49 56 60 68 74 61 57 54 51 54 48 46 45 41 37 45 52 65 80 89 92 95 94 95 97 96 91 89 86
68 66 63 57 53 56 53 44 43 46 45 42 43 49 53 61 63 73 63 51 54 51 54 53 47 45 42 40 35 47 54 71 81 87 92 95 97 98 98 98 92 88 91
68 62 58 56 58 53 50 47 42 44 42 39 42 51 57 63 65 63 59 52 54 51 55 51 50 47 41 36 36 46 54 58 76 84 88 95 97 97 97 96 90 83 83
64 59 55 57 51 51 48 45 44 44 44 44 47 49 54 56 58 56 54 54 51 50 55 49 48 43 38 36 37 45 50 59 82 89 85 93 97 96 96 94 91 86 88
60 55 52 46 43 42 45 44 43 41 45 50 51 52 53 54 58 59 56 57 52 51 55 51 46 44 41 40 42 46 53 67 74 81 89 89 97 97 95 97 95 93 94
52 49 48 43 40 38 39 43 45 47 50 54 55 56 57 58 59 63 62 60 55 54 55 54 51 51 48 45 46 49 55 62 71 86 88 88 92 98 93 97 96 96 98
47 47 43 41 38 35 36 40 47 54 58 59 58 57 59 60 63 66 65 65 61 59 53 55 57 62 56 54 51 51 53 59 63 77 89 89 86 93 97 90 98 97 98
42 40 40 38 35 37 40 42 48 54 60 63 60 59 59 58 60 63 66 66 62 59 53 57 63 67 61 58 56 54 53 56 58 63 84 92 89 84 94 93 91 99 98
39 38 36 37 38 42 46 50 51 58 65 67 68 68 67 64 63 65 66 63 63 62 55 56 65 71 69 65 61 58 55 53 54 61 68 89 92 82 80 96 89 88 91
37 37 38 39 44 50 56 57 58 59 67 76 78 77 77 75 71 69 70 68 63 61 59 59 65 71 75 72 66 62 58 53 52 57 62 72 90 90 84 81 88 87 84
41 42 41 43 49 54 57 61 63 66 69 77 86 91 89 88 88 82 77 71 70 65 64 63 67 70 74 77 72 65 61 58 54 53 58 63 72 89 89 84 81 85 86
47 48 48 48 49 52 54 62 67 71 75 79 88 95 98 95 94 94 93 82 74 70 66 66 67 72 73 76 80 75 69 62 58 55 54 59 62 71 86 87 78 74 80
50 51 55 58 59 60 61 66 71 75 79 85 88 96 98 99 97 98 98 97 84 77 74 70 69 70 72 74 82 83 79 69 63 59 56 55 59 61 69 84 87 79 70
52 56 59 59 59 59 61 68 72 77 81 85 90 95 98 98 98 98 98 98 98 91 81 78 76 76 75 75 82 86 85 77 69 63 59 53 54 60 61 68 82 88 82
57 70 65 60 68 63 61 67 73 80 84 87 91 95 98 98 98 98 98 98 99 99 98 88 82 81 82 82 82 87 89 85 77 72 62 54 53 56 58 64 68 80 82
55 69 59 74 77 73 71 71 75 81 87 90 91 96 99 99 99 99 99 99 99 99 99 98 93 88 89 88 86 86 89 87 82 76 71 60 52 55 52 60 65 68 76
53 61 74 79 79 80 76 78 82 85 89 91 91 95 95 95 96 96 97 96 97 99 99 99 99 97 95 95 93 91 93 91 87 84 79 70 59 53 50 50 57 61 65
59 70 79 80 80 78 77 84 86 85 86 87 86 88 86 81 79 81 82 83 88 93 95 97 99 99 98 99 99 98 98 96 93 91 87 80 70 62 60 60 58 60 66

GFSGL_prec_cthk_054.txt.gz
RH
60 63 65 66 79 76 55 57 56 54 54 55 55 51 48 48 47 47 48 47 45 42 43 41 39 50 60 68 72 74 64 56 57 48 46 41 44 44 42 39 37 37 40
63 67 67 64 61 57 60 56 56 56 57 57 54 51 51 51 47 44 41 40 38 34 35 41 51 60 68 73 70 63 53 49 50 43 38 37 40 43 43 41 42 48 52
63 64 64 65 57 58 56 59 58 59 60 56 51 53 52 48 42 37 37 35 34 35 44 50 59 63 68 75 55 46 44 42 36 36 34 35 40 42 43 51 59 62 64
60 64 65 58 57 57 60 59 62 64 60 56 55 59 56 51 43 41 39 41 41 47 57 64 68 71 71 48 46 43 37 35 36 37 37 39 42 44 58 68 72 74 76
62 63 62 58 60 63 61 64 66 63 60 60 64 59 53 46 46 43 46 49 52 60 67 70 75 66 47 44 44 40 37 38 39 39 42 45 49 66 76 79 81 83 80
63 61 59 62 66 63 70 64 62 66 61 63 62 53 48 43 45 44 51 55 57 66 70 75 64 48 49 48 44 39 40 40 40 47 51 56 70 78 86 90 92 90 81
64 65 65 69 73 74 68 65 63 61 61 62 57 50 43 42 39 42 54 62 63 69 74 63 52 52 49 47 42 39 37 36 45 53 59 73 82 90 92 93 93 91 86
71 72 77 78 74 69 66 66 64 60 55 54 50 45 40 41 41 47 61 65 67 72 61 52 54 55 51 45 39 36 34 37 47 59 69 80 86 89 93 92 93 90 83
76 86 78 77 73 70 66 61 54 45 45 46 44 41 40 41 45 55 60 64 70 57 48 52 56 56 48 44 41 36 32 37 47 59 68 77 86 91 95 95 94 93 80
83 82 77 73 69 64 59 53 47 44 42 46 42 41 39 44 49 55 61 61 59 53 48 55 52 55 50 45 42 36 33 39 41 51 72 75 85 91 95 96 95 95 81
84 76 71 66 60 55 49 47 45 45 46 43 40 39 42 48 50 55 56 56 55 52 54 55 55 54 50 47 41 37 37 39 44 52 67 78 84 90 94 93 92 89 79
73 63 56 53 46 43 42 42 44 46 43 41 40 41 46 47 51 53 57 56 55 56 54 53 54 55 51 46 45 41 42 43 47 56 64 77 81 89 94 94 94 93 87
58 55 51 44 44 36 34 33 36 39 40 41 42 47 52 54 55 55 58 61 61 59 58 55 53 54 52 51 50 47 46 45 46 50 63 79 79 83 94 94 91 91 90
50 44 42 42 38 36 32 30 32 39 46 46 51 56 61 63 63 62 63 63 68 66 63 60 56 53 57 56 56 54 52 50 49 49 55 71 85 81 85 95 88 92 92
42 43 41 40 38 34 31 32 36 41 50 54 60 66 70 69 64 67 70 70 68 70 72 66 59 54 59 62 62 60 57 53 52 48 50 60 84 87 76 91 94 89 93
42 38 34 33 33 34 35 35 38 42 47 55 61 67 72 78 74 70 70 70 70 72 68 63 62 57 60 68 68 67 63 58 54 50 49 57 70 90 83 81 96 88 90
36 34 33 36 37 39 38 42 40 41 50 55 61 66 73 82 85 85 80 77 75 78 70 64 62 59 61 65 71 74 73 64 59 54 51 51 60 78 89 85 84 91 84
34 35 39 41 43 42 42 44 47 47 47 52 61 66 72 82 90 93 96 91 85 82 75 69 65 62 61 65 68 77 79 72 67 61 53 50 54 60 83 89 79 81 84
33 38 44 49 47 47 51 51 53 56 57 58 63 68 75 83 90 96 99 98 96 90 83 75 72 68 67 67 70 72 77 79 75 68 58 54 51 55 62 85 85 76 79
40 49 61 59 51 54 61 58 55 59 62 67 71 73 79 85 87 93 97 98 98 98 93 82 76 75 71 70 70 72 75 82 81 74 65 58 54 52 54 64 84 84 76
55 61 60 62 59 64 81 76 70 63 67 67 72 78 83 86 91 93 98 98 98 98 98 97 88 83 79 76 75 74 73 80 84 81 72 63 58 51 53 55 64 84 84
36 39 52 53 59 66 71 76 74 68 72 74 70 78 84 89 91 94 98 98 98 98 99 99 98 96 89 81 81 81 79 80 87 86 78 71 63 54 55 53 58 62 80
34 38 43 52 68 60 59 66 73 74 80 82 77 82 87 91 92 95 98 99 99 98 99 99 98 99 98 93 88 87 86 84 86 88 83 76 69 60 55 52 56 59 60
35 32 43 51 53 61 71 79 80 84 85 82 84 88 91 92 94 97 99 99 99 99 99 99 99 99 99 98 97 94 93 92 87 90 86 82 76 68 59 52 53 54 55
32 37 48 64 68 69 77 79 82 83 83 81 89 91 92 93 97 97 94 96 97 96 97 98 98 99 99 99 97 98 98 98 92 93 90 87 82 76 67 59 55 53 52
46 52 58 59 62 69 73 79 80 83 83 86 89 88 90 91 92 90 90 90 87 88 85 84 89 94 97 97 98 98 99 99 99 98 94 93 89 83 78 70 64 61 57

GFSGL_prec_cthk_057.txt.gz
RH
59 64 66 65 67 69 69 72 62 51 55 56 58 59 59 56 52 51 50 50 52 53 52 49 42 41 43 52 58 67 71 77 70 49 42 42 40 37 35 35 35 33 33
67 70 68 66 66 73 70 64 54 55 57 59 63 62 59 56 56 54 52 48 41 39 36 36 38 44 50 55 65 70 78 71 48 43 37 28 27 29 33 34 35 36 37
75 71 67 66 64 68 68 55 58 58 61 69 64 62 63 62 58 56 52 43 40 39 37 39 47 54 58 63 70 67 48 45 42 36 29 28 29 30 34 35 38 42 53
67 63 62 62 68 66 58 58 59 67 71 69 68 64 64 59 59 57 48 41 41 42 42 48 55 59 62 68 59 48 44 41 37 34 31 29 33 36 42 46 49 60 65
61 60 60 65 67 60 59 66 69 75 72 72 68 64 61 58 58 52 43 42 48 49 54 56 61 68 69 61 48 47 45 42 38 34 30 34 40 46 54 64 71 72 73
60 60 63 69 62 69 73 80 77 75 72 66 64 61 58 58 51 41 39 41 44 58 61 63 68 74 61 48 50 49 48 44 36 32 36 43 49 60 70 74 76 77 73
62 65 65 68 76 83 86 80 75 66 59 58 57 54 52 46 42 34 37 40 48 60 64 69 71 57 51 53 51 51 46 40 37 36 41 49 58 69 73 77 81 82 82
65 65 75 89 92 85 75 65 56 52 48 48 49 49 41 39 36 33 40 48 56 60 63 67 51 53 54 52 51 48 44 40 35 39 45 49 59 67 77 82 85 86 82
66 80 92 90 78 68 58 53 52 50 44 41 36 38 36 32 36 38 44 52 55 61 61 57 50 48 53 51 52 48 43 39 37 39 40 49 61 70 80 86 89 89 81
85 94 83 77 66 60 56 52 48 45 42 37 36 34 36 37 36 42 50 53 56 58 56 52 51 51 53 53 53 49 43 40 38 39 44 47 58 73 83 90 92 90 80
90 83 76 67 57 52 48 45 44 40 39 37 34 37 40 42 41 44 52 55 56 56 55 53 54 52 54 54 55 51 47 44 43 43 43 48 60 69 80 90 94 92 84
80 70 61 52 49 43 42 36 34 34 33 33 34 36 41 43 48 52 56 59 60 59 58 59 59 54 55 57 56 55 53 50 48 46 45 45 56 73 77 86 93 93 84
60 52 46 42 42 43 39 34 31 29 30 34 36 38 42 50 56 61 63 63 61 63 62 66 65 61 61 56 55 58 59 57 54 50 48 47 51 67 82 78 90 92 84
48 46 43 42 40 36 33 31 32 32 33 37 39 42 47 52 58 65 71 72 67 69 70 70 67 68 67 60 56 60 64 64 61 55 51 49 48 59 82 78 86 93 84
46 42 39 35 33 30 31 34 37 36 40 39 40 46 50 53 61 66 71 74 72 72 74 76 74 71 66 61 58 60 67 68 66 61 57 52 48 53 70 85 84 91 90
37 33 31 32 31 32 37 39 40 37 40 41 43 46 48 58 65 70 74 77 82 80 79 80 76 74 68 63 61 61 67 72 72 70 64 58 51 50 57 84 85 82 90
34 33 35 37 38 42 47 48 44 37 44 45 48 48 52 58 66 73 78 82 88 91 91 87 80 76 70 65 64 62 63 70 76 76 73 65 55 50 52 66 87 78 80
33 36 38 37 41 47 53 56 54 51 55 51 56 56 58 65 72 77 81 83 89 93 96 94 86 79 75 71 67 67 66 67 74 80 77 70 61 54 50 54 76 84 76
30 33 38 44 50 59 60 70 66 62 75 64 62 62 69 73 74 82 84 86 89 93 98 97 94 84 80 76 73 71 70 70 73 80 79 75 66 58 53 49 57 83 80
27 31 36 40 40 43 55 65 76 67 78 78 62 68 69 73 72 81 86 89 91 94 98 98 97 95 85 81 77 76 73 72 71 76 82 79 72 64 57 51 52 61 85
37 39 38 34 31 34 36 53 69 75 84 79 61 67 75 84 78 79 85 91 92 95 98 98 98 98 98 93 88 83 80 79 78 78 84 84 77 69 61 55 52 53 62
35 33 32 30 29 28 46 51 70 76 74 67 65 75 82 86 81 84 89 91 93 97 99 99 98 97 97 98 99 94 87 84 83 82 84 86 80 74 66 60 55 52 52
22 21 21 22 26 36 48 69 70 66 67 74 77 79 81 88 82 90 91 92 96 98 99 99 99 98 99 98 98 99 97 92 91 89 86 88 85 79 71 63 58 52 49
30 33 35 38 47 49 66 71 73 76 77 79 82 84 85 85 84 90 93 95 99 99 99 99 98 99 99 99 98 99 99 99 98 95 90 90 89 84 78 71 62 57 51
30 35 43 47 56 56 61 65 68 71 76 80 85 85 84 85 90 90 93 96 98 98 98 99 96 97 99 99 99 99 99 98 98 99 97 94 92 89 84 77 70 64 58
31 38 43 47 54 57 60 68 69 75 80 83 84 86 88 90 89 91 92 96 97 94 99 95 90 90 92 95 96 98 98 98 98 99 99 98 96 94 89 84 80 74 69

GFSGL_prec_cthk_060.txt.gz
RH
53 58 67 77 75 94 87 80 67 64 63 64 60 55 62 66 68 60 61 61 56 56 53 46 43 44 44 43 44 51 61 65 66 64 66 51 38 32 27 24 23 25 27
61 73 78 80 80 96 77 70 77 60 60 60 61 62 68 72 66 61 63 63 60 57 46 39 40 41 40 45 51 60 65 68 70 52 40 35 31 28 25 25 25 28 31
80 83 84 84 75 70 67 68 68 59 60 57 62 74 77 69 62 63 60 59 56 47 41 42 41 41 45 52 61 67 69 60 52 44 38 35 30 26 27 31 34 36 38
85 79 70 66 64 61 69 68 60 57 62 77 79 73 65 56 57 58 56 54 46 40 38 42 47 52 55 60 67 73 60 50 47 44 40 34 29 30 36 40 42 49 54
67 60 59 59 59 66 70 64 62 80 85 76 65 60 58 55 53 52 51 49 40 36 40 44 50 58 61 66 73 61 49 50 47 45 39 32 31 36 43 49 56 58 60
54 56 58 62 66 66 66 77 89 83 71 63 62 55 51 50 50 47 49 40 33 36 39 47 56 63 66 72 59 49 54 52 50 46 38 32 35 41 46 53 56 62 66
56 59 66 67 67 74 89 83 76 69 62 56 53 48 46 43 41 43 40 36 37 40 46 52 56 61 67 57 51 52 55 54 52 44 36 36 36 40 47 53 64 71 75
66 69 71 74 83 89 79 75 63 59 53 48 42 40 34 34 38 37 37 37 37 45 51 55 58 60 61 55 51 56 53 54 51 43 40 39 38 42 50 61 71 77 80
68 69 78 86 85 80 73 63 56 51 45 41 36 32 33 32 35 37 38 36 41 50 53 56 58 58 57 54 52 56 52 54 49 46 44 45 43 43 52 60 71 80 82
73 80 92 83 80 73 60 52 49 42 40 39 34 33 31 34 38 39 37 39 43 51 55 57 59 54 52 55 52 55 54 53 51 50 48 47 44 46 53 60 72 83 87
88 93 85 78 67 55 47 45 42 40 34 31 28 30 37 38 39 38 39 42 46 54 58 59 62 60 57 58 56 55 55 55 56 55 53 49 45 46 49 61 70 84 90
89 81 69 55 46 44 45 41 35 29 29 29 28 30 37 38 41 43 45 48 51 56 61 63 65 67 65 62 59 57 56 57 59 60 58 53 49 48 47 61 71 77 90
68 55 51 49 42 35 30 28 26 31 31 32 32 34 32 34 41 48 51 56 61 63 71 72 71 71 71 68 70 68 61 60 62 64 64 60 56 52 46 52 73 79 90
52 52 44 33 27 30 28 26 30 34 36 39 42 39 34 33 37 44 51 56 63 67 73 77 79 80 77 74 75 69 63 62 61 67 70 67 62 59 50 47 68 83 81
42 32 28 28 30 29 30 34 37 36 45 53 52 45 41 38 42 47 52 57 65 70 72 77 81 87 84 81 77 70 65 64 62 67 74 75 70 65 55 47 55 84 80
27 27 29 33 36 36 39 40 44 50 53 59 60 61 57 55 54 57 57 58 66 74 74 82 88 89 89 83 79 70 66 65 63 65 73 77 75 68 59 49 49 73 81
26 26 28 32 34 36 41 49 50 42 50 58 68 72 78 74 67 68 69 73 70 76 78 83 90 94 94 88 82 73 69 66 66 65 71 79 78 71 62 52 47 57 82
20 22 24 23 25 30 34 37 40 42 47 47 68 72 83 84 78 79 71 77 76 79 83 87 91 95 98 92 84 78 74 70 69 69 70 78 79 76 65 57 48 51 74
19 19 20 25 31 35 34 33 32 34 33 43 54 77 83 83 77 81 83 78 82 82 85 90 92 96 98 96 85 83 79 77 75 72 72 76 81 78 69 62 53 48 57
21 24 26 26 26 28 25 24 23 29 38 48 65 75 72 72 75 80 79 83 82 83 89 91 93 97 99 99 96 85 83 81 80 78 76 77 83 81 74 65 59 50 50
24 23 24 24 24 24 25 25 28 34 53 66 65 70 77 77 73 76 79 81 83 84 90 93 95 98 99 99 99 98 90 86 85 83 82 80 84 84 79 70 63 55 49
26 28 28 30 31 34 36 38 44 59 68 73 72 76 77 77 81 86 84 83 85 89 91 96 99 99 98 98 99 99 99 97 91 88 87 85 84 86 81 74 67 59 53
25 26 26 29 33 38 43 51 54 66 77 78 78 79 79 79 81 86 87 85 88 90 93 96 97 98 99 99 99 99 98 98 98 96 93 90 88 87 85 79 71 62 58
25 24 24 27 31 36 41 46 53 61 67 70 74 78 78 80 80 88 88 85 87 90 93 97 97 99 99 99 98 99 99 99 99 98 99 97 93 90 88 83 77 69 63
22 23 25 28 32 35 39 43 49 53 57 62 68 72 77 80 85 88 86 89 89 89 93 96 98 99 97 97 98 99 99 99 99 99 98 99 96 94 92 88 82 77 71
23 25 28 31 34 36 39 43 48 54 62 67 73 79 82 88 90 91 90 91 91 91 93 96 98 99 98 94 94 99 98 99 99 99 99 98 98 97 95 93 87 83 80

GFSGL_prec_cthk_063.txt.gz
RH
47 54 62 70 72 75 75 88 96 87 79 68 61 62 59 61 67 77 73 62 57 58 56 52 45 40 38 37 37 39 45 50 54 54 58 59 54 38 34 33 31 28 25
64 69 73 77 80 77 86 83 77 76 66 64 64 62 61 74 79 65 58 59 58 58 55 47 38 38 36 37 42 49 54 58 60 59 55 46 38 37 35 33 33 29 30
81 83 86 88 79 81 77 74 66 61 65 65 65 70 77 69 66 64 56 56 55 52 47 40 36 35 37 43 50 58 62 66 71 57 45 40 40 38 36 34 31 33 37
89 87 88 85 81 72 60 60 64 69 66 67 77 76 71 65 59 57 54 50 48 44 41 36 33 34 41 48 58 63 69 73 58 50 44 43 41 40 37 34 31 37 40
87 88 80 69 61 56 58 67 69 67 77 83 78 70 62 56 52 49 45 43 43 42 36 32 32 36 44 54 64 68 72 59 52 50 50 46 43 39 38 34 36 38 44
88 76 66 60 59 63 67 69 70 86 84 76 68 60 53 49 43 38 38 39 41 34 32 32 35 42 50 57 62 65 58 54 56 53 50 48 44 41 37 36 40 46 50
66 60 59 62 67 67 69 78 89 79 73 66 60 52 45 39 36 32 35 37 36 34 32 36 42 46 51 56 61 62 57 57 54 54 50 49 45 41 40 38 41 50 58
58 61 65 71 72 77 85 90 79 71 66 59 47 38 37 37 29 29 34 37 39 35 34 40 47 51 55 58 62 60 57 58 55 54 51 49 47 45 44 42 44 49 58
65 68 72 75 83 93 86 83 74 62 51 42 36 36 36 23 28 32 35 39 40 36 38 45 51 55 58 60 59 57 59 55 54 52 52 52 51 50 47 43 42 49 58
70 75 80 84 95 87 80 68 55 44 39 35 28 26 24 25 29 33 38 44 41 40 44 47 54 57 62 64 61 60 60 56 53 54 57 56 56 56 51 49 45 49 63
75 82 91 90 84 73 57 48 41 37 29 23 24 24 27 28 28 34 43 46 42 45 48 51 56 60 65 69 68 66 63 62 55 57 58 60 61 61 57 55 51 49 62
87 90 85 74 61 48 41 34 26 22 23 24 24 26 32 32 36 40 41 42 46 48 51 58 67 71 73 75 75 73 68 67 65 62 59 61 64 65 63 59 55 49 58
79 71 64 51 42 35 26 24 23 26 27 27 30 33 36 43 47 45 41 40 45 50 53 60 70 75 79 81 80 81 80 76 72 65 62 61 66 68 69 65 59 48 56
67 56 44 36 28 25 25 26 28 31 35 38 42 46 44 45 49 52 50 48 49 56 62 64 69 77 82 86 86 85 86 84 77 69 64 62 66 71 74 68 60 49 50
46 35 29 25 24 24 24 27 31 32 41 48 50 54 50 49 53 61 69 65 62 64 67 67 73 79 83 88 90 91 89 87 77 70 66 63 65 72 76 71 63 51 45
31 26 22 20 20 20 20 19 24 26 28 32 35 42 45 49 59 74 80 77 75 76 73 68 74 81 86 90 93 98 94 87 77 74 68 65 65 70 77 72 66 54 44
21 18 17 16 15 16 18 20 22 19 26 23 22 25 27 43 53 87 90 89 85 86 80 78 74 83 87 92 94 98 94 89 82 77 71 68 68 69 76 75 68 57 48
16 15 15 16 18 19 19 21 25 24 20 15 12 23 31 36 50 79 89 89 84 84 87 87 79 85 89 92 95 99 95 89 83 78 76 72 70 71 74 77 70 60 51
16 17 19 19 19 21 22 23 24 25 25 25 26 34 48 56 56 66 81 88 83 83 88 87 86 88 91 92 96 99 97 89 86 82 80 77 74 73 77 81 72 63 54
20 20 20 20 21 22 26 28 29 31 33 41 43 56 64 67 64 69 75 78 80 83 85 89 90 91 91 94 98 99 99 95 88 85 82 81 79 77 82 82 74 66 57
20 19 20 20 22 26 29 30 32 39 41 47 57 63 69 76 77 77 74 75 82 89 87 88 90 92 93 98 99 99 99 98 94 90 88 85 83 81 82 84 77 70 62
20 20 20 21 23 23 25 28 30 34 44 51 53 63 71 77 79 79 80 82 81 84 89 90 91 92 98 99 99 99 99 99 98 98 95 91 88 86 83 85 80 73 66
22 21 22 23 23 24 25 28 30 33 36 39 50 60 66 75 77 79 81 83 85 87 89 87 89 92 97 97 98 99 99 99 99 99 98 97 93 91 87 86 84 77 70
24 25 25 25 26 26 28 30 32 35 37 39 42 48 54 66 76 79 81 84 84 83 90 91 89 92 97 97 96 97 99 99 99 99 99 98 99 97 92 89 88 81 75
29 29 28 28 27 28 30 32 35 37 40 42 45 50 56 65 70 78 81 85 90 90 92 91 92 93 96 98 99 98 98 99 99 99 99 98 99 98 96 93 92 86 80
33 32 31 30 30 31 33 34 37 39 43 46 50 53 58 66 77 81 89 91 94 96 92 94 96 93 95 98 97 98 96 98 99 99 99 98 98 98 98 96 94 89 85

GFSGL_prec_cthk_066.txt.gz
RH
47 50 53 58 68 76 82 77 82 80 81 82 74 60 61 66 65 67 77 72 66 64 57 52 47 44 36 34 30 30 33 39 44 46 50 55 58 57 43 37 33 32 34
56 62 66 83 84 86 81 88 97 94 88 61 64 67 70 66 73 81 73 69 60 55 50 48 44 38 30 31 31 35 39 47 51 51 56 61 56 46 39 34 35 38 39
74 76 87 85 92 88 84 94 87 67 56 63 76 70 73 80 81 74 67 60 55 49 45 44 36 32 34 31 34 40 44 51 55 57 60 54 46 43 37 38 40 41 38
80 85 87 91 91 87 86 81 62 59 65 71 70 79 84 82 73 65 56 50 41 41 44 37 33 35 34 34 36 43 49 55 61 62 56 48 45 42 42 43 42 39 35
81 84 95 98 88 83 80 67 62 70 71 71 84 87 80 70 64 54 43 33 33 36 32 32 33 35 38 38 41 46 53 57 60 57 53 52 49 47 46 46 44 38 34
88 94 96 87 84 80 68 65 74 71 77 85 83 75 68 67 51 39 32 28 27 26 30 33 35 39 41 42 46 47 51 55 59 56 56 52 49 50 48 49 46 40 40
86 79 71 72 71 66 68 72 74 82 87 81 73 68 62 44 36 32 25 24 24 28 34 35 39 39 42 44 47 49 53 57 60 59 56 56 52 50 52 51 46 45 42
63 65 67 65 68 72 75 85 85 85 83 77 66 50 36 30 23 21 22 23 28 34 36 42 43 40 44 48 49 51 54 58 60 60 58 55 51 53 55 52 50 46 43
62 65 66 70 76 77 86 86 86 83 70 54 42 31 22 18 20 21 22 24 30 36 44 47 43 41 47 51 50 54 57 59 61 63 61 55 52 56 58 57 57 54 46
64 69 72 81 81 87 87 86 73 57 45 34 23 20 18 17 21 23 25 29 34 41 43 45 45 44 46 55 58 59 62 66 68 68 64 60 57 60 60 61 62 60 55
70 72 81 83 85 83 74 61 50 38 26 20 19 19 21 24 26 29 35 40 41 39 39 39 46 51 52 59 67 69 69 75 74 71 70 68 66 64 61 64 66 65 61
79 81 81 80 73 64 56 44 32 25 22 21 22 23 25 32 41 45 46 46 44 43 40 42 51 58 66 68 71 74 79 81 80 81 79 74 71 66 64 65 69 68 65
82 77 71 66 61 50 36 28 24 22 22 23 26 27 29 33 38 47 50 50 50 53 51 53 60 67 75 75 78 79 83 86 86 90 83 78 74 69 65 65 71 71 67
71 67 63 53 40 31 28 23 20 19 20 22 23 22 23 22 24 24 29 45 54 64 60 71 74 76 76 77 78 83 85 88 91 94 89 83 77 70 66 65 70 72 68
63 54 45 35 27 22 16 14 14 16 17 18 21 24 24 20 15 19 27 35 42 71 84 85 84 85 80 81 82 84 86 91 93 98 94 85 79 72 66 65 68 72 70
49 41 33 26 19 15 13 14 16 15 15 15 16 18 15 21 23 25 31 35 47 66 89 98 92 87 87 85 83 85 88 93 94 99 96 85 79 73 68 67 67 72 71
40 31 23 18 15 15 16 15 13 11 14 16 19 22 26 31 35 39 43 41 48 70 92 97 88 92 96 92 86 88 91 93 95 98 95 86 81 76 70 69 68 73 72
29 23 19 17 17 17 17 18 19 21 20 17 19 27 29 34 44 52 60 66 70 78 88 89 88 87 93 91 88 91 93 94 97 98 92 87 82 79 74 70 70 78 73
25 21 20 19 18 18 18 20 22 23 25 27 28 26 32 40 47 58 63 70 73 69 74 77 79 81 89 88 90 93 93 96 98 97 93 88 85 82 78 75 74 81 75
24 21 20 19 18 18 19 21 22 24 26 27 28 30 36 39 49 59 67 74 77 78 75 74 82 88 88 89 92 93 95 99 99 98 96 92 89 85 82 80 78 83 76
24 22 21 21 20 20 22 24 26 28 27 27 29 31 33 38 51 62 65 75 78 79 80 81 83 89 88 90 93 94 98 99 99 99 97 94 93 89 86 83 80 84 78
25 25 24 23 23 24 25 27 29 29 29 28 29 30 33 37 40 49 63 74 78 83 85 86 85 84 89 91 92 95 98 99 99 99 99 97 98 96 90 87 83 84 80
28 28 27 27 27 28 29 31 31 30 30 31 31 32 35 38 41 45 51 62 77 84 89 90 90 88 88 92 93 97 98 99 99 99 99 99 99 99 96 93 87 85 82
32 31 30 30 31 32 33 34 33 31 33 33 33 36 39 42 45 48 53 62 69 75 83 89 90 88 90 91 94 98 99 97 98 98 99 98 99 99 99 98 92 88 84
34 34 35 36 36 36 36 36 34 34 35 35 37 39 42 45 47 50 51 60 70 79 87 90 92 94 95 97 94 97 99 99 99 99 99 97 99 99 99 99 96 92 88
39 41 41 39 40 40 38 36 36 36 36 36 38 39 41 42 46 49 54 56 59 71 83 90 96 96 93 96 97 97 97 98 99 99 99 97 99 99 99 99 97 95 90

GFSGL_prec_cthk_069.txt.gz
RH
48 50 56 58 62 71 81 86 91 92 95 97 95 90 72 61 69 70 68 72 74 69 64 59 49 38 34 28 25 27 32 37 42 41 43 44 46 51 55 44 40 35 32
51 58 63 66 72 84 89 92 92 95 96 94 81 68 69 69 72 72 75 75 69 64 57 45 37 35 29 26 27 32 39 44 45 44 50 47 49 56 47 40 36 34 32
72 77 82 88 92 93 95 98 90 93 88 83 70 72 69 74 75 76 76 68 63 53 40 35 31 28 26 28 34 37 43 45 47 47 51 50 52 51 44 42 39 37 38
86 88 92 94 95 93 94 97 87 83 83 79 70 68 77 80 80 75 67 64 49 31 26 24 26 26 26 31 38 41 44 48 48 50 52 54 54 48 47 45 44 45 48
85 87 92 93 90 96 97 92 80 81 79 65 71 79 80 75 73 67 60 41 26 19 19 22 25 26 29 34 38 46 50 49 50 51 52 53 55 54 53 47 46 49 52
82 89 78 78 99 92 76 70 79 73 68 79 81 82 75 74 63 49 30 21 18 17 19 23 26 30 33 37 42 48 52 52 52 52 53 56 57 58 53 51 51 53 54
69 66 66 68 67 58 60 71 64 72 79 79 78 74 67 55 39 24 20 18 17 17 22 26 29 34 40 44 46 49 49 51 53 55 57 61 58 59 54 52 53 57 59
61 63 66 61 60 63 72 69 81 83 78 75 70 58 50 33 22 19 18 18 18 20 23 29 37 41 45 47 47 47 50 52 55 57 58 61 61 60 55 55 56 59 61
60 61 62 64 64 70 77 78 77 74 70 61 54 43 28 21 19 19 20 21 22 25 30 35 40 40 42 46 46 47 53 56 61 62 63 66 66 64 59 59 59 65 63
58 60 62 68 74 74 76 74 68 62 57 49 37 27 24 23 23 25 29 34 36 38 35 34 35 36 39 47 51 55 58 69 72 72 71 73 72 68 65 65 65 62 65
62 66 67 69 77 74 70 62 61 53 44 34 27 24 23 23 24 28 32 37 36 36 40 36 31 40 45 52 60 62 68 74 76 78 79 82 78 78 76 72 68 64 64
63 69 78 76 68 62 60 56 49 42 33 27 23 20 17 15 14 13 13 16 27 34 40 41 50 48 59 64 70 72 76 79 75 79 83 88 90 88 85 78 71 65 65
77 79 67 63 62 58 51 46 39 29 22 18 16 14 13 14 18 18 17 17 15 22 28 32 50 55 70 76 81 82 84 84 82 80 84 91 93 96 89 81 72 66 65
69 66 65 61 54 48 42 35 26 20 19 19 19 17 14 17 20 20 21 22 23 28 29 31 48 49 76 88 97 90 86 88 85 81 85 94 96 98 93 85 73 69 66
68 63 57 51 46 42 35 25 22 22 19 17 16 17 19 20 22 24 28 29 32 35 35 35 51 56 76 93 98 92 90 86 84 84 88 94 96 99 94 85 74 69 66
60 56 50 46 42 33 26 25 23 19 16 16 18 19 22 24 25 27 29 35 42 48 44 51 66 70 89 97 98 97 93 88 88 88 91 94 98 99 93 84 76 71 69
55 51 48 42 34 29 27 25 20 17 16 16 17 19 23 27 29 29 32 35 44 50 64 72 77 88 89 90 90 92 90 89 90 90 93 96 99 98 91 84 78 72 70
53 50 43 38 33 30 28 24 19 17 16 17 19 20 22 22 24 27 29 36 43 55 64 68 71 76 81 82 86 88 88 89 89 94 95 98 99 95 91 84 82 75 73
49 46 43 40 35 32 28 22 20 19 19 19 20 21 22 22 21 22 27 36 47 54 63 67 74 75 73 76 81 87 89 87 91 94 96 99 98 95 91 88 84 78 75
51 47 43 41 36 31 26 24 23 23 24 24 25 25 24 22 20 22 24 26 38 51 60 67 74 78 79 82 89 87 86 90 93 94 98 99 99 97 93 90 86 82 80
51 47 44 39 34 29 28 27 27 28 29 30 31 31 30 27 26 28 29 30 33 37 51 62 74 77 83 88 88 89 89 92 93 96 99 99 99 97 96 93 90 83 81
50 46 42 38 33 33 32 32 32 34 36 35 34 34 32 31 32 32 33 35 38 42 48 51 68 80 89 90 90 90 92 94 95 97 99 99 99 98 99 98 93 88 83
48 46 43 39 38 37 37 37 39 41 42 40 39 36 34 34 34 35 36 38 40 43 50 59 65 73 88 91 94 94 91 96 98 99 99 99 98 99 99 99 97 94 86
51 48 45 43 42 41 42 44 45 45 44 43 42 38 37 35 34 35 36 38 43 47 48 54 66 77 81 90 95 96 95 94 95 99 98 99 99 99 99 99 99 98 90
54 50 47 46 45 46 49 49 47 47 46 44 40 39 37 35 35 36 37 38 40 42 48 53 58 71 84 90 93 95 96 96 99 99 99 99 97 99 99 99 99 99 94
56 52 52 52 51 51 51 49 49 47 44 43 41 38 37 38 39 40 41 42 43 45 47 49 54 59 74 86 92 94 94 98 97 99 99 99 99 98 99 99 99 98 96

GFSGL_prec_cthk_072.txt.gz
RH
57 59 63 66 68 73 80 85 88 86 93 97 97 97 97 91 77 71 70 68 69 72 70 66 63 53 44 36 34 34 36 40 40 36 42 51 55 53 50 49 48 42 34
69 66 64 66 72 78 85 90 94 98 99 97 97 95 94 86 75 77 75 72 74 73 69 64 51 42 35 32 34 36 40 42 46 43 48 57 64 56 52 51 51 42 36
67 65 67 76 84 92 94 94 98 97 95 98 98 93 86 86 79 77 77 76 72 67 59 42 35 33 31 31 34 38 42 46 51 54 53 58 57 58 54 52 50 47 44
68 75 83 88 84 89 93 98 89 95 98 94 94 88 85 74 73 77 73 67 63 51 33 27 25 29 30 30 33 39 43 46 51 55 55 56 59 59 59 56 54 54 48
74 77 83 83 83 92 88 84 89 95 91 90 87 82 77 76 77 69 61 56 46 32 26 25 29 28 24 25 29 35 45 54 53 55 57 59 58 58 61 62 62 56 52
72 80 77 69 71 73 70 68 80 79 79 77 71 72 74 72 64 54 50 40 30 26 24 28 30 32 34 33 34 36 38 44 49 58 61 60 62 63 67 69 68 62 56
69 72 68 63 65 68 65 63 62 66 69 69 70 69 65 60 56 47 37 26 24 24 23 28 32 34 39 41 40 38 35 35 42 50 58 65 67 71 71 70 66 66 64
67 64 63 64 64 65 64 61 69 75 75 74 70 60 59 56 44 36 26 24 25 25 30 34 34 33 38 39 40 42 43 47 50 55 61 67 75 79 76 75 74 70 65
58 61 64 60 61 62 65 76 76 74 70 60 58 58 53 47 38 28 28 29 30 28 31 30 30 37 40 41 42 41 44 52 61 63 70 73 76 75 74 76 78 75 70
53 54 56 59 62 72 73 74 74 62 57 60 56 51 44 35 31 28 26 25 21 22 23 29 31 32 33 51 54 50 52 60 72 74 71 70 72 76 75 76 81 80 76
54 55 62 66 68 72 73 64 58 60 58 51 45 39 31 24 23 20 16 14 18 19 20 19 20 30 34 35 55 64 57 75 77 82 83 84 81 80 81 85 88 86 81
59 62 64 68 75 67 61 60 60 55 47 41 34 27 26 27 24 23 18 17 19 22 21 21 22 26 29 32 47 60 68 80 86 91 91 89 88 85 85 92 95 91 85
61 66 72 68 64 62 62 57 51 44 40 34 30 33 33 29 28 25 23 22 21 25 27 27 28 29 30 32 52 53 74 88 93 98 96 90 90 87 88 94 97 96 88
70 72 68 67 64 60 55 50 44 41 36 33 34 34 33 30 28 24 21 22 24 28 31 34 36 34 34 37 51 62 79 88 96 96 96 94 91 88 90 95 99 99 88
72 72 68 61 57 53 48 46 42 38 35 33 34 34 31 29 26 22 21 22 25 28 30 34 42 50 51 60 65 75 87 87 91 92 91 92 88 91 93 96 99 99 87
70 64 59 57 54 51 48 46 42 40 37 35 31 26 24 23 22 20 20 22 24 26 30 39 45 55 62 69 77 84 88 89 87 85 84 84 89 93 96 98 99 97 85
64 60 56 54 53 49 46 49 51 50 41 34 29 27 25 24 22 21 21 22 23 25 32 40 48 53 59 69 78 84 88 85 86 88 87 85 90 95 97 99 99 92 84
62 58 57 56 51 50 49 48 49 50 45 42 39 30 27 26 26 26 26 26 28 29 30 37 45 55 61 65 71 74 82 87 84 84 89 87 92 96 98 99 98 92 85
66 61 57 54 53 51 49 48 51 46 44 44 43 40 34 30 31 34 34 37 33 30 29 31 38 50 62 66 75 79 80 82 85 89 87 91 94 97 99 100 97 91 87
61 59 59 57 55 52 50 48 50 46 46 47 45 43 37 34 42 42 42 39 36 33 33 32 33 37 54 67 74 80 87 90 90 90 89 93 96 98 99 99 98 94 88
63 62 60 57 55 53 50 48 52 49 50 50 48 45 39 40 45 44 42 40 37 37 36 35 37 40 44 54 77 81 90 92 94 94 93 96 98 99 99 99 99 94 92
66 62 60 59 56 54 52 50 51 53 53 51 48 48 43 45 47 46 43 41 40 38 39 41 42 44 50 54 57 79 90 94 99 97 99 98 99 99 99 99 99 98 93
65 64 62 61 61 59 56 53 53 54 52 50 49 49 47 48 46 44 42 41 38 38 36 37 39 44 48 58 65 70 88 94 99 98 99 99 99 99 99 99 99 99 98
68 68 68 67 65 62 60 57 55 54 51 51 50 50 48 46 44 44 42 40 38 39 40 39 38 40 46 51 64 75 81 92 99 98 96 98 99 99 99 99 99 99 99
73 72 71 69 67 64 61 62 61 57 54 52 51 47 46 45 44 43 43 43 43 44 44 43 43 45 46 50 56 73 84 91 97 98 97 92 94 99 99 99 99 99 99
76 74 72 69 68 66 64 62 59 56 52 48 44 44 43 42 43 46 48 49 50 49 48 48 49 51 51 50 52 63 81 91 97 98 93 89 87 99 99 99 99 99 99

GFSGL_prec_cthk_075.txt.gz
RH
64 64 63 68 66 71 74 76 81 90 98 94 94 95 98 98 97 97 93 90 91 85 76 70 72 69 66 50 43 43 40 38 38 34 38 40 44 49 59 63 63 59 53
63 65 72 72 73 74 74 77 89 98 99 98 98 94 95 97 96 95 94 91 89 83 76 74 68 63 50 38 36 38 37 38 44 41 37 42 53 58 57 65 58 54 51
72 68 71 73 68 71 80 86 88 90 98 96 97 98 98 97 95 94 92 87 83 75 71 66 57 44 36 34 34 37 38 40 42 47 45 50 54 48 51 59 57 55 55
59 62 66 63 68 80 84 83 80 85 83 96 97 94 97 94 89 91 90 84 71 63 58 51 43 35 33 32 31 36 41 44 45 46 45 50 45 39 56 64 67 71 67
59 61 67 72 79 84 88 84 72 78 78 79 69 77 80 69 70 72 69 63 54 50 45 41 35 33 33 31 32 31 34 35 37 42 42 49 44 59 69 76 79 79 76
58 65 73 79 83 83 81 73 71 73 74 70 76 64 67 70 69 61 51 44 46 41 35 32 32 33 35 38 40 41 41 40 39 44 43 44 52 74 79 78 79 82 73
75 76 79 79 82 80 74 72 71 70 70 64 64 69 71 67 58 51 47 43 38 34 30 29 31 31 32 37 40 41 47 52 55 56 49 43 52 67 75 75 75 78 76
77 77 77 77 72 73 69 67 66 65 65 68 71 69 63 56 54 50 44 38 32 33 32 32 34 33 34 41 42 42 46 48 64 64 51 49 58 65 75 79 78 77 73
70 69 67 68 68 66 66 66 63 68 69 73 67 61 58 59 56 47 40 35 35 32 30 27 26 28 28 31 33 37 36 30 54 67 56 63 67 73 77 81 80 80 73
55 56 58 58 60 59 58 64 66 69 66 62 61 61 58 52 49 44 38 36 29 25 23 24 23 22 21 20 25 30 36 42 50 72 72 62 74 79 81 84 82 79 80
44 48 51 53 55 61 65 65 65 61 63 64 61 54 48 45 42 38 34 30 28 24 20 21 24 24 24 24 25 27 28 34 39 53 77 80 88 91 87 81 79 81 82
48 50 55 57 62 66 68 65 64 64 65 62 53 47 48 46 45 42 39 33 27 24 24 26 28 26 25 27 28 28 31 31 48 64 63 85 95 98 95 90 86 81 86
54 58 59 62 67 67 66 68 66 62 60 57 52 52 50 47 47 45 41 29 25 24 24 26 26 25 28 33 32 34 34 37 52 54 70 84 92 98 96 92 86 86 90
61 62 67 71 70 69 68 65 60 59 55 52 54 52 52 50 48 43 32 28 27 27 28 27 28 34 45 47 46 51 49 50 59 68 81 86 90 93 92 90 86 91 93
68 70 73 71 70 65 62 57 56 53 51 47 48 46 47 44 46 36 32 31 31 30 30 33 40 40 40 41 48 60 63 64 73 77 82 82 85 85 85 87 89 93 95
77 76 74 72 68 66 63 59 55 53 49 48 47 47 45 43 39 36 35 34 34 33 34 45 40 36 38 42 47 53 68 76 80 84 85 85 83 84 84 86 89 94 97
81 74 70 67 66 63 61 63 60 60 59 55 54 51 46 43 40 39 38 37 38 40 41 46 40 35 37 39 50 56 62 69 86 86 85 83 88 87 88 89 92 96 98
74 71 71 68 67 68 67 64 65 65 63 60 58 57 53 47 43 41 41 41 46 44 45 46 46 39 33 34 42 53 66 66 76 84 89 90 88 89 89 90 94 97 99
76 71 74 70 66 63 64 65 65 67 65 63 61 62 63 55 46 47 50 46 44 45 48 47 45 39 35 34 34 42 60 70 78 83 88 87 91 90 91 93 97 98 99
83 75 72 70 71 71 70 67 69 69 68 66 65 65 63 55 49 52 52 50 47 48 46 43 42 40 38 38 39 40 44 69 80 89 90 92 94 93 95 97 98 99 99
80 76 76 76 71 69 66 70 72 72 72 70 69 69 61 57 52 53 55 53 50 46 43 42 41 39 40 42 43 46 49 54 77 90 92 97 99 95 98 98 99 99 99
80 79 75 72 71 73 75 70 75 74 74 72 70 66 59 57 57 55 54 53 46 44 45 41 39 40 41 42 46 48 53 58 64 84 92 99 99 99 99 99 99 99 99
78 77 75 77 77 77 77 77 76 74 72 67 62 61 60 58 55 52 49 47 46 44 42 43 43 46 46 45 44 46 52 61 69 75 90 99 99 98 99 99 99 98 99
77 77 81 83 83 77 79 77 73 68 65 64 62 61 58 55 49 47 47 47 44 44 46 49 51 51 50 47 47 48 50 58 71 78 88 98 99 99 99 99 99 99 99
88 89 88 86 83 79 74 69 67 67 64 61 58 51 47 45 47 47 46 46 48 52 54 56 55 52 52 51 51 52 53 55 66 79 87 96 99 98 98 98 99 99 99
92 87 83 80 75 69 66 65 63 58 52 46 42 43 45 46 46 48 51 55 57 59 59 58 57 57 56 56 58 58 56 56 60 79 89 95 96 98 93 97 99 99 99

GFSGL_prec_cthk_078.txt.gz
RH
59 59 61 64 70 75 74 77 80 84 81 83 90 98 98 98 98 96 97 97 94 94 94 90 89 81 71 67 52 43 40 38 37 32 32 32 34 36 37 39 45 49 53
63 64 61 73 77 75 80 82 80 79 83 82 82 91 95 98 98 97 97 96 96 93 90 81 79 73 63 51 47 42 38 35 40 39 39 41 41 44 47 48 43 45 48
69 73 70 74 76 79 75 74 76 85 89 87 83 78 80 87 88 97 95 83 86 88 76 71 66 58 48 46 39 37 36 38 44 44 40 39 41 46 48 45 46 50 47
64 62 69 80 72 74 79 77 86 92 93 92 76 71 89 74 74 67 73 78 71 69 71 60 51 46 42 34 33 34 35 35 37 38 39 40 46 43 42 42 44 52 67
60 67 62 65 70 79 83 87 93 95 96 82 79 76 75 71 68 66 62 68 70 64 53 49 46 39 35 37 36 34 33 32 34 38 38 40 45 42 47 41 51 70 74
59 61 65 71 72 79 89 89 90 92 86 78 73 74 75 73 62 66 69 68 59 52 46 42 35 33 34 33 34 33 34 38 42 45 48 55 54 56 58 48 56 77 79
55 60 67 72 84 85 84 88 86 81 78 73 74 71 65 63 69 69 61 56 54 47 42 37 37 37 35 35 36 36 35 38 44 48 52 52 55 55 64 49 54 72 70
58 63 68 77 84 84 80 78 79 76 73 72 70 66 69 69 64 61 62 56 50 45 41 42 40 36 35 34 31 30 32 34 37 46 46 46 54 48 71 61 62 68 70
58 63 68 71 73 74 73 73 71 68 72 68 68 68 67 62 62 64 60 54 50 44 42 38 33 31 29 27 28 27 25 23 21 25 30 37 44 44 75 70 71 79 72
51 54 59 60 61 62 62 63 64 64 65 66 68 67 65 62 64 61 54 48 43 39 37 35 32 29 27 28 32 33 32 29 32 26 24 37 42 57 76 67 82 83 84
48 48 50 53 54 56 59 62 65 67 66 68 67 65 65 64 56 51 47 45 41 40 38 35 33 30 30 33 35 38 39 41 36 34 30 26 27 43 62 69 83 90 90
45 46 48 52 56 59 61 67 69 69 69 69 70 67 61 58 54 50 49 47 47 44 39 36 33 32 31 32 35 40 47 47 43 38 31 36 49 60 57 78 84 85 89
50 53 56 59 61 66 69 73 70 70 72 71 68 63 61 58 56 56 55 54 48 42 38 36 34 34 35 41 47 47 47 48 50 50 45 42 57 67 77 83 87 90 87
58 62 66 68 68 72 73 72 73 73 71 70 65 62 60 58 55 53 51 47 45 42 40 39 38 40 44 43 40 38 41 45 57 59 58 60 66 73 82 88 89 88 84
71 75 77 78 79 78 77 74 70 69 68 65 63 61 57 55 53 51 50 48 46 45 44 42 42 49 43 37 31 35 41 50 53 72 71 71 76 81 83 87 86 84 80
83 83 88 85 80 80 75 70 72 68 67 67 62 58 57 57 55 54 53 52 49 47 46 46 51 49 41 35 35 36 39 45 57 64 72 87 88 88 87 88 88 87 84
90 88 85 82 80 76 76 75 79 80 75 70 68 67 66 65 62 59 57 54 51 54 54 52 50 45 43 41 39 38 34 37 46 59 68 90 96 87 87 89 89 89 85
90 87 87 83 79 78 83 82 73 71 78 79 75 73 72 72 70 65 60 58 59 57 53 50 50 48 46 44 41 38 37 34 35 45 64 74 85 89 89 94 99 90 89
90 90 87 91 91 83 76 76 82 81 77 74 75 75 77 74 71 69 62 62 58 50 49 50 49 49 46 43 42 41 39 38 38 40 55 71 80 85 91 94 95 92 93
96 96 92 88 83 84 87 85 79 79 81 79 79 78 77 75 70 62 55 55 54 54 53 50 48 45 44 44 42 40 42 44 45 48 50 71 82 90 94 96 98 98 97
97 93 86 88 89 85 81 80 80 81 81 81 79 78 75 69 62 55 55 55 56 55 50 46 45 45 44 43 43 43 44 45 50 53 53 61 85 91 98 98 99 99 99
88 92 92 86 84 83 82 82 81 82 81 81 77 73 70 64 60 59 57 55 53 50 46 44 45 44 45 46 47 50 50 49 47 49 57 62 78 92 99 99 98 99 99
92 87 85 83 82 84 83 86 87 81 76 74 70 65 62 60 59 55 51 45 44 45 46 46 46 48 51 55 57 56 54 51 48 48 52 63 71 90 99 99 99 99 99
84 84 87 91 93 89 84 81 78 76 74 68 63 57 50 44 41 41 43 45 46 48 49 51 54 59 61 62 61 58 56 54 51 51 53 61 71 84 98 99 99 99 99
94 93 90 85 80 76 74 69 63 55 48 42 39 39 40 42 45 46 48 50 52 56 58 61 63 64 64 65 63 62 61 60 59 58 56 59 74 81 98 99 98 99 99
78 75 70 63 55 46 39 36 36 38 40 41 43 44 47 50 53 54 55 58 61 63 64 64 66 68 69 67 67 66 65 66 65 63 59 61 77 84 97 99 99 99 99

GFSGL_prec_cthk_081.txt.gz
RH
68 55 53 56 63 70 64 76 78 80 85 83 79 79 78 79 85 79 88 95 97 95 92 96 96 85 76 66 64 58 49 48 40 36 37 36 38 42 43 44 48 54 56
56 62 72 56 69 77 82 79 81 81 86 79 77 84 81 83 77 71 74 75 78 74 71 77 72 71 68 67 59 56 52 42 43 42 41 40 43 47 47 47 48 53 57
62 62 61 64 75 82 96 92 86 86 86 82 86 92 89 86 72 79 83 72 76 71 69 69 72 70 66 62 57 48 41 44 45 41 39 40 42 47 48 49 47 46 46
50 63 57 61 66 90 80 78 83 85 85 88 86 92 92 82 77 76 75 72 79 72 67 70 71 68 61 50 43 39 42 43 41 40 38 36 36 36 41 43 40 51 45
53 59 67 70 76 83 74 80 82 89 87 90 87 89 89 80 71 75 69 76 67 67 70 71 69 60 48 43 42 45 45 41 40 39 40 40 39 40 44 47 57 53 45
54 55 55 61 67 69 76 81 83 86 90 89 86 81 82 76 70 83 70 64 69 74 75 70 59 46 42 41 42 41 42 43 42 43 42 45 43 45 50 54 56 65 58
46 51 56 59 64 71 75 77 88 90 85 81 81 78 71 78 75 79 67 75 79 76 68 57 50 45 44 44 44 44 43 42 42 44 44 44 45 45 48 48 46 58 54
43 46 51 56 62 63 68 75 78 81 82 81 76 73 77 69 69 69 75 76 71 63 58 54 52 51 49 46 41 38 35 34 33 32 32 31 32 32 34 40 38 52 53
49 50 53 56 61 66 70 71 72 73 72 70 70 70 69 68 70 74 72 66 62 63 60 56 53 49 46 43 39 35 33 33 33 36 39 39 38 36 36 40 48 52 72
44 46 47 49 55 58 57 60 61 61 66 69 69 68 69 74 74 71 68 67 66 63 56 50 48 48 46 44 41 38 36 36 38 39 42 41 40 33 30 31 38 57 77
44 46 46 45 48 50 53 58 60 64 66 70 71 74 76 73 72 70 68 64 59 56 53 50 49 48 47 45 43 43 46 45 46 48 45 41 36 33 31 35 49 48 59
45 44 43 49 52 54 58 63 64 69 76 78 81 80 73 73 71 70 64 60 57 59 57 52 51 50 47 46 47 51 52 52 51 48 45 43 42 45 41 45 52 60 72
49 46 50 54 59 66 72 74 78 80 83 86 82 77 74 69 69 70 67 66 63 61 57 54 52 50 49 50 50 49 47 45 43 41 41 47 54 54 54 52 61 72 80
59 58 63 69 73 77 81 85 88 88 84 83 78 72 72 76 74 73 71 68 61 58 57 56 54 52 54 57 54 47 41 38 37 42 48 51 56 62 64 69 73 79 85
71 73 76 78 81 84 88 92 91 85 81 77 76 78 76 78 73 69 65 63 61 60 60 59 58 59 61 58 51 43 34 32 34 38 44 55 55 72 68 80 83 87 90
80 82 85 87 88 91 92 88 87 81 78 80 75 83 75 72 70 71 70 69 67 65 63 64 66 66 61 52 44 37 36 35 35 34 35 40 55 62 73 93 91 90 88
88 91 92 95 96 93 91 90 88 89 95 95 83 79 86 88 81 79 78 74 70 68 70 71 67 60 52 44 41 41 39 37 36 35 34 33 38 59 79 92 96 94 91
93 95 97 97 96 94 90 95 96 93 87 90 94 92 87 85 82 82 81 78 74 72 70 63 57 50 48 47 45 42 39 38 37 37 36 36 37 42 60 91 97 93 89
97 97 97 97 97 97 96 91 88 93 96 95 92 88 87 87 87 85 83 79 72 69 62 55 52 52 50 47 44 41 38 37 38 38 40 42 44 45 56 85 97 94 87
96 96 97 97 96 96 96 97 96 93 92 94 91 90 90 90 88 83 78 69 66 61 58 56 56 54 48 44 41 40 40 40 41 41 41 48 52 53 61 75 84 91 93
96 96 96 96 96 97 96 95 92 93 91 89 90 91 90 82 75 71 66 63 60 58 54 49 44 41 40 42 42 43 44 45 47 49 50 48 51 55 59 81 90 94 99
96 97 96 94 92 90 89 87 86 89 90 86 79 73 72 69 63 59 55 51 47 43 40 40 42 43 45 46 48 50 52 55 57 57 54 50 47 53 60 81 92 99 99
91 89 88 88 88 90 91 86 78 74 71 68 67 63 56 49 44 40 38 39 40 42 44 47 48 50 52 55 59 61 61 63 63 59 56 51 48 51 64 77 93 99 98
91 91 90 85 77 73 70 66 60 55 48 42 37 36 36 38 39 41 42 44 46 49 52 54 55 56 59 62 65 68 68 67 65 62 59 54 52 52 65 75 95 99 99
76 69 63 56 47 40 35 33 32 32 34 36 38 39 41 42 44 46 48 50 53 54 56 58 60 61 62 67 71 72 72 70 68 66 63 61 58 56 64 74 92 99 99
39 33 31 31 30 30 30 32 35 37 39 41 43 44 46 49 51 52 53 56 58 60 62 63 63 63 69 74 76 76 74 72 71 70 68 66 63 59 65 74 90 99 99

GFSGL_prec_cthk_084.txt.gz
RH
59 52 55 54 52 56 61 64 69 71 78 85 90 92 91 85 85 83 82 85 72 71 71 78 78 74 69 70 71 69 66 63 57 51 44 38 39 40 39 41 40 44 48
64 54 52 56 68 78 67 74 84 92 92 92 90 94 89 82 85 87 83 84 72 72 70 70 78 77 71 69 68 68 67 64 55 46 41 41 42 42 40 42 42 47 46
55 58 56 52 56 60 64 75 89 94 84 89 91 90 87 85 87 90 89 84 72 78 75 71 76 73 68 68 70 70 67 60 50 43 41 41 42 42 42 41 40 43 45
43 43 44 44 53 58 70 89 98 85 77 79 86 86 89 89 89 86 87 88 71 80 76 81 75 70 71 73 72 67 58 49 44 45 43 42 42 42 41 42 42 46 47
27 34 49 62 69 74 80 89 70 73 80 80 85 86 86 86 84 82 85 75 81 76 93 88 73 73 75 72 67 59 52 48 48 47 45 44 43 43 44 46 48 48 47
35 44 50 53 56 59 63 63 60 68 73 77 82 86 82 77 76 91 85 80 85 77 78 70 75 78 77 69 60 52 49 49 49 48 48 47 46 45 45 43 45 46 46
47 51 51 48 50 53 54 58 61 69 73 74 75 78 81 77 78 77 76 96 85 73 73 79 83 80 71 59 54 52 51 52 52 52 50 47 41 40 39 40 41 40 40
49 48 44 46 49 50 53 56 59 62 67 71 75 76 76 86 81 69 85 88 76 78 82 85 77 64 60 59 54 54 49 49 49 48 46 44 44 43 46 46 45 42 35
42 43 51 53 52 53 54 58 62 65 67 68 71 78 74 77 68 80 80 81 84 84 81 72 66 66 62 55 51 54 53 50 50 48 47 46 46 47 52 51 47 43 36
45 49 50 47 48 50 53 57 58 57 60 60 61 64 75 75 83 88 83 88 86 79 74 69 66 61 58 59 57 55 55 55 54 51 50 49 51 51 50 52 43 43 44
49 47 48 48 49 48 51 50 50 55 65 67 69 79 87 90 87 90 91 84 78 74 66 63 62 64 63 58 57 58 58 59 59 58 57 55 51 47 50 51 51 54 53
48 49 50 51 52 54 55 57 61 67 72 82 89 89 90 93 96 93 87 80 75 70 71 71 71 63 61 62 63 64 64 62 58 54 53 51 49 46 43 44 51 55 56
58 57 57 56 62 67 69 69 76 82 88 90 91 96 98 96 92 86 79 70 68 77 75 72 71 68 66 66 67 67 66 63 59 55 53 49 46 44 43 44 53 57 57
68 67 65 69 73 77 81 86 88 91 93 97 98 97 94 92 85 76 79 85 86 82 78 70 68 67 68 71 72 71 68 66 62 57 51 43 35 35 42 51 52 62 68
72 72 76 80 83 87 89 91 94 97 97 97 94 92 89 84 85 92 94 86 81 73 74 73 73 73 73 74 75 73 70 67 62 53 42 35 32 30 32 43 54 66 71
88 87 86 90 92 93 96 98 97 97 97 95 89 88 89 92 96 87 81 82 88 85 81 80 80 79 79 79 77 74 71 62 49 43 41 39 35 31 28 31 45 62 79
95 95 96 96 97 97 97 97 97 97 96 97 97 96 96 95 95 96 97 96 94 91 89 86 87 86 83 80 76 66 54 50 47 44 41 38 35 33 32 33 36 58 88
95 95 96 97 97 97 97 96 96 97 97 97 97 97 97 97 97 97 97 97 97 95 92 91 89 84 75 65 59 55 50 47 43 39 36 34 33 36 38 38 41 50 83
97 97 96 96 96 96 96 96 96 96 96 96 97 98 98 97 98 98 98 98 96 90 85 77 69 65 62 58 51 47 43 39 36 36 36 36 38 39 41 46 47 53 71
96 96 96 96 96 96 96 96 96 96 96 96 97 98 98 98 98 98 95 85 74 68 64 61 59 56 50 45 41 39 38 39 39 40 41 43 45 44 44 50 54 58 70
96 96 96 95 95 94 94 94 94 95 94 94 95 93 89 82 75 72 69 67 64 60 57 51 44 41 41 42 42 42 43 45 45 47 50 52 53 54 54 53 58 62 75
93 92 89 87 86 87 87 88 86 84 80 73 69 65 63 62 61 58 53 48 44 43 43 43 44 45 46 47 48 49 50 51 55 59 60 60 62 61 57 53 58 63 84
83 83 85 85 84 79 73 66 62 57 54 51 47 43 42 40 40 40 42 43 44 45 46 48 49 50 53 54 55 55 56 61 64 66 67 67 65 62 59 52 57 69 90
78 72 65 58 50 43 37 34 32 32 31 32 34 37 39 40 41 42 44 45 47 50 51 52 54 55 56 57 57 61 66 69 71 72 71 69 67 64 59 54 57 73 92
41 34 31 30 29 29 28 28 29 31 33 35 36 38 40 43 46 47 49 51 52 53 55 57 59 60 59 61 63 69 73 76 77 76 74 71 69 67 62 57 58 74 94
28 27 26 25 25 25 26 28 30 33 35 38 40 42 45 48 51 52 53 55 56 57 58 61 63 63 65 68 73 77 80 81 79 78 75 73 72 70 67 62 61 77 95

GFSGL_prec_cthk_087.txt.gz
RH
68 68 66 59 61 63 60 60 65 75 79 81 83 86 93 97 97 91 86 83 84 85 83 82 73 72 68 67 69 71 69 65 63 66 67 63 59 51 44 43 43 42 42
72 72 67 58 58 59 61 69 76 75 76 88 94 94 97 98 96 96 90 88 87 87 89 87 75 72 69 71 68 70 69 68 68 68 69 64 59 51 45 45 46 45 45
70 71 66 58 59 59 58 59 63 70 89 98 98 93 92 93 94 93 90 87 89 83 81 85 84 76 75 76 77 81 76 74 75 71 66 60 53 49 49 49 48 47 46
37 41 47 51 49 52 58 69 78 91 93 74 75 78 81 88 92 92 85 86 86 83 84 87 80 71 75 77 86 85 77 78 77 70 61 55 52 51 51 49 47 46 46
28 29 29 35 41 57 70 73 77 83 87 79 69 80 78 82 85 86 86 81 79 79 91 87 74 73 85 80 83 78 80 78 73 64 56 51 51 53 53 54 49 45 42
28 30 32 44 53 58 60 63 71 69 66 71 71 71 74 75 79 85 83 83 78 88 98 79 82 93 94 86 80 82 83 79 70 58 56 54 55 55 55 50 47 45 44
36 39 45 49 53 54 54 57 60 58 67 64 64 64 69 78 87 84 82 80 90 95 95 86 88 92 92 82 83 86 84 70 62 61 59 59 55 55 54 54 52 52 51
44 49 52 52 49 46 52 57 57 58 57 60 65 70 75 87 85 87 84 96 90 91 82 85 94 93 88 87 89 81 70 64 64 57 52 55 56 58 59 59 60 60 58
50 48 50 51 52 57 59 60 59 60 60 63 65 67 75 85 88 89 95 86 83 91 95 94 97 95 92 85 76 65 60 63 59 61 60 59 63 64 64 66 68 69 64
46 49 52 53 53 54 53 53 58 58 58 59 63 63 70 75 82 80 81 92 95 95 96 98 95 87 80 72 66 60 64 65 67 61 62 65 65 63 62 64 66 70 70
53 54 53 53 51 50 51 53 55 56 59 58 64 68 71 74 76 92 96 99 98 97 97 92 87 78 70 67 69 75 76 68 68 73 73 70 66 62 65 67 68 69 69
58 57 56 55 56 58 60 58 59 62 63 68 78 80 78 84 93 98 98 97 97 97 94 87 77 74 77 82 75 72 74 75 79 77 74 69 67 67 63 65 67 64 56
61 60 60 61 64 65 67 71 71 72 75 83 87 91 95 98 99 98 98 97 97 92 85 84 84 87 88 85 82 81 84 85 82 78 75 74 71 67 63 58 50 46 46
72 70 69 71 75 78 80 81 82 88 92 96 97 96 96 97 97 97 96 95 94 94 94 94 94 87 82 83 86 88 89 86 84 83 81 75 70 64 55 43 36 35 35
79 81 83 86 87 88 91 94 97 98 98 97 98 98 97 97 97 96 97 97 97 97 94 92 93 93 91 92 93 93 93 94 90 85 78 72 63 48 40 38 34 30 30
79 83 86 92 96 97 97 97 97 97 97 97 97 97 97 97 97 97 97 97 97 97 97 97 97 97 96 96 98 98 97 92 85 79 71 54 45 38 34 32 31 29 28
85 90 94 96 95 96 96 97 97 97 97 96 97 97 97 97 96 96 97 97 98 98 97 97 98 98 98 98 98 96 89 81 67 58 52 46 39 32 27 26 29 31 31
89 93 95 95 95 94 94 95 96 96 96 97 97 97 96 96 97 97 97 97 98 98 98 98 98 98 96 91 80 72 67 60 54 47 39 35 32 31 31 31 31 33 36
92 91 91 92 92 93 95 96 96 97 97 97 96 96 97 95 96 97 97 97 98 96 92 85 79 75 71 66 62 58 51 43 38 38 38 37 39 39 39 38 37 38 42
93 93 93 93 94 94 95 94 93 92 91 92 93 94 94 93 89 83 78 74 71 69 66 64 61 58 53 47 42 41 41 42 43 43 43 45 47 48 47 47 47 44 47
96 94 92 90 89 87 85 83 82 83 82 79 74 68 63 62 59 56 54 51 50 48 44 41 40 41 43 43 45 46 47 47 48 50 52 54 55 57 59 58 57 57 57
87 85 83 83 82 79 74 68 60 53 50 47 44 42 40 38 37 38 39 40 40 41 42 43 44 45 47 48 50 51 52 53 56 58 59 62 66 67 66 67 67 62 58
85 81 73 61 50 41 34 32 31 30 30 29 28 28 30 32 34 35 37 39 41 44 46 47 49 51 53 54 56 56 56 57 60 65 69 71 73 75 76 72 68 63 57
48 36 31 29 28 27 26 26 25 24 24 25 26 28 30 33 36 39 42 45 47 49 51 52 53 55 56 57 59 61 62 64 71 75 77 80 80 79 76 73 70 63 57
28 26 25 24 23 22 21 20 20 21 23 25 27 31 34 37 40 44 48 51 52 53 55 57 58 58 59 62 66 67 72 77 81 82 84 82 80 79 78 74 69 63 60
23 21 20 19 16 15 16 19 21 23 25 28 33 36 38 41 45 48 51 53 55 58 60 62 62 64 67 70 76 81 84 86 88 88 85 83 82 81 79 75 71 64 63

GFSGL_prec_cthk_090.txt.gz
RH
61 60 58 57 56 55 56 57 57 55 57 61 68 75 81 85 86 92 96 96 96 93 91 93 93 95 87 94 83 78 72 65 63 67 73 77 76 76 73 65 59 55 52
63 66 69 65 61 59 57 58 60 63 70 77 83 88 92 95 97 94 95 98 94 88 92 97 96 94 89 81 81 82 72 74 73 71 79 80 78 76 73 66 58 55 53
55 67 72 75 69 64 59 63 67 69 74 79 84 93 89 83 95 96 98 94 98 96 97 93 91 85 79 78 88 84 75 71 75 79 81 83 78 79 71 62 58 57 55
36 40 45 47 52 60 66 62 61 62 72 81 91 91 82 75 74 82 83 84 89 92 91 87 83 77 77 87 96 90 82 83 87 90 91 84 82 76 66 60 58 57 53
31 30 26 29 31 35 40 50 62 76 80 80 83 85 85 84 81 78 78 76 81 87 85 81 79 87 90 91 95 95 92 88 96 95 91 88 83 73 62 62 57 53 51
34 31 33 36 39 43 49 62 68 67 68 74 76 78 75 75 80 80 74 77 80 85 88 84 82 88 94 99 95 92 91 95 96 95 92 88 78 69 64 59 57 56 55
45 42 41 45 53 60 60 62 65 67 64 64 66 60 65 64 61 66 70 75 88 93 92 89 88 96 90 87 98 98 95 97 96 95 92 79 72 64 66 58 60 61 61
50 50 50 56 62 62 61 59 60 60 66 64 61 61 63 65 65 66 72 73 93 98 88 86 94 98 94 94 95 97 97 98 96 87 74 66 59 66 66 70 65 69 71
47 52 58 63 61 58 60 62 61 62 60 59 58 60 60 65 65 68 68 71 86 97 80 88 90 93 93 98 96 97 96 85 78 72 64 62 72 73 72 71 79 80 73
43 48 55 58 56 58 60 59 59 59 54 59 62 61 60 64 65 68 74 87 86 87 95 89 96 99 96 98 95 89 86 79 69 68 76 78 77 74 81 81 80 81 82
50 54 57 59 59 59 62 63 60 59 66 68 68 66 67 67 71 77 86 94 94 90 92 97 97 97 97 94 90 83 77 81 81 82 82 84 86 88 86 82 80 86 84
57 58 60 61 62 64 62 62 65 68 72 73 74 80 81 83 84 90 94 97 97 98 98 97 97 96 91 84 83 91 93 93 92 89 89 91 90 89 87 86 82 78 77
64 66 65 66 68 68 69 71 75 78 81 83 84 89 91 92 93 95 98 98 97 97 96 97 97 96 97 97 97 95 93 93 96 97 97 97 95 92 89 86 79 72 68
73 74 74 75 76 76 78 82 86 90 92 94 96 97 97 98 98 97 97 97 97 97 97 97 97 97 97 97 97 97 97 97 97 97 97 97 96 91 84 78 72 68 52
77 79 79 79 78 80 84 89 92 94 97 98 97 97 97 97 97 96 96 97 97 97 97 97 97 97 97 97 97 97 98 98 98 98 98 94 88 82 75 67 52 38 32
80 79 78 77 79 82 86 91 95 97 97 96 96 96 95 95 95 96 97 96 96 96 97 97 97 97 97 98 98 98 98 98 98 97 92 83 70 60 52 39 31 25 22
75 76 78 81 84 87 90 92 92 90 90 90 92 93 93 95 95 95 95 96 96 96 96 95 96 97 97 98 99 99 96 89 79 73 67 58 47 38 31 28 27 26 24
83 84 84 86 87 88 88 88 88 88 88 88 89 90 90 91 92 92 93 93 93 92 91 89 85 80 76 73 71 69 66 60 52 44 39 36 36 36 35 34 34 33 32
84 85 88 89 87 87 88 88 87 86 86 87 89 90 89 85 80 74 68 63 61 61 60 60 59 56 53 49 44 43 42 42 42 42 42 43 43 42 43 43 43 42 42
87 90 89 88 87 85 82 81 81 80 77 70 61 54 51 47 45 43 42 41 39 38 36 37 38 40 41 42 43 44 45 46 48 49 49 49 50 52 53 53 54 52 53
87 87 86 83 81 79 74 65 53 43 37 34 32 31 30 29 29 28 27 27 28 30 32 35 38 40 43 45 48 50 51 52 55 55 56 57 59 61 63 63 64 65 64
84 84 78 66 51 40 34 31 29 28 27 26 25 25 24 23 23 25 27 29 32 35 37 39 42 45 48 49 51 53 55 57 59 60 61 64 68 73 74 74 74 73 73
61 46 38 34 31 29 26 25 24 22 21 20 19 19 19 21 24 27 30 33 36 39 42 44 46 48 52 56 59 59 59 63 66 66 68 75 80 81 80 81 83 81 77
37 33 30 28 25 23 22 20 18 17 17 18 19 21 23 25 28 31 34 36 40 44 47 49 51 53 56 59 62 64 68 71 73 77 82 84 86 88 89 87 84 80 77
30 28 25 23 22 20 18 18 17 18 19 19 20 23 25 28 31 33 36 40 43 47 50 53 56 59 62 65 69 73 78 83 86 88 90 92 92 90 89 85 83 80 76
25 23 22 20 19 19 18 17 18 19 21 23 25 28 30 33 36 40 44 48 52 55 58 61 65 68 71 76 82 87 90 91 93 92 92 92 91 90 87 86 83 79 74

GFSGL_prec_cthk_093.txt.gz
RH
52 51 54 58 59 57 54 54 53 56 59 62 63 65 67 70 74 78 79 81 86 94 96 95 93 94 97 95 96 96 96 90 89 78 82 77 73 76 76 76 81 80 70
62 60 58 60 62 61 57 56 57 61 64 63 64 66 69 74 76 82 87 91 94 95 96 99 96 96 94 91 97 96 95 82 72 77 84 84 76 79 85 87 89 84 79
52 53 58 62 69 72 70 66 61 65 66 66 67 69 76 86 94 95 89 82 85 91 96 94 95 93 93 90 95 89 82 77 83 83 88 92 85 88 88 90 86 86 76
41 42 42 49 53 56 69 73 73 70 66 65 72 75 78 84 90 88 77 83 82 77 81 80 86 89 86 97 98 79 80 87 95 97 94 92 97 91 92 92 91 85 73
37 36 34 36 36 36 41 47 51 56 61 67 74 83 86 87 85 86 86 83 80 77 75 77 75 82 93 91 89 84 86 89 99 99 95 96 98 97 97 97 91 80 68
44 41 40 39 37 36 38 40 45 54 62 69 74 76 74 75 75 79 74 73 77 76 73 69 73 80 88 97 89 92 99 99 98 94 97 96 97 96 97 96 80 74 73
48 50 52 51 47 46 48 57 62 67 68 67 68 70 65 67 69 67 68 68 72 70 71 73 78 79 99 96 97 98 92 96 96 98 98 97 97 98 94 83 76 66 65
52 52 53 57 58 59 58 61 68 70 65 62 62 67 68 67 62 64 66 68 69 67 72 75 80 83 88 95 97 98 96 96 97 98 98 97 91 83 82 74 68 69 77
50 52 51 52 57 60 62 66 69 65 63 63 63 63 62 57 60 60 61 62 61 62 64 68 72 82 86 93 92 95 98 96 97 95 91 93 88 80 79 81 86 87 87
55 49 47 48 52 58 60 63 61 63 65 67 66 64 62 65 66 66 67 72 71 77 77 86 91 93 94 98 97 95 96 97 96 95 91 91 93 91 91 88 92 95 96
51 54 57 58 61 63 65 65 66 68 71 70 68 68 71 72 76 78 80 82 87 89 91 93 94 95 97 97 97 97 97 95 92 94 95 94 94 96 97 97 97 96 94
65 66 67 68 69 70 70 71 73 74 75 74 75 77 80 81 84 87 90 94 96 97 97 97 97 97 97 96 97 97 97 97 97 97 97 97 97 97 97 98 98 97 97
71 72 75 74 74 76 76 77 77 77 78 79 82 85 90 93 95 96 96 97 98 97 97 97 97 97 97 96 97 97 97 97 97 97 97 97 97 97 98 98 98 98 95
76 79 80 79 80 80 83 85 84 81 82 84 88 94 95 95 95 95 94 94 93 94 95 96 96 96 96 96 96 96 97 97 97 97 98 98 98 98 98 98 95 92 85
84 84 85 88 87 85 82 80 80 82 86 89 92 94 94 92 90 88 89 90 89 89 91 92 93 94 95 95 95 94 95 96 96 98 98 99 98 95 88 77 68 62 57
86 85 85 81 76 78 81 83 84 86 88 89 90 90 89 89 87 86 85 84 84 85 86 87 87 87 87 86 85 82 79 77 75 73 72 71 68 63 59 54 49 43 36
84 82 79 77 79 81 83 85 86 90 89 86 86 86 84 84 83 82 79 77 73 66 62 58 57 57 57 57 56 55 54 53 50 50 48 45 43 41 39 40 40 39 37
89 82 80 81 82 84 84 85 86 87 84 82 80 78 72 65 58 52 49 46 44 44 41 40 39 38 37 37 38 39 40 42 43 44 45 46 46 46 46 48 48 47 45
84 82 80 78 78 77 79 80 78 74 67 58 51 48 44 41 38 34 29 26 26 27 27 27 27 29 30 33 35 37 40 43 45 47 49 50 52 53 53 54 54 54 54
81 76 69 65 67 72 70 60 49 41 37 34 32 30 29 25 21 20 19 19 20 23 24 26 28 30 32 35 38 41 44 47 50 53 55 56 58 59 60 62 64 64 66
67 65 62 55 52 44 37 33 31 30 29 28 27 24 21 19 19 19 18 18 20 22 24 27 30 33 37 40 43 47 50 54 58 60 62 64 66 68 70 72 74 75 75
55 50 46 41 36 32 30 28 27 26 25 23 21 20 19 19 18 19 20 22 24 26 29 31 34 37 41 43 45 49 53 57 61 66 70 72 73 77 80 83 84 83 82
47 40 36 33 30 28 27 26 25 24 22 20 19 19 18 19 20 22 24 27 29 32 35 38 41 45 48 50 53 55 58 63 68 73 77 80 84 87 89 90 91 90 89
37 34 31 29 27 27 26 25 23 21 20 20 19 19 20 22 23 25 28 31 33 36 39 42 45 49 52 56 60 65 70 75 79 84 87 90 92 94 94 94 93 91 89
32 29 28 27 27 26 24 22 21 19 18 18 19 21 23 25 28 30 32 34 37 40 43 46 49 52 56 61 66 71 76 81 85 88 90 92 93 93 93 92 91 89 87
29 29 28 27 25 22 21 19 17 18 19 21 22 24 26 28 29 31 34 36 39 43 45 49 52 58 63 69 74 77 80 82 84 86 88 90 91 91 91 91 90 88 84

GFSGL_prec_cthk_096.txt.gz
RH
50 50 50 53 55 54 53 52 52 54 56 59 60 62 64 65 67 73 75 76 78 80 82 81 83 86 90 96 98 96 96 97 98 98 95 97 92 84 69 71 72 79 69
52 53 56 59 61 64 67 68 63 60 62 65 69 70 71 72 74 76 76 78 82 83 85 88 85 91 97 99 97 98 98 98 97 96 98 96 94 83 80 86 88 89 87
51 55 58 58 57 60 66 70 70 66 64 66 68 71 72 71 70 70 72 78 86 92 91 84 82 84 78 84 89 94 97 98 96 93 98 95 90 86 88 93 94 96 95
50 50 52 52 51 54 64 62 68 71 70 68 69 69 67 69 76 83 86 88 90 89 89 85 85 91 80 80 79 81 85 84 92 98 97 97 92 92 94 98 98 98 97
48 49 45 43 43 44 44 50 58 67 69 75 76 67 69 75 83 84 89 91 90 86 85 89 81 83 82 79 78 77 75 78 83 92 98 97 99 97 99 99 98 97 98
47 49 49 46 43 39 38 39 41 44 47 50 55 65 71 75 80 81 88 85 80 76 76 76 69 70 73 73 73 74 72 87 83 99 98 99 98 98 98 98 97 97 97
53 55 56 57 55 53 52 52 52 52 56 61 68 73 74 72 72 74 76 73 72 73 68 65 67 66 68 69 72 75 74 78 85 97 97 97 98 98 97 97 98 97 97
58 59 61 63 66 65 65 65 65 64 69 69 73 75 74 69 68 70 69 71 67 64 64 62 62 67 71 71 70 78 82 79 82 88 95 95 96 96 97 97 97 96 96
55 61 64 64 65 67 69 79 80 78 75 77 77 74 69 66 66 67 66 65 62 65 69 71 74 72 75 80 82 83 88 90 96 98 97 97 97 97 97 97 97 97 96
57 61 63 65 65 61 58 62 65 66 71 75 73 68 67 67 71 74 75 71 76 78 79 81 83 87 90 91 93 95 97 97 97 97 97 97 97 96 97 96 97 97 97
60 59 63 61 59 59 63 66 70 73 73 72 72 75 78 81 82 78 79 81 83 84 86 90 93 95 95 96 96 95 96 96 96 96 96 96 97 97 97 97 97 97 97
66 65 68 63 64 68 74 75 76 77 78 81 83 83 82 80 80 81 83 87 92 96 96 96 95 94 92 91 92 92 91 92 93 94 95 97 97 97 97 97 97 97 98
74 73 73 72 72 76 78 79 80 81 81 83 83 85 86 83 84 87 89 93 96 95 93 90 88 88 89 89 89 89 90 92 93 94 94 94 95 96 97 97 98 98 98
77 79 77 75 77 79 80 79 84 87 86 85 81 81 84 85 88 90 91 90 86 85 84 85 84 84 83 83 84 84 84 83 82 81 80 77 75 73 71 72 72 73 72
80 82 83 82 83 86 85 84 82 79 78 80 82 84 84 86 88 87 84 82 81 78 78 75 70 65 59 56 53 51 51 50 51 52 54 56 57 57 57 57 59 61 64
81 89 89 89 87 80 77 76 76 78 79 80 80 81 82 83 83 80 75 68 59 49 45 42 41 41 41 41 41 41 41 41 41 39 41 43 45 46 46 45 46 48 49
94 97 96 88 81 81 80 80 79 80 80 78 75 74 73 69 59 50 45 39 33 32 35 34 34 36 36 34 33 32 33 34 35 37 38 40 42 44 45 47 50 53 53
95 90 86 86 83 82 80 77 73 69 66 62 57 52 46 40 35 31 27 26 31 29 27 30 34 31 31 30 30 31 32 33 35 38 40 43 45 48 50 54 57 58 58
88 83 80 77 76 73 69 66 56 47 45 46 45 40 31 27 24 22 21 26 26 25 24 26 28 26 26 30 32 33 36 38 40 43 46 49 52 56 59 61 63 65 66
80 79 76 70 61 51 39 34 35 40 41 38 32 27 30 33 31 29 26 24 22 22 22 23 25 27 29 31 34 36 40 43 47 50 53 56 60 63 66 70 73 75 78
69 63 52 41 37 36 34 36 38 38 36 34 30 25 24 30 27 24 23 23 23 24 25 27 29 31 33 36 39 42 45 48 51 56 61 64 68 71 74 78 82 85 87
50 43 39 36 33 33 35 34 33 33 34 35 34 28 21 25 24 23 24 21 22 26 27 29 31 34 37 40 43 46 50 53 57 61 64 69 75 79 83 86 89 91 92
40 36 33 33 34 32 30 30 30 32 32 31 29 24 21 17 19 20 20 21 23 25 28 30 33 37 42 45 47 52 56 60 64 69 72 76 80 84 87 90 93 94 95
33 34 35 33 30 29 29 29 28 26 23 21 18 16 17 18 20 21 22 23 25 27 29 32 35 38 42 47 53 58 63 67 71 74 74 78 82 86 88 90 91 93 93
34 34 31 30 30 29 28 27 24 21 19 16 17 18 19 19 21 21 23 25 28 31 34 38 43 48 53 57 61 64 70 75 80 84 84 83 85 86 87 88 90 90 89
33 32 31 29 28 27 25 22 20 17 17 17 18 18 19 20 22 25 28 32 35 39 43 49 52 54 57 61 65 70 73 75 79 84 86 87 87 88 89 89 89 89 87

GFSGL_prec_cthk_099.txt.gz
RH
43 46 51 50 50 51 51 52 53 56 60 61 62 61 61 62 63 63 63 66 71 75 75 80 82 84 86 87 86 91 88 92 86 88 93 95 96 98 97 94 95 97 94
44 45 47 53 58 60 62 63 66 67 63 61 62 61 60 60 63 66 68 70 74 76 78 82 84 87 87 83 84 90 88 94 86 77 80 90 92 96 97 96 91 96 96
46 46 46 48 57 61 62 63 67 71 71 69 68 66 66 68 70 72 71 70 74 77 80 83 82 85 88 93 95 88 91 97 90 80 74 81 78 84 89 86 92 92 94
47 47 48 49 51 56 57 57 59 69 69 71 71 67 68 70 73 73 70 71 75 82 86 90 92 93 94 96 88 91 88 89 83 82 81 75 72 74 77 97 97 93 98
48 46 47 50 52 53 53 52 51 52 62 70 74 78 79 83 80 69 72 76 81 86 88 93 95 96 89 83 81 80 74 72 72 76 73 80 74 85 78 85 86 92 98
48 46 48 51 52 49 48 48 49 52 54 57 60 62 63 60 57 69 77 82 82 87 88 87 84 82 78 79 77 73 70 72 74 79 79 79 80 88 82 85 79 83 92
53 51 47 48 52 58 59 60 59 58 59 56 56 59 63 67 70 77 82 84 80 80 79 78 81 75 75 72 67 67 67 70 74 78 77 80 82 86 85 87 91 93 95
58 57 55 57 60 61 63 63 65 67 68 72 73 75 77 79 81 86 89 85 82 78 76 78 76 74 72 74 73 74 79 82 87 91 92 94 95 96 96 96 97 97 97
67 63 64 63 62 66 67 69 71 74 79 80 84 89 88 83 82 82 81 78 76 76 77 81 81 83 82 83 83 85 86 90 93 95 96 98 97 96 96 95 95 94 94
64 66 64 68 66 70 74 73 68 70 70 69 70 71 72 78 82 82 79 77 79 85 88 91 87 85 84 85 87 90 93 96 96 94 91 90 90 91 92 94 95 96 97
68 69 70 67 69 74 77 71 70 66 67 73 77 82 85 85 83 83 87 90 92 92 85 83 84 85 86 89 92 92 90 87 86 88 89 90 89 90 92 93 95 94 94
73 74 78 73 70 69 70 70 71 73 77 81 83 84 86 87 88 87 85 85 86 86 83 84 85 86 86 86 84 81 79 79 79 80 80 82 81 81 80 79 78 78 78
69 79 82 76 74 73 76 78 79 81 81 82 84 84 84 85 85 85 82 80 80 80 80 82 81 81 80 76 72 66 59 52 49 46 47 48 48 48 48 48 48 50 51
79 78 84 79 80 79 80 85 81 80 82 84 86 87 84 80 76 75 76 75 75 74 77 74 68 60 53 49 48 46 45 43 42 40 39 38 37 37 38 41 41 42 43
82 87 87 86 87 87 89 87 87 88 86 82 78 78 75 73 73 72 70 65 57 51 50 47 44 41 39 41 43 40 38 35 33 32 31 30 30 31 32 33 36 37 41
87 89 91 92 91 89 87 90 89 82 78 76 76 76 74 69 62 49 41 41 40 37 40 38 38 38 37 37 34 31 30 29 29 29 30 31 32 34 36 37 41 45 47
91 93 95 96 94 94 94 89 82 80 78 74 70 62 51 42 37 34 33 38 32 32 33 33 32 29 28 27 28 29 30 30 31 32 34 35 37 39 41 44 47 52 55
98 98 98 97 94 91 88 84 80 75 67 53 43 38 29 27 30 30 27 31 32 31 28 25 23 25 28 31 31 32 32 34 35 37 38 41 43 46 48 51 57 60 62
97 97 94 90 89 86 83 75 63 54 49 48 47 42 38 37 32 28 23 28 29 26 23 24 27 28 27 28 30 31 34 37 38 41 43 46 49 52 56 60 63 67 70
88 87 83 78 72 61 52 48 48 50 46 41 34 32 37 35 32 30 29 27 24 22 22 22 23 24 25 28 30 33 36 41 44 46 48 51 53 56 60 63 68 73 77
84 77 66 56 52 51 52 52 50 48 45 41 29 27 25 31 30 28 26 23 22 22 23 24 25 27 29 31 33 36 39 42 46 51 55 58 60 62 66 68 72 77 82
61 53 46 43 44 41 40 40 42 41 39 38 35 27 25 29 27 25 24 23 23 24 25 26 28 30 32 34 37 40 42 46 50 54 57 61 65 69 71 74 77 80 84
49 41 39 36 33 33 35 38 40 39 37 33 31 30 28 26 25 23 23 23 23 22 23 24 27 30 36 39 41 46 49 54 57 61 66 70 74 76 75 77 79 81 84
41 38 35 34 34 35 35 34 32 29 32 31 29 28 26 24 23 22 23 18 19 22 24 27 32 37 40 42 45 50 55 59 63 67 70 73 79 82 81 81 82 83 84
37 34 33 34 35 36 38 37 34 33 31 29 27 25 23 22 23 22 21 22 24 27 30 35 39 41 44 47 52 57 62 67 72 75 76 75 80 83 81 82 83 84 84
39 36 37 39 39 40 38 35 32 30 28 26 23 21 21 23 21 21 24 27 29 33 36 40 42 46 49 53 59 64 69 74 80 83 83 80 81 83 81 80 83 83 82

GFSGL_prec_cthk_102.txt.gz
RH
44 45 45 50 50 51 51 53 54 57 60 65 67 72 73 72 71 69 70 70 66 66 65 69 75 82 88 86 89 91 91 87 81 81 86 90 87 90 89 81 83 78 78
44 45 47 49 52 57 57 57 57 62 68 67 62 63 62 62 64 65 67 67 70 73 73 78 79 82 87 89 92 90 89 90 88 89 87 87 93 92 82 77 80 78 74
49 46 46 47 50 55 62 66 66 69 72 74 75 70 67 66 66 69 72 73 75 79 83 83 82 87 91 94 95 95 95 97 93 96 84 83 81 77 72 78 68 70 79
50 50 48 47 49 52 57 62 63 65 68 74 74 78 77 76 75 74 76 79 85 86 81 84 90 91 90 88 91 99 91 99 93 82 78 81 74 74 66 70 74 78 78
51 51 51 51 51 52 56 57 57 60 62 64 65 77 80 80 81 86 86 86 73 68 76 82 86 89 88 97 85 97 87 82 82 86 76 69 67 69 74 77 79 79 85
49 51 54 54 52 57 60 57 55 55 56 57 56 55 57 59 52 55 59 67 72 78 83 88 88 89 89 84 89 75 76 97 74 78 75 77 77 83 81 87 90 91 91
48 51 56 56 56 56 60 62 63 63 62 64 64 64 66 66 67 72 78 82 85 86 91 91 91 87 81 76 75 87 73 81 80 81 82 84 86 88 88 90 92 93 92
53 55 61 61 60 58 59 61 65 66 68 68 70 74 76 76 79 85 91 94 91 88 84 89 87 85 83 85 80 89 89 86 84 84 87 89 92 95 96 94 91 88 87
60 63 62 62 58 59 58 60 65 69 75 78 79 79 79 79 81 81 82 83 83 83 92 90 89 91 87 90 92 91 85 82 83 85 87 89 91 90 87 87 88 88 85
62 64 62 65 67 68 67 65 67 72 79 80 76 77 73 77 80 84 88 89 94 98 97 94 89 92 92 89 85 81 80 79 80 82 83 81 79 77 76 76 74 71 70
74 72 71 69 75 78 78 79 78 76 77 75 74 75 78 80 83 89 94 94 90 84 85 86 85 81 79 76 75 74 73 73 71 64 58 53 52 50 47 46 45 45 44
78 78 78 82 83 83 85 86 86 86 81 76 79 81 83 86 85 86 85 85 84 81 81 81 77 72 70 67 60 55 51 48 45 42 42 42 41 39 37 34 32 31 32
77 78 81 84 83 85 83 93 86 89 87 86 87 90 89 88 84 82 82 82 76 73 71 69 62 57 54 47 44 45 45 44 40 37 36 35 31 27 24 23 24 25 25
80 81 82 82 87 86 82 91 89 91 92 89 89 91 93 88 84 79 74 70 66 61 57 51 42 37 39 42 42 39 37 34 31 28 24 21 20 20 19 21 22 22 23
84 87 91 94 93 97 89 89 89 92 95 96 96 91 86 81 78 73 65 55 47 43 42 40 35 35 36 35 31 29 26 23 20 19 20 20 20 21 22 24 27 29 32
94 96 97 98 96 95 93 89 95 97 97 95 90 86 81 74 63 51 42 37 37 39 39 38 36 33 31 28 26 23 21 20 20 21 21 22 24 26 29 32 35 38 40
99 99 99 97 95 98 98 97 97 97 94 87 78 67 58 49 44 43 48 41 39 38 34 33 30 27 26 24 22 20 21 21 22 23 24 26 28 31 32 35 39 42 45
98 98 98 98 98 97 97 94 89 84 75 66 58 53 51 45 40 39 42 41 33 30 30 28 25 23 22 22 21 22 23 25 26 28 30 32 33 36 39 42 45 47 51
98 98 97 97 96 95 93 89 78 71 65 61 57 51 52 52 44 37 31 28 29 26 25 24 23 22 22 24 24 25 26 27 28 30 32 35 38 42 46 50 53 55 58
97 97 95 92 89 82 73 67 60 54 49 43 42 45 43 36 32 29 25 22 21 22 21 22 23 24 24 25 26 26 27 28 31 34 38 42 45 50 53 57 62 62 65
96 96 88 73 66 59 54 50 46 42 38 34 30 27 30 30 29 26 22 20 18 18 19 20 21 24 24 24 24 25 29 33 37 41 44 49 53 58 63 66 68 69 70
76 67 61 55 52 50 47 45 42 40 36 33 31 31 30 27 27 24 19 17 17 18 18 18 20 21 23 25 27 30 33 38 43 47 51 55 59 62 67 72 75 74 74
60 56 52 48 44 40 38 38 35 34 34 33 31 29 27 26 22 19 19 19 18 18 18 19 21 24 27 30 33 36 40 44 50 55 59 63 65 66 70 75 76 76 77
52 50 46 43 39 36 34 33 32 33 33 33 31 27 23 21 22 22 21 19 19 19 21 23 26 28 31 35 38 42 46 51 57 62 67 70 72 71 73 77 75 76 78
47 45 43 40 39 39 39 37 37 34 30 27 25 23 23 22 23 21 20 19 20 22 24 27 30 33 37 40 42 46 52 58 63 69 73 76 78 77 80 78 74 76 77
44 44 43 41 41 41 39 36 32 30 28 26 24 21 21 22 20 19 19 21 24 25 27 31 34 37 40 42 46 51 56 61 67 74 78 82 83 84 83 79 75 74 73

GFSGL_prec_cthk_105.txt.gz
RH
40 42 44 49 55 54 55 60 64 72 77 80 85 88 86 85 86 89 88 82 78 80 76 75 74 74 73 75 78 84 87 89 88 88 90 91 92 93 94 97 86 81 75
42 45 46 46 51 56 59 59 59 60 60 66 68 69 70 70 72 73 70 69 74 72 72 74 74 78 79 82 83 87 90 94 93 88 95 94 99 98 93 86 81 76 73
44 49 47 46 47 52 57 63 64 65 67 68 69 67 67 68 68 66 66 69 74 79 81 79 81 85 86 85 88 91 92 93 90 92 95 92 86 98 86 80 75 70 66
46 48 50 47 46 49 54 61 67 65 64 68 73 77 76 78 75 74 77 80 83 86 89 90 91 87 79 78 80 84 96 84 92 90 94 90 80 85 85 78 71 72 75
51 49 50 49 50 49 53 57 58 62 66 68 67 67 64 81 82 84 87 92 93 86 78 72 72 74 80 85 85 80 80 81 94 81 79 79 86 77 77 80 78 75 77
55 52 52 50 52 54 53 55 58 59 59 58 57 61 62 58 59 73 74 71 69 73 75 83 83 84 83 80 78 99 87 85 84 83 92 85 89 91 82 77 77 77 78
58 56 54 54 56 57 59 60 59 60 58 61 63 66 69 70 71 75 77 82 86 89 91 92 89 84 84 85 87 97 89 88 85 85 84 88 89 85 79 78 80 81 82
62 58 57 57 61 65 66 63 61 61 66 68 72 77 77 77 77 79 83 87 89 86 83 84 83 84 89 89 98 96 97 92 84 85 85 80 78 77 77 76 75 72 70
66 62 62 63 64 66 67 67 70 71 72 76 78 78 81 79 81 84 82 86 87 93 94 90 87 95 98 97 87 80 79 79 79 75 72 71 68 62 56 51 46 44 41
69 70 66 67 69 72 74 74 78 79 79 78 80 86 90 89 89 87 87 91 91 95 91 90 98 89 82 77 76 74 70 66 60 52 47 45 44 42 43 43 40 35 32
77 76 74 72 74 80 81 81 84 85 85 87 92 93 92 93 90 91 94 92 89 92 93 92 82 77 74 65 58 54 50 47 43 40 37 35 36 34 32 30 28 28 28
77 78 80 82 83 89 89 90 88 91 93 94 97 98 97 95 87 88 92 96 93 90 86 82 76 66 58 55 53 49 43 38 35 34 32 31 29 27 24 21 20 19 20
77 82 84 86 87 90 93 94 94 93 95 94 96 98 93 95 96 94 91 88 88 83 74 66 61 59 54 46 44 41 37 34 31 28 26 25 23 22 19 17 16 16 17
73 77 81 87 90 94 96 96 97 95 97 99 98 97 96 96 95 91 87 82 76 68 62 57 51 48 45 44 39 35 32 28 26 24 23 20 19 18 17 18 19 20 19
78 81 86 90 94 97 99 99 99 99 99 97 97 98 97 93 89 83 74 67 58 54 50 48 46 41 37 35 32 28 24 22 20 19 19 18 18 18 19 20 22 24 25
76 82 87 94 97 99 97 96 98 99 98 98 97 96 90 81 70 62 55 52 52 53 46 43 43 40 31 25 23 22 20 18 19 18 18 19 20 21 23 25 29 29 31
78 82 85 90 95 99 99 98 98 98 97 96 88 79 69 62 60 54 52 49 50 50 41 31 25 24 23 22 22 20 18 18 18 18 19 21 23 24 26 28 31 34 37
88 95 95 94 98 98 98 98 98 96 90 80 67 61 55 53 53 54 50 39 31 26 23 23 22 22 22 20 18 18 18 18 19 21 22 24 26 29 31 34 37 40 43
95 97 97 97 97 97 97 95 84 73 67 68 67 60 54 44 36 32 28 24 21 21 20 20 21 20 19 18 18 18 19 19 20 22 25 28 31 34 37 40 44 49 53
97 97 97 97 96 89 77 68 64 59 55 54 48 45 41 36 30 25 23 23 20 20 20 20 19 18 17 18 19 19 20 22 24 27 30 33 37 40 42 45 50 54 58
97 97 96 86 70 65 61 56 52 51 47 44 40 38 32 27 26 25 23 21 21 20 19 18 17 18 18 19 20 22 24 26 29 32 35 39 43 46 50 52 55 59 62
93 81 70 66 64 60 54 48 43 40 36 34 33 31 29 26 25 24 22 20 20 19 18 18 18 19 19 21 23 25 27 30 33 36 41 47 52 56 57 57 60 63 64
66 64 60 57 53 49 45 42 38 37 37 35 33 31 29 27 24 23 22 21 20 19 19 19 20 20 22 24 26 28 31 34 37 42 47 54 60 63 64 63 65 64 64
63 61 54 51 46 42 41 40 39 37 36 34 31 30 28 26 24 23 21 20 19 19 19 20 21 23 24 28 30 33 35 38 42 47 54 61 67 68 69 71 68 63 64
55 52 47 43 42 42 41 40 39 36 33 32 30 29 27 25 23 21 20 20 19 20 21 22 23 25 28 31 33 35 37 42 45 51 59 66 71 73 75 74 69 64 64
53 50 48 44 44 43 42 39 37 35 33 32 30 27 25 22 21 20 20 20 20 21 22 23 26 28 31 34 35 37 40 44 49 54 61 69 75 78 77 76 70 64 63

GFSGL_prec_cthk_108.txt.gz
RH
37 40 44 48 50 52 58 67 79 90 96 99 98 99 98 99 97 96 97 96 96 95 93 88 87 88 85 80 80 78 78 85 83 78 83 87 90 90 96 92 93 88 91
34 40 44 47 50 52 51 54 59 72 81 85 91 96 96 93 91 91 91 91 90 88 86 83 79 79 76 75 78 81 85 87 88 88 92 93 91 88 88 88 92 93 81
35 39 44 46 47 50 56 60 59 59 62 69 74 80 83 82 82 80 81 80 80 77 75 72 74 78 80 82 84 87 90 89 85 84 86 89 86 96 96 86 82 88 76
38 42 44 47 45 46 50 58 64 65 68 71 69 67 70 71 70 70 71 71 74 74 76 78 85 87 88 87 83 82 79 79 83 86 84 84 91 91 85 86 82 82 80
41 44 47 49 47 49 50 52 59 68 66 65 67 72 79 74 81 84 82 84 84 84 88 87 84 81 79 75 72 73 77 80 88 81 81 96 91 87 89 86 78 75 75
47 50 49 51 53 52 53 54 55 57 59 62 63 63 61 61 64 79 84 88 88 85 85 82 83 76 76 79 92 88 88 79 90 93 97 96 93 92 86 82 75 70 67
54 56 55 54 55 56 59 60 59 56 57 55 56 59 63 65 70 71 74 74 73 77 79 77 77 80 82 82 81 86 94 94 97 98 93 89 86 80 76 71 66 62 56
67 62 62 59 58 59 64 63 63 62 60 59 63 68 72 73 76 78 79 80 80 81 83 85 82 85 83 91 92 90 97 97 92 85 79 75 71 64 58 52 48 43 38
84 76 70 67 63 65 66 65 66 64 66 67 69 69 72 74 77 80 81 82 89 89 85 88 86 90 98 95 92 97 92 79 72 65 55 52 51 48 44 42 36 33 30
82 82 79 74 72 74 75 73 73 76 76 80 83 82 82 83 81 88 87 87 87 86 88 90 89 94 97 94 91 80 65 57 52 46 45 43 40 40 39 35 31 28 25
84 84 88 84 81 83 80 80 84 86 87 86 87 90 92 92 92 90 93 95 93 91 88 95 97 93 85 75 65 60 55 51 48 44 39 37 36 32 28 26 23 20 19
91 86 91 90 91 88 86 86 87 88 91 91 91 95 96 94 92 93 93 98 99 92 93 90 85 74 66 65 64 60 52 45 42 39 37 34 31 25 19 17 16 16 16
91 90 93 94 96 94 95 98 97 97 96 98 96 96 96 92 92 91 98 93 95 92 85 77 76 73 65 54 52 51 48 43 40 37 28 20 18 17 17 16 16 16 16
80 80 83 86 90 90 93 94 91 94 91 93 94 97 94 94 96 96 94 84 85 80 73 70 64 60 57 54 52 50 43 33 22 18 17 17 17 16 16 17 18 18 18
76 78 77 79 84 87 91 96 96 95 93 98 97 93 95 93 97 97 89 77 70 67 65 63 60 56 54 48 37 26 21 19 17 17 17 17 17 18 18 19 20 21 22
69 69 68 69 79 85 91 93 94 93 94 96 97 96 96 95 85 77 69 67 64 62 58 56 50 40 32 27 21 19 18 18 18 17 17 18 19 20 20 21 22 24 25
70 68 69 70 78 83 79 82 86 97 90 97 96 90 82 72 65 64 62 61 60 55 43 35 29 26 22 20 19 18 18 17 17 18 19 20 21 22 23 23 25 28 29
76 79 82 81 82 82 86 92 97 97 92 93 85 80 74 68 65 62 56 46 40 36 31 27 24 22 20 19 18 18 18 18 19 20 21 22 23 24 26 27 29 31 34
90 89 90 91 91 91 92 97 97 93 83 77 75 70 67 54 51 46 40 37 32 29 28 25 22 20 19 18 18 19 19 20 21 22 23 24 26 28 30 33 34 35 38
97 97 97 97 97 97 96 89 74 68 66 64 60 53 45 41 39 36 32 29 27 25 24 23 21 20 19 19 20 20 21 22 22 23 24 27 30 33 37 38 38 40 44
97 96 97 97 93 75 65 64 65 64 57 49 44 43 40 36 33 31 29 27 25 24 23 22 21 21 21 21 21 22 22 22 23 25 28 30 33 38 43 46 48 50 49
97 96 87 75 70 67 64 60 53 45 43 41 40 38 35 32 30 28 26 26 25 24 23 22 22 22 22 21 22 22 22 23 25 27 29 33 39 45 50 53 55 54 50
86 73 65 62 58 55 52 49 44 43 42 40 38 35 34 31 29 28 27 26 25 23 23 22 22 22 22 22 22 22 23 25 27 28 31 38 44 51 55 57 57 55 50
67 64 62 61 56 53 49 44 43 42 41 39 37 34 32 30 29 28 27 26 25 24 23 23 23 23 22 22 22 23 25 26 29 32 36 42 49 57 60 61 61 56 51
70 65 59 56 54 50 45 43 44 43 40 39 36 33 32 30 30 29 28 27 25 23 23 22 22 21 21 22 24 25 27 29 32 36 41 47 55 62 65 64 61 54 54
58 54 53 52 50 46 44 44 43 42 40 38 35 34 33 31 30 29 27 25 24 23 22 21 20 20 21 23 26 28 30 32 35 40 44 52 59 65 68 67 61 54 55

GFSGL_prec_cthk_111.txt.gz
RH
32 34 38 43 47 53 65 72 83 92 97 97 98 97 99 97 99 99 99 96 97 99 98 96 96 96 95 95 97 96 96 93 85 78 83 88 87 88 93 96 98 96 94
34 36 39 43 45 47 51 58 70 82 93 97 98 98 97 99 98 98 98 97 98 97 96 96 95 96 96 94 94 92 87 82 80 80 84 86 88 84 86 89 89 88 92
36 38 41 44 44 46 51 53 56 66 74 86 91 95 97 98 98 97 98 93 93 97 96 93 94 93 90 88 83 83 82 85 87 90 90 86 79 81 82 82 95 95 92
39 40 42 44 44 46 49 54 61 60 61 66 73 85 90 91 94 94 92 92 93 91 89 87 82 78 79 82 85 88 91 91 82 76 75 78 84 86 98 92 96 97 92
48 47 47 47 47 47 49 52 58 64 68 72 70 68 73 79 84 85 81 79 76 74 74 77 78 79 82 88 87 85 82 77 77 87 93 91 91 86 91 93 89 92 84
50 53 54 53 51 50 50 52 54 56 60 66 66 70 73 78 79 80 77 77 78 79 79 83 82 82 85 87 84 76 78 82 86 94 87 93 98 96 95 88 79 74 66
54 55 57 61 60 56 52 52 57 57 55 56 57 60 62 62 62 65 67 71 78 78 78 77 78 76 74 77 72 78 83 92 93 93 97 94 91 88 81 66 56 50 47
76 63 61 63 64 64 60 58 58 58 59 58 57 56 57 60 65 70 72 71 73 76 77 76 79 79 75 80 89 84 88 95 98 94 87 80 70 62 54 49 45 41 36
83 86 78 71 68 66 68 63 61 62 65 63 60 62 64 68 72 73 76 77 78 80 79 77 77 80 81 85 89 88 85 91 79 70 64 61 56 51 46 44 39 35 33
81 86 90 86 81 76 73 74 70 68 70 71 71 72 76 76 77 81 83 86 86 88 90 88 83 87 87 83 84 81 78 71 65 60 57 52 54 50 46 42 38 31 21
79 84 89 91 92 90 84 81 79 78 78 79 81 80 81 81 83 87 91 91 91 92 92 93 97 95 90 85 81 70 64 59 55 53 57 55 49 45 41 29 21 17 15
87 86 88 94 96 97 93 90 88 85 83 84 88 87 89 90 90 92 94 96 95 96 95 97 94 87 84 76 70 62 61 62 62 59 52 46 39 27 20 17 15 14 14
90 92 96 95 97 97 97 96 96 92 92 89 90 92 93 95 97 95 99 97 96 93 96 92 85 76 69 66 68 67 63 57 49 43 38 30 21 18 16 14 13 13 13
90 87 87 90 91 90 89 91 95 98 94 98 97 99 97 97 96 98 98 98 95 95 77 76 73 74 71 65 61 53 48 43 37 30 23 18 16 14 14 13 13 13 14
75 79 81 85 86 85 87 88 89 90 92 91 93 95 95 90 90 96 96 93 86 80 79 75 67 64 58 51 47 41 34 28 25 20 16 15 14 14 14 14 15 16 19
73 77 77 76 74 76 81 78 82 86 85 83 86 98 95 97 93 93 84 78 75 72 69 62 53 49 44 40 35 31 27 26 22 18 16 16 16 16 16 17 19 21 21
69 69 69 70 73 73 75 73 80 86 85 96 80 78 81 89 85 78 69 71 66 59 53 51 44 40 34 30 29 27 22 19 18 18 18 17 17 19 20 22 24 25 24
77 76 78 77 78 78 79 78 80 78 82 95 88 84 86 79 73 68 64 58 54 51 44 39 34 31 29 29 27 23 21 20 19 18 18 19 21 22 25 28 29 29 28
82 83 82 81 84 85 85 84 88 92 95 89 77 77 74 68 63 56 51 47 42 40 37 33 32 31 28 24 22 21 20 20 19 19 21 22 23 26 30 32 32 32 32
88 90 87 89 93 95 92 96 97 95 89 83 76 67 60 54 51 49 46 42 36 33 31 29 27 27 25 23 22 21 20 20 21 22 23 25 27 30 32 33 35 35 35
96 97 95 96 95 96 93 81 75 76 72 64 55 52 51 47 42 40 36 33 31 31 30 29 27 26 25 24 23 21 21 22 23 24 25 27 29 30 34 38 39 39 38
96 97 97 93 86 82 81 76 68 63 57 53 49 44 43 41 38 35 34 34 33 31 29 28 28 27 25 23 22 22 22 23 24 25 27 27 28 32 38 40 42 41 38
96 92 86 83 76 69 65 62 57 53 51 44 42 41 41 39 38 38 37 35 34 32 32 31 28 26 24 23 23 22 23 24 24 25 27 28 30 35 40 43 44 42 40
78 71 70 68 67 63 60 55 52 47 42 41 41 43 43 42 40 39 37 36 35 34 32 29 27 25 24 23 22 22 24 25 25 26 28 30 34 39 43 47 48 45 42
76 75 71 65 60 54 53 49 45 42 43 44 43 43 43 42 42 41 40 38 36 33 30 27 25 24 22 22 23 23 25 25 26 27 29 32 37 42 46 50 52 48 46
65 63 57 53 52 50 46 45 44 45 47 46 45 45 45 42 41 40 38 36 33 31 28 26 24 23 23 23 24 24 26 27 28 29 30 34 39 45 48 52 56 54 48

GFSGL_prec_cthk_114.txt.gz
RH
48 39 40 43 47 52 57 62 69 80 89 97 99 98 98 96 98 99 98 97 96 94 96 97 97 98 98 96 96 96 97 97 96 96 96 95 88 87 89 90 91 91 93
47 41 44 48 50 52 55 55 58 70 83 88 98 99 99 98 99 97 98 98 99 97 97 98 97 98 97 97 98 98 97 97 97 95 94 83 83 85 88 95 98 88 83
44 44 46 51 54 53 54 54 57 61 72 78 93 98 98 99 97 99 98 98 98 96 98 98 98 98 97 97 97 97 96 95 94 88 84 85 91 92 94 75 78 87 95
44 47 48 51 55 57 58 55 57 64 65 67 77 87 95 99 98 98 98 99 97 96 95 94 97 96 96 97 97 93 89 84 82 85 90 95 89 75 85 91 97 96 94
45 48 49 50 55 58 60 59 59 61 66 70 69 76 83 89 95 97 97 95 99 97 94 97 98 96 93 89 84 81 81 83 88 91 90 79 76 83 92 93 94 94 92
48 49 52 51 54 57 60 60 60 60 62 65 70 74 75 78 81 86 93 93 94 92 89 83 80 79 80 79 79 81 85 91 91 89 81 85 93 98 94 89 85 79 73
55 51 54 55 55 55 58 61 61 61 59 60 62 66 73 76 77 78 80 79 78 78 78 77 76 77 80 82 84 86 83 83 81 81 86 86 88 90 84 71 63 57 52
64 58 57 59 58 59 61 62 61 64 63 61 60 61 63 64 66 70 71 73 74 74 75 76 77 77 76 77 78 80 83 83 82 86 85 80 70 69 66 58 58 58 54
82 72 64 61 60 60 63 67 66 66 67 66 66 64 63 64 65 66 67 68 71 76 76 80 80 80 80 81 83 82 82 83 83 78 73 68 64 58 58 60 58 52 47
90 87 81 77 67 63 65 70 71 68 68 71 72 71 69 67 68 71 72 74 76 77 80 82 84 87 89 89 89 87 83 83 81 72 64 64 67 66 61 53 48 41 33
95 91 87 88 86 83 74 75 75 73 72 74 74 76 77 76 77 80 82 82 84 86 87 88 89 91 93 91 86 83 82 79 75 77 75 68 60 52 46 41 33 29 25
99 94 94 92 91 91 91 88 83 80 80 80 79 80 81 83 87 88 88 91 92 91 92 92 93 93 95 91 84 80 79 80 74 64 56 52 49 44 34 28 24 24 22
96 96 97 96 93 94 98 98 95 90 90 90 90 91 91 91 90 92 93 96 96 98 99 98 97 93 86 83 84 84 71 63 58 52 48 42 35 30 28 28 24 17 15
93 98 93 96 96 97 96 97 98 96 95 98 95 95 99 96 98 98 97 98 97 98 97 91 86 86 86 79 68 62 56 52 49 42 38 32 31 29 25 20 17 16 15
80 86 93 97 92 89 94 94 92 92 92 93 89 91 92 95 95 92 90 97 97 96 94 90 84 74 65 62 57 52 48 42 38 33 32 30 28 23 20 19 19 19 18
74 78 84 83 84 87 89 90 91 90 86 89 98 88 97 94 91 92 96 94 95 83 80 69 62 60 56 49 45 42 39 35 34 32 28 24 21 21 20 20 21 21 19
68 72 76 81 84 84 83 81 76 83 94 83 92 77 90 96 89 86 84 81 71 71 65 63 59 52 45 42 41 40 37 33 29 25 22 22 22 22 21 22 22 21 21
67 71 78 82 81 79 78 79 80 79 78 79 91 94 88 86 83 78 70 63 62 58 52 51 50 47 43 39 36 33 31 27 25 23 23 22 22 22 22 22 23 25 25
80 80 80 81 82 81 81 81 83 84 84 82 88 96 94 83 74 67 58 58 58 54 50 44 42 41 38 35 33 31 28 27 26 25 24 23 22 22 22 25 28 28 26
83 85 85 87 88 87 88 87 86 90 93 91 86 78 71 64 60 60 57 52 48 43 41 38 36 35 34 33 32 30 29 28 28 26 24 22 22 22 24 28 29 29 28
92 88 88 88 95 94 93 93 97 97 92 81 72 66 63 61 55 52 49 45 42 41 38 38 37 36 34 33 32 30 29 28 26 24 24 23 22 23 26 29 32 33 31
97 96 95 95 96 95 96 94 88 78 72 67 64 61 55 52 47 43 42 41 39 39 39 38 37 36 35 34 32 30 28 26 25 24 23 23 24 26 28 32 37 38 32
97 97 97 97 95 92 83 76 67 64 61 57 53 49 44 41 41 42 43 44 44 43 41 40 39 38 35 33 31 28 26 25 24 23 23 24 26 27 31 35 39 40 35
96 94 90 84 78 75 70 66 63 57 52 46 42 42 44 50 48 46 46 45 45 44 41 39 38 36 34 32 29 26 25 24 23 23 24 25 27 29 34 38 40 43 39
80 82 77 74 70 64 58 55 53 50 47 44 44 46 44 46 46 45 45 45 43 41 40 38 36 34 32 29 27 25 25 24 24 24 25 25 28 31 36 40 42 44 45
73 74 70 65 61 59 56 52 48 46 44 45 46 49 49 46 46 46 45 44 42 40 38 37 35 32 29 28 26 25 24 24 25 26 27 28 30 33 37 43 45 46 49

GFSGL_prec_cthk_117.txt.gz
RH
66 65 62 42 40 45 51 57 63 70 79 86 90 95 97 97 98 97 96 95 95 89 80 80 88 93 94 96 97 97 95 95 96 96 97 95 98 98 98 95 89 85 88
70 67 60 40 40 47 54 57 59 63 67 80 83 90 99 99 98 98 97 97 98 94 91 90 91 93 94 95 98 96 98 97 97 98 98 99 98 97 98 91 87 90 91
69 71 53 39 41 49 55 58 57 61 67 73 77 87 96 98 98 98 99 96 98 99 96 94 95 94 94 97 98 96 97 97 98 98 98 98 97 95 91 88 95 97 91
77 75 54 40 43 50 55 58 56 58 66 74 75 81 93 98 99 98 99 98 99 99 98 98 95 96 97 96 97 98 98 98 99 97 95 93 90 89 94 99 96 82 77
86 73 56 42 45 52 56 58 58 58 63 69 74 77 81 93 98 98 96 99 99 98 99 97 97 98 98 98 97 97 98 98 97 92 89 89 92 97 94 91 84 81 84
90 75 56 46 48 54 57 58 59 58 61 64 68 74 82 80 86 98 99 99 98 97 97 96 97 97 97 96 96 95 90 88 88 89 90 92 92 96 89 80 78 79 70
91 75 58 49 51 56 58 60 61 60 60 63 67 70 72 77 83 84 92 98 94 98 99 98 96 96 92 86 83 83 85 85 85 86 86 85 83 76 69 65 69 69 69
90 77 59 52 52 57 58 59 62 63 63 62 63 65 67 70 74 80 88 92 95 91 89 86 82 80 81 82 85 86 84 85 84 85 82 80 78 74 70 70 66 67 72
92 82 64 55 56 60 61 61 62 65 67 66 65 65 66 66 67 68 71 72 73 74 74 74 75 79 81 83 82 85 87 88 88 86 83 79 71 73 78 82 71 63 57
95 89 76 63 61 62 66 66 65 66 69 68 69 68 68 68 68 69 70 70 71 71 73 76 81 82 83 84 87 88 89 87 79 76 82 86 84 77 72 65 62 57 51
98 96 84 76 74 70 68 68 68 68 71 73 72 71 75 74 73 73 74 76 78 78 81 83 85 87 88 91 89 83 82 86 95 91 82 73 67 63 60 54 50 47 41
99 99 92 88 85 84 84 81 75 74 75 76 75 74 75 78 79 78 78 81 83 86 87 88 89 88 90 91 89 93 95 91 79 74 70 64 61 53 47 42 39 37 33
98 99 99 96 89 91 92 89 88 87 83 83 82 80 78 80 84 87 88 90 91 92 91 92 92 93 93 94 97 92 78 75 69 62 53 49 43 39 37 35 34 31 25
96 95 98 98 93 96 93 94 96 94 93 95 97 93 85 85 86 92 92 94 96 95 97 97 97 97 97 94 80 74 67 60 53 48 41 38 39 38 38 33 27 25 21
98 99 97 98 98 98 98 99 98 98 97 99 96 96 92 96 92 90 95 95 98 98 97 97 97 93 78 72 64 62 57 52 46 42 43 42 38 34 31 28 27 25 22
94 93 95 96 98 97 95 93 91 95 96 96 94 94 90 92 94 93 94 97 96 96 91 85 72 68 66 61 57 52 49 44 42 40 38 35 33 32 30 27 26 24 22
81 87 89 91 92 98 88 92 85 77 84 98 98 99 95 95 93 97 96 96 90 86 76 70 61 55 49 47 49 46 41 40 39 36 35 33 30 28 27 26 25 24 21
75 79 80 85 86 91 89 88 84 88 95 80 86 88 84 96 94 94 82 79 72 63 61 61 57 51 47 44 42 41 39 37 36 33 32 31 29 27 26 27 26 24 21
71 72 74 78 80 83 85 84 85 84 84 84 84 88 83 79 72 70 75 68 64 61 55 49 48 46 42 41 39 38 37 36 35 33 31 30 28 27 27 27 27 25 22
75 76 75 75 80 83 83 82 85 85 83 81 82 85 84 76 70 63 61 60 54 50 49 48 44 42 42 41 40 38 37 36 35 33 32 30 29 27 26 27 27 27 23
83 82 82 82 84 84 86 86 87 88 91 92 86 79 72 67 64 58 54 54 52 50 44 43 44 43 42 41 40 38 37 36 34 32 32 30 28 27 27 28 28 28 25
94 95 95 92 91 90 92 94 96 96 90 82 77 74 67 64 62 57 52 47 44 44 46 46 45 43 41 40 39 38 35 34 34 33 31 29 27 27 27 27 28 27 27
96 97 97 96 97 97 97 94 89 83 77 73 68 64 57 53 48 44 43 48 52 49 45 44 43 42 41 39 37 36 36 35 34 32 30 27 26 26 26 27 28 28 30
96 96 96 96 95 91 83 77 75 71 67 61 54 52 47 43 46 53 48 45 46 45 44 44 43 42 40 39 38 37 36 34 32 29 28 26 26 25 26 28 29 32 33
96 95 91 88 86 82 76 70 66 63 57 53 48 45 47 49 45 46 48 46 46 46 46 45 43 41 39 39 38 36 34 32 29 28 27 26 26 25 26 28 32 35 37
76 76 77 75 72 70 68 64 56 53 51 49 45 45 47 51 50 49 48 47 47 46 45 43 42 41 39 38 36 34 31 29 29 29 27 26 26 26 27 30 34 38 41